[[{"header":{"parameterUnit":"m.s-1","parameterCategory":1,"la1":31.0,"la2":29.5877,"lo1":-88.7671,"lo2":-86.6584,"dy":0.0162,"dx":0.0185,"nx":115,"ny":88,"refTime":"2024-08-31T12:00:00:Z","depth":0,"parameterNumber":2,"parameterNumberName":"U-component_of_WINDS"},"data":[0.0,0.0,0.0,0.0,0.0,0.0,0.0,0.0,0.0,0.0,0.0,0.0,0.0,0.0,0.0,0.0,0.0,0.0,0.0,0.0,0.0,0.0,0.0,0.0,0.0,0.0,0.0,0.0,0.0,0.0,0.0,0.0,0.0,0.0,0.0,0.0,0.0,0.0,0.0,0.0,0.0,0.0,0.0,0.0,0.0,0.0,0.0,0.0,0.0,0.0,0.0,0.0,0.0,0.0,0.0,0.0,0.0,0.0,0.0,0.0,0.0,0.0,0.0,0.0,0.0,0.0,0.0,0.0,0.0,0.0,0.0,0.0,0.0,0.0,0.0,0.0,0.0,0.0,0.0,0.0,0.0,0.0,0.0,0.0,0.0,0.0,0.0,0.0,0.0,0.0,0.0,0.0,0.0,0.0,0.0,0.0,0.0,0.0,0.0,0.0,0.0,0.0,0.0,0.0,0.0,0.0,0.0,0.0,0.0,0.0,0.0,0.0,0.0,0.0,0.0,0.0,0.0,0.0,0.0,0.0,0.0,0.0,0.0,0.0,0.0,0.0,0.0,0.0,0.0,0.0,0.0,0.0,0.0,0.0,0.0,0.0,0.0,0.0,0.0,0.0,0.0,0.0,0.0,0.0,0.0,0.0,0.0,0.0,0.0,0.0,0.0,0.0,0.0,0.0,0.0,0.0,0.0,0.0,0.0,0.0,0.0,0.0,0.0,0.0,0.0,0.0,0.0,0.0,0.0,0.0,0.0,0.0,0.0,0.0,0.0,0.0,0.0,0.0,0.0,0.0,0.0,0.0,0.0,0.0,0.0,0.0,0.0,0.0,0.0,0.0,0.0,0.0,0.0,0.0,0.0,0.0,0.0,0.0,0.0,0.0,0.0,0.0,0.0,0.0,0.0,0.0,0.0,0.0,0.0,0.0,0.0,0.0,0.0,0.0,0.0,0.0,0.0,0.0,0.0,0.0,0.0,0.0,0.0,0.0,0.0,0.0,0.0,0.0,0.0,0.0,0.0,0.0,0.0,0.0,0.0,0.0,0.0,0.0,0.0,0.0,0.0,0.0,0.0,0.0,0.0,0.0,0.0,0.0,0.0,0.0,0.0,0.0,0.0,0.0,0.0,0.0,0.0,0.0,0.0,0.0,0.0,0.0,0.0,0.0,0.0,0.0,0.0,0.0,0.0,0.0,0.0,0.0,0.0,0.0,0.0,0.0,0.0,0.0,0.0,0.0,0.0,0.0,0.0,0.0,0.0,0.0,0.0,0.0,0.0,0.0,0.0,0.0,0.0,0.0,0.0,0.0,0.0,0.0,0.0,0.0,0.0,0.0,0.0,0.0,0.0,0.0,0.0,0.0,0.0,0.0,0.0,0.0,0.0,0.0,0.0,0.0,0.0,0.0,0.0,0.0,0.0,0.0,0.0,0.0,0.0,0.0,0.0,0.0,0.0,0.0,0.0,0.0,0.0,0.0,0.0,0.0,0.0,0.0,0.0,0.0,0.0,0.0,0.0,0.0,0.0,0.0,0.0,0.0,0.0,0.0,0.0,0.0,0.0,0.0,0.0,0.0,0.0,0.0,0.0,0.0,0.0,0.0,0.0,0.0,0.0,0.0,0.0,0.0,0.0,0.0,0.0,0.0,0.0,0.0,0.0,0.0,0.0,0.0,0.0,0.0,0.0,0.0,0.0,0.0,0.0,0.0,0.0,0.0,0.0,0.0,0.0,0.0,0.0,0.0,0.0,0.0,0.0,0.0,0.0,0.0,0.0,0.0,0.0,0.0,0.0,0.0,0.0,0.0,0.0,0.0,0.0,0.0,0.0,0.0,0.0,0.0,0.0,0.0,0.0,0.0,0.0,0.0,0.0,0.0,0.0,0.0,0.0,0.0,0.0,0.0,0.0,0.0,0.0,0.0,0.0,0.0,0.0,0.0,0.0,0.0,0.0,0.0,0.0,0.0,0.0,0.0,0.0,0.0,0.0,0.0,0.0,0.0,0.0,0.0,0.0,0.0,0.0,0.0,0.0,0.0,0.0,0.0,0.0,0.0,0.0,0.0,0.0,0.0,0.0,0.0,0.0,0.0,0.0,0.0,0.0,0.0,0.0,0.0,0.0,0.0,0.0,0.0,0.0,0.0,0.0,0.0,0.0,0.0,0.0,0.0,0.0,0.0,0.0,0.0,0.0,0.0,0.0,0.0,0.0,0.0,0.0,0.0,0.0,0.0,0.0,0.0,0.0,0.0,0.0,0.0,0.0,0.0,0.0,0.0,0.0,0.0,0.0,0.0,0.0,0.0,0.0,0.0,0.0,0.0,0.0,0.0,0.0,0.0,0.0,0.0,0.0,0.0,0.0,0.0,0.0,0.0,0.0,0.0,0.0,0.0,0.0,0.0,0.0,0.0,0.0,0.0,0.0,0.0,0.0,0.0,0.0,0.0,0.0,0.0,0.0,0.0,0.0,0.0,0.0,0.0,0.0,0.0,0.0,0.0,0.0,0.0,0.0,0.0,0.0,0.0,0.0,0.0,0.0,0.0,0.0,0.0,0.0,0.0,0.0,0.0,0.0,0.0,0.0,0.0,0.0,0.0,0.0,0.0,0.0,0.0,0.0,0.0,0.0,0.0,0.0,0.0,0.0,0.0,0.0,0.0,0.0,0.0,0.0,0.0,0.0,0.0,0.0,0.0,0.0,0.0,0.0,0.0,0.0,0.0,0.0,0.0,0.0,0.0,0.0,0.0,0.0,0.0,0.0,0.0,0.0,0.0,0.0,0.0,0.0,0.0,0.0,0.0,0.0,0.0,0.0,0.0,0.0,0.0,0.0,0.0,0.0,0.0,0.0,0.0,0.0,0.0,0.0,0.0,0.0,0.0,0.0,0.0,0.0,0.0,0.0,0.0,0.0,0.0,0.0,0.0,0.0,0.0,0.0,0.0,0.0,0.0,0.0,0.0,0.0,0.0,0.0,0.0,0.0,0.0,0.0,0.0,0.0,0.0,0.0,0.0,0.0,0.0,0.0,0.0,0.0,0.0,0.0,0.0,0.0,0.0,0.0,0.0,0.0,0.0,0.0,0.0,0.0,0.0,0.0,0.0,0.0,0.0,0.0,0.0,0.0,0.0,0.0,0.0,0.0,0.0,0.0,0.0,0.0,0.0,0.0,0.0,0.0,0.0,0.0,0.0,0.0,0.0,0.0,0.0,0.0,0.0,0.0,0.0,0.0,0.0,0.0,0.0,0.0,0.0,0.0,0.0,0.0,0.0,0.0,0.0,0.0,0.0,0.0,0.0,0.0,0.0,0.0,0.0,0.0,0.0,0.0,0.0,0.0,0.0,0.0,0.0,0.0,0.0,0.0,0.0,0.0,0.0,0.0,0.0,0.0,0.0,0.0,0.0,0.0,0.0,0.0,0.0,0.0,0.0,0.0,0.0,0.0,0.0,0.0,0.0,0.0,0.0,0.0,0.0,0.0,0.0,0.0,0.0,0.0,0.0,0.0,0.0,0.0,0.0,0.0,0.0,0.0,0.0,0.0,0.0,0.0,0.0,0.0,0.0,0.0,0.0,0.0,0.0,0.0,0.0,0.0,0.0,0.0,0.0,0.0,0.0,0.0,0.0,0.0,0.0,0.0,0.0,0.0,0.0,0.0,0.0,0.0,0.0,0.0,0.0,0.0,0.0,0.0,0.0,0.0,0.0,0.0,0.0,0.0,0.0,0.0,0.0,0.0,0.0,0.0,0.0,0.0,0.0,0.0,0.0,0.0,0.0,0.0,0.0,0.0,0.0,0.0,0.0,0.0,0.0,0.0,0.0,0.0,0.0,0.0,0.0,0.0,0.0,0.0,0.0,0.0,0.0,0.0,0.0,0.0,0.0,0.0,0.0,0.0,0.0,0.0,0.0,0.0,0.0,0.0,0.0,0.0,0.0,0.0,0.0,0.0,0.0,0.0,0.0,0.0,0.0,0.0,0.0,0.0,0.0,0.0,0.0,0.0,0.0,0.0,0.0,0.0,0.0,0.0,0.0,0.0,0.0,0.0,0.0,0.0,0.0,0.0,0.0,0.0,0.0,0.0,0.0,0.0,0.0,0.0,0.0,0.0,0.0,0.0,0.0,0.0,0.0,0.0,0.0,0.0,0.0,0.0,0.0,0.0,0.0,0.0,0.0,0.0,0.0,0.0,0.0,0.0,0.0,0.0,0.0,0.0,0.0,0.0,0.0,0.0,0.0,0.0,0.0,0.0,0.0,0.0,0.0,0.0,0.0,0.0,0.0,-1.2941,0.0,0.0,0.0,0.0,0.0,0.0,0.0,0.0,0.0,0.0,0.0,0.0,0.0,0.0,0.0,0.0,0.0,0.0,0.0,0.0,0.0,0.0,0.0,0.0,0.0,0.0,0.0,0.0,0.0,0.0,0.0,0.0,0.0,0.0,0.0,0.0,0.0,0.0,0.0,0.0,0.0,0.0,0.0,0.0,0.0,0.0,0.0,0.0,0.0,0.0,0.0,0.0,0.0,0.0,0.0,0.0,0.0,0.0,0.0,0.0,0.0,0.0,0.0,0.0,0.0,0.0,0.0,0.0,0.0,0.0,0.0,0.0,0.0,0.0,0.0,0.0,0.0,0.0,0.0,0.0,0.0,0.0,0.0,0.0,0.0,0.0,0.0,0.0,0.0,0.0,0.0,0.0,0.0,0.0,0.0,0.0,0.0,0.0,0.0,0.0,0.0,0.0,0.0,0.0,0.0,0.0,0.0,0.0,0.0,0.0,-1.4254,-1.416,-1.3924,-1.353,-1.2941,0.0,0.0,0.0,0.0,0.0,0.0,0.0,0.0,0.0,0.0,0.0,0.0,0.0,0.0,0.0,0.0,0.0,0.0,0.0,0.0,0.0,0.0,0.0,0.0,0.0,0.0,0.0,0.0,0.0,0.0,0.0,0.0,0.0,0.0,0.0,0.0,0.0,0.0,0.0,0.0,0.0,0.0,0.0,0.0,0.0,0.0,0.0,0.0,0.0,0.0,0.0,0.0,0.0,0.0,0.0,0.0,0.0,0.0,0.0,0.0,0.0,0.0,0.0,0.0,0.0,0.0,0.0,0.0,0.0,0.0,0.0,0.0,0.0,0.0,0.0,0.0,0.0,0.0,0.0,0.0,0.0,0.0,0.0,0.0,0.0,0.0,0.0,0.0,0.0,0.0,0.0,0.0,0.0,0.0,0.0,0.0,0.0,0.0,0.0,0.0,0.0,0.0,0.0,0.0,0.0,0.0,0.0,0.0,0.0,0.0,0.0,0.0,-1.5059,-1.4591,-1.388,0.0,0.0,0.0,0.0,0.0,0.0,0.0,0.0,0.0,0.0,0.0,0.0,0.0,0.0,0.0,0.0,0.0,0.0,0.0,0.0,0.0,0.0,0.0,0.0,0.0,0.0,0.0,0.0,0.0,0.0,0.0,0.0,0.0,0.0,0.0,0.0,0.0,0.0,0.0,0.0,0.0,0.0,0.0,0.0,0.0,0.0,0.0,0.0,0.0,0.0,0.0,0.0,0.0,0.0,0.0,0.0,0.0,0.0,0.0,0.0,0.0,0.0,0.0,0.0,0.0,0.0,0.0,0.0,0.0,0.0,0.0,0.0,0.0,0.0,0.0,0.0,0.0,0.0,0.0,0.0,0.0,0.0,0.0,0.0,0.0,0.0,0.0,0.0,0.0,0.0,0.0,0.0,0.0,0.0,0.0,0.0,0.0,0.0,0.0,0.0,0.0,0.0,0.0,0.0,0.0,0.0,0.0,0.0,0.0,0.0,-1.5863,-1.796,-1.8258,0.0,-1.6756,0.0,0.0,0.0,0.0,0.0,0.0,0.0,0.0,0.0,0.0,0.0,0.0,0.0,0.0,0.0,0.0,0.0,0.0,0.0,0.0,0.0,0.0,0.0,0.0,0.0,0.0,0.0,0.0,0.0,0.0,0.0,0.0,0.0,0.0,0.0,0.0,0.0,0.0,0.0,0.0,0.0,0.0,0.0,0.0,0.0,0.0,0.0,0.0,0.0,0.0,0.0,0.0,0.0,0.0,0.0,0.0,0.0,0.0,0.0,0.0,0.0,0.0,0.0,0.0,0.0,0.0,0.0,0.0,0.0,0.0,0.0,0.0,0.0,0.0,0.0,0.0,0.0,0.0,0.0,0.0,0.0,0.0,0.0,0.0,0.0,0.0,0.0,0.0,0.0,0.0,0.0,0.0,0.0,0.0,0.0,0.0,0.0,0.0,0.0,0.0,0.0,0.0,0.0,0.0,0.0,0.0,0.0,0.0,0.0,0.0,0.0,-1.877,-1.8087,-1.7315,0.0,0.0,0.0,0.0,0.0,0.0,0.0,0.0,0.0,0.0,0.0,0.0,0.0,0.0,0.0,0.0,0.0,0.0,0.0,0.0,0.0,0.0,0.0,0.0,0.0,0.0,0.0,0.0,0.0,0.0,0.0,0.0,0.0,0.0,0.0,0.0,0.0,0.0,0.0,0.0,0.0,0.0,0.0,0.0,0.0,0.0,0.0,0.0,0.0,0.0,0.0,0.0,0.0,0.0,0.0,0.0,0.0,0.0,0.0,0.0,0.0,0.0,0.0,0.0,0.0,0.0,0.0,0.0,0.0,0.0,0.0,0.0,0.0,0.0,0.0,0.0,0.0,0.0,0.0,0.0,0.0,0.0,0.0,0.0,0.0,0.0,0.0,0.0,0.0,0.0,0.0,0.0,0.0,0.0,0.0,0.0,0.0,0.0,0.0,0.0,0.0,0.0,0.0,0.0,0.0,0.0,0.0,0.0,0.0,0.0,-1.6955,0.0,-1.9939,-1.8656,-1.7349,-1.6263,0.0,0.0,0.0,0.0,0.0,0.0,0.0,0.0,0.0,0.0,0.0,0.0,0.0,0.0,0.0,0.0,0.0,0.0,0.0,0.0,0.0,0.0,0.0,0.0,0.0,0.0,0.0,0.0,0.0,0.0,0.0,0.0,0.0,0.0,0.0,0.0,0.0,0.0,0.0,0.0,0.0,0.0,0.0,0.0,0.0,0.0,0.0,0.0,0.0,0.0,0.0,0.0,0.0,0.0,0.0,0.0,0.0,0.0,0.0,0.0,0.0,0.0,0.0,0.0,0.0,0.0,0.0,0.0,0.0,0.0,0.0,0.0,0.0,0.0,0.0,0.0,0.0,0.0,0.0,0.0,0.0,0.0,0.0,0.0,0.0,0.0,0.0,0.0,0.0,0.0,0.0,0.0,0.0,0.0,0.0,0.0,0.0,0.0,0.0,0.0,0.0,0.0,0.0,0.0,0.0,0.0,0.0,0.0,0.0,-2.0132,-2.062,-2.2568,-2.1102,-1.9154,0.0,0.0,0.0,0.0,0.0,0.0,0.0,0.0,0.0,0.0,0.0,0.0,0.0,0.0,0.0,0.0,0.0,0.0,0.0,0.0,0.0,0.0,0.0,0.0,0.0,0.0,0.0,0.0,0.0,0.0,0.0,0.0,0.0,0.0,0.0,0.0,0.0,0.0,0.0,0.0,0.0,0.0,0.0,0.0,0.0,0.0,0.0,0.0,0.0,0.0,0.0,0.0,0.0,0.0,0.0,0.0,0.0,0.0,0.0,0.0,0.0,0.0,0.0,0.0,0.0,0.0,0.0,0.0,0.0,0.0,0.0,0.0,0.0,0.0,0.0,0.0,0.0,0.0,0.0,0.0,0.0,0.0,0.0,0.0,0.0,0.0,0.0,0.0,0.0,0.0,0.0,0.0,0.0,0.0,0.0,0.0,0.0,0.0,0.0,0.0,0.0,0.0,0.0,0.0,0.0,0.0,0.0,0.0,0.0,-1.7425,-1.9372,-2.1214,-2.2812,-2.0526,-1.8922,0.0,0.0,0.0,0.0,0.0,0.0,0.0,0.0,0.0,0.0,0.0,0.0,0.0,0.0,0.0,0.0,0.0,0.0,0.0,0.0,0.0,0.0,0.0,0.0,0.0,0.0,0.0,0.0,0.0,0.0,0.0,0.0,0.0,0.0,0.0,0.0,0.0,0.0,0.0,0.0,0.0,0.0,0.0,0.0,0.0,0.0,0.0,0.0,0.0,0.0,0.0,0.0,0.0,0.0,0.0,0.0,0.0,0.0,0.0,0.0,0.0,0.0,0.0,0.0,0.0,0.0,0.0,0.0,0.0,0.0,0.0,0.0,0.0,0.0,0.0,0.0,0.0,0.0,0.0,0.0,0.0,0.0,0.0,0.0,0.0,0.0,0.0,0.0,0.0,0.0,0.0,0.0,0.0,0.0,0.0,0.0,0.0,0.0,0.0,0.0,0.0,0.0,0.0,0.0,0.0,0.0,0.0,0.0,0.0,-1.78,0.0,-2.2649,0.0,-2.0695,-1.8912,0.0,0.0,0.0,0.0,0.0,0.0,0.0,0.0,0.0,0.0,0.0,0.0,0.0,0.0,0.0,0.0,0.0,0.0,0.0,0.0,0.0,0.0,0.0,0.0,0.0,0.0,0.0,0.0,0.0,0.0,0.0,0.0,0.0,0.0,0.0,0.0,0.0,0.0,0.0,0.0,0.0,0.0,0.0,0.0,0.0,0.0,0.0,0.0,0.0,0.0,0.0,0.0,0.0,0.0,0.0,0.0,0.0,0.0,0.0,0.0,0.0,0.0,0.0,0.0,0.0,0.0,0.0,0.0,0.0,0.0,0.0,0.0,0.0,0.0,0.0,0.0,0.0,0.0,0.0,0.0,0.0,0.0,0.0,0.0,0.0,0.0,0.0,0.0,0.0,0.0,0.0,0.0,0.0,0.0,0.0,0.0,0.0,0.0,0.0,0.0,0.0,0.0,0.0,0.0,0.0,0.0,0.0,0.0,-1.8337,-2.297,-2.518,-2.4965,-2.2389,-2.1885,-1.9195,0.0,0.0,0.0,0.0,0.0,0.0,0.0,0.0,0.0,0.0,0.0,0.0,0.0,0.0,0.0,0.0,0.0,0.0,0.0,0.0,0.0,0.0,0.0,0.0,0.0,0.0,0.0,0.0,0.0,0.0,0.0,0.0,0.0,0.0,0.0,0.0,0.0,0.0,0.0,0.0,0.0,0.0,0.0,0.0,0.0,0.0,0.0,0.0,0.0,0.0,0.0,0.0,0.0,0.0,0.0,0.0,0.0,0.0,0.0,0.0,0.0,0.0,0.0,0.0,0.0,0.0,0.0,0.0,0.0,0.0,0.0,0.0,0.0,0.0,0.0,0.0,0.0,0.0,0.0,0.0,0.0,0.0,0.0,0.0,0.0,0.0,0.0,0.0,0.0,0.0,0.0,0.0,0.0,0.0,0.0,0.0,0.0,0.0,0.0,0.0,0.0,0.0,0.0,0.0,0.0,0.0,0.0,0.0,0.0,-2.115,-2.3319,-2.5017,-2.607,-2.2052,-1.9704,0.0,0.0,0.0,0.0,0.0,0.0,0.0,0.0,0.0,0.0,0.0,0.0,0.0,0.0,0.0,0.0,0.0,0.0,0.0,0.0,0.0,0.0,0.0,0.0,0.0,0.0,0.0,0.0,0.0,0.0,0.0,0.0,0.0,0.0,0.0,0.0,0.0,0.0,0.0,0.0,0.0,0.0,0.0,0.0,0.0,0.0,0.0,0.0,0.0,0.0,0.0,0.0,0.0,0.0,0.0,0.0,0.0,0.0,0.0,0.0,0.0,0.0,0.0,0.0,0.0,0.0,0.0,0.0,0.0,0.0,0.0,0.0,0.0,0.0,0.0,0.0,0.0,0.0,0.0,0.0,0.0,0.0,0.0,0.0,0.0,0.0,0.0,0.0,0.0,0.0,0.0,0.0,0.0,0.0,0.0,0.0,0.0,0.0,0.0,0.0,0.0,0.0,0.0,0.0,0.0,0.0,0.0,0.0,0.0,-2.2955,-2.4946,-2.6541,-2.7614,-2.3473,-2.093,-2.024,0.0,0.0,0.0,0.0,0.0,0.0,0.0,0.0,0.0,0.0,0.0,0.0,0.0,0.0,0.0,0.0,0.0,0.0,0.0,0.0,0.0,0.0,0.0,0.0,0.0,0.0,0.0,0.0,0.0,0.0,0.0,0.0,0.0,0.0,0.0,0.0,0.0,0.0,0.0,0.0,0.0,0.0,0.0,0.0,0.0,0.0,0.0,0.0,0.0,0.0,0.0,0.0,0.0,0.0,0.0,0.0,0.0,0.0,0.0,0.0,0.0,0.0,0.0,0.0,0.0,0.0,0.0,0.0,0.0,0.0,0.0,0.0,0.0,0.0,0.0,0.0,0.0,0.0,0.0,0.0,0.0,0.0,0.0,0.0,0.0,0.0,0.0,0.0,0.0,0.0,0.0,0.0,0.0,0.0,0.0,0.0,0.0,0.0,0.0,0.0,0.0,0.0,0.0,0.0,0.0,0.0,0.0,0.0,-2.7456,-2.9496,-2.945,-2.7334,-2.5884,-2.2758,0.0,0.0,0.0,0.0,0.0,0.0,0.0,0.0,0.0,0.0,0.0,0.0,0.0,0.0,0.0,0.0,0.0,0.0,0.0,0.0,0.0,0.0,0.0,0.0,0.0,0.0,0.0,0.0,0.0,0.0,0.0,0.0,0.0,0.0,0.0,0.0,0.0,0.0,0.0,0.0,0.0,0.0,0.0,0.0,0.0,0.0,0.0,0.0,0.0,0.0,0.0,0.0,0.0,0.0,0.0,0.0,0.0,0.0,0.0,0.0,0.0,0.0,0.0,0.0,0.0,0.0,0.0,0.0,0.0,0.0,0.0,0.0,0.0,0.0,0.0,0.0,0.0,0.0,0.0,0.0,0.0,0.0,0.0,0.0,0.0,0.0,0.0,0.0,0.0,0.0,0.0,0.0,0.0,0.0,0.0,0.0,0.0,0.0,0.0,0.0,0.0,0.0,0.0,0.0,0.0,0.0,0.0,0.0,0.0,-2.8694,-3.1716,-3.2854,-3.1762,-2.7619,-2.4231,0.0,0.0,0.0,0.0,0.0,0.0,0.0,0.0,0.0,0.0,0.0,0.0,0.0,0.0,0.0,0.0,0.0,0.0,0.0,0.0,0.0,0.0,0.0,0.0,0.0,0.0,0.0,0.0,0.0,0.0,0.0,0.0,0.0,0.0,0.0,0.0,0.0,0.0,0.0,0.0,0.0,0.0,0.0,0.0,0.0,0.0,0.0,0.0,0.0,0.0,0.0,0.0,0.0,0.0,0.0,0.0,0.0,0.0,0.0,0.0,0.0,0.0,0.0,0.0,0.0,0.0,0.0,0.0,0.0,0.0,0.0,0.0,0.0,0.0,0.0,0.0,0.0,0.0,0.0,0.0,0.0,0.0,0.0,0.0,0.0,0.0,0.0,0.0,0.0,0.0,0.0,0.0,0.0,0.0,0.0,0.0,0.0,0.0,0.0,0.0,0.0,0.0,0.0,0.0,0.0,0.0,0.0,0.0,-2.8604,-3.0854,-3.3721,-3.4963,-3.4368,-3.0036,-2.6492,0.0,0.0,0.0,0.0,0.0,0.0,0.0,0.0,0.0,0.0,0.0,0.0,0.0,0.0,0.0,0.0,0.0,0.0,0.0,0.0,0.0,0.0,0.0,0.0,0.0,0.0,0.0,0.0,0.0,0.0,0.0,0.0,0.0,0.0,0.0,0.0,0.0,0.0,0.0,0.0,0.0,0.0,0.0,0.0,0.0,0.0,0.0,0.0,0.0,0.0,0.0,0.0,0.0,0.0,0.0,0.0,0.0,0.0,0.0,0.0,0.0,0.0,0.0,0.0,0.0,0.0,0.0,0.0,0.0,0.0,0.0,0.0,0.0,0.0,0.0,0.0,0.0,0.0,0.0,0.0,0.0,0.0,0.0,0.0,0.0,0.0,0.0,0.0,0.0,0.0,0.0,0.0,0.0,0.0,0.0,0.0,0.0,0.0,0.0,0.0,0.0,0.0,0.0,0.0,0.0,0.0,0.0,0.0,-3.0065,-3.3232,-3.5395,-3.6234,-3.5565,-3.254,-2.8894,0.0,0.0,0.0,0.0,0.0,0.0,0.0,0.0,0.0,0.0,0.0,0.0,0.0,0.0,0.0,0.0,0.0,0.0,0.0,0.0,0.0,0.0,0.0,0.0,0.0,0.0,0.0,0.0,0.0,0.0,0.0,0.0,0.0,0.0,0.0,0.0,0.0,0.0,0.0,0.0,0.0,0.0,0.0,0.0,0.0,0.0,0.0,0.0,0.0,0.0,0.0,0.0,0.0,0.0,0.0,0.0,0.0,0.0,0.0,0.0,0.0,0.0,0.0,0.0,0.0,0.0,0.0,0.0,0.0,0.0,0.0,0.0,0.0,0.0,0.0,0.0,0.0,0.0,0.0,0.0,0.0,0.0,0.0,0.0,0.0,0.0,0.0,0.0,0.0,0.0,0.0,0.0,0.0,0.0,0.0,0.0,0.0,0.0,0.0,0.0,0.0,0.0,0.0,0.0,0.0,0.0,0.0,0.0,-3.19,-3.3275,-3.5856,-3.7119,-3.6955,-3.2879,-2.9015,0.0,0.0,0.0,0.0,0.0,0.0,0.0,0.0,0.0,0.0,0.0,0.0,0.0,0.0,0.0,0.0,0.0,0.0,0.0,0.0,0.0,0.0,0.0,0.0,0.0,0.0,0.0,0.0,0.0,0.0,0.0,0.0,0.0,0.0,0.0,0.0,0.0,0.0,0.0,0.0,0.0,0.0,0.0,0.0,0.0,0.0,0.0,0.0,-1.9921,0.0,0.0,0.0,0.0,0.0,0.0,0.0,0.0,0.0,0.0,0.0,0.0,0.0,0.0,0.0,0.0,0.0,0.0,0.0,0.0,0.0,0.0,0.0,0.0,0.0,0.0,0.0,0.0,0.0,0.0,0.0,0.0,0.0,0.0,0.0,0.0,0.0,0.0,0.0,0.0,0.0,0.0,0.0,0.0,0.0,0.0,0.0,0.0,0.0,0.0,0.0,0.0,0.0,0.0,0.0,0.0,0.0,0.0,0.0,-3.3667,-3.5087,-3.6825,-3.7629,-3.7259,-3.3721,-3.0228,0.0,0.0,0.0,0.0,0.0,0.0,0.0,0.0,0.0,0.0,0.0,0.0,0.0,0.0,0.0,0.0,0.0,0.0,0.0,0.0,0.0,0.0,0.0,0.0,0.0,0.0,0.0,0.0,0.0,0.0,0.0,0.0,0.0,0.0,0.0,0.0,0.0,0.0,0.0,0.0,0.0,0.0,0.0,0.0,0.0,0.0,0.0,0.0,0.0,0.0,0.0,0.0,0.0,0.0,0.0,0.0,0.0,0.0,0.0,0.0,0.0,0.0,0.0,0.0,0.0,0.0,0.0,0.0,0.0,0.0,0.0,0.0,0.0,0.0,0.0,0.0,0.0,0.0,0.0,0.0,0.0,0.0,0.0,0.0,0.0,0.0,0.0,0.0,0.0,0.0,0.0,0.0,0.0,0.0,0.0,0.0,0.0,0.0,0.0,0.0,0.0,0.0,0.0,0.0,0.0,0.0,0.0,-3.1732,-3.5011,-3.7286,-3.7953,-3.8024,-3.7501,-3.4684,-3.1799,-2.8818,0.0,0.0,0.0,0.0,0.0,0.0,0.0,0.0,0.0,0.0,0.0,0.0,0.0,0.0,0.0,0.0,0.0,0.0,0.0,0.0,0.0,0.0,0.0,0.0,0.0,0.0,0.0,0.0,0.0,0.0,0.0,0.0,0.0,0.0,0.0,0.0,0.0,0.0,-1.8308,-2.0498,0.0,0.0,0.0,0.0,0.0,0.0,0.0,0.0,-2.1794,0.0,0.0,0.0,0.0,0.0,0.0,0.0,0.0,0.0,0.0,0.0,0.0,0.0,0.0,0.0,0.0,0.0,0.0,0.0,0.0,0.0,0.0,0.0,0.0,0.0,0.0,0.0,0.0,0.0,0.0,0.0,0.0,0.0,0.0,0.0,0.0,0.0,0.0,0.0,0.0,0.0,0.0,0.0,0.0,0.0,0.0,0.0,0.0,0.0,0.0,0.0,0.0,0.0,0.0,0.0,0.0,-2.9937,-3.2193,-3.5025,-3.8484,-3.8816,-3.8646,-3.7937,-3.5402,-3.253,-2.9324,0.0,0.0,0.0,0.0,0.0,0.0,0.0,0.0,0.0,0.0,0.0,0.0,0.0,0.0,0.0,0.0,0.0,0.0,0.0,0.0,0.0,0.0,0.0,0.0,0.0,0.0,0.0,0.0,0.0,0.0,0.0,0.0,0.0,0.0,0.0,0.0,0.0,0.0,0.0,-2.2682,-2.3408,0.0,0.0,0.0,0.0,0.0,0.0,0.0,0.0,-2.2653,0.0,0.0,0.0,0.0,0.0,0.0,0.0,0.0,0.0,0.0,0.0,0.0,0.0,0.0,0.0,0.0,0.0,0.0,0.0,0.0,0.0,0.0,0.0,0.0,0.0,0.0,0.0,0.0,0.0,0.0,0.0,0.0,0.0,0.0,0.0,0.0,0.0,0.0,0.0,0.0,0.0,0.0,0.0,0.0,0.0,0.0,0.0,0.0,0.0,0.0,0.0,0.0,0.0,0.0,0.0,-2.9688,-3.3336,-3.6197,-3.8265,-3.9059,-3.8891,-3.76,-3.4045,-3.112,0.0,0.0,0.0,0.0,0.0,0.0,0.0,0.0,0.0,0.0,0.0,0.0,0.0,0.0,0.0,0.0,0.0,0.0,0.0,0.0,0.0,0.0,0.0,0.0,0.0,0.0,0.0,0.0,0.0,0.0,0.0,0.0,0.0,0.0,0.0,0.0,0.0,0.0,0.0,0.0,-2.4037,-2.4682,-2.5402,0.0,0.0,0.0,0.0,0.0,0.0,-2.4041,-2.3417,0.0,0.0,0.0,0.0,0.0,0.0,0.0,0.0,0.0,0.0,0.0,0.0,0.0,0.0,0.0,0.0,0.0,0.0,0.0,0.0,0.0,0.0,0.0,0.0,0.0,0.0,0.0,0.0,0.0,0.0,0.0,0.0,0.0,0.0,0.0,0.0,0.0,0.0,0.0,0.0,0.0,0.0,0.0,0.0,0.0,0.0,0.0,0.0,0.0,0.0,0.0,0.0,0.0,0.0,0.0,-2.969,-3.4321,-3.728,-3.8387,-3.9465,-3.9218,-3.7557,-3.324,-3.0214,0.0,0.0,0.0,0.0,0.0,0.0,0.0,0.0,0.0,0.0,0.0,0.0,0.0,0.0,0.0,0.0,0.0,0.0,0.0,0.0,0.0,0.0,0.0,0.0,0.0,0.0,0.0,0.0,0.0,0.0,0.0,0.0,0.0,0.0,0.0,0.0,0.0,0.0,0.0,0.0,0.0,-2.623,-2.6765,-2.6489,0.0,0.0,0.0,0.0,-2.6042,-2.5803,0.0,0.0,0.0,0.0,0.0,0.0,0.0,0.0,0.0,0.0,0.0,0.0,0.0,0.0,0.0,0.0,0.0,0.0,0.0,0.0,0.0,0.0,0.0,0.0,0.0,0.0,0.0,0.0,0.0,0.0,0.0,0.0,0.0,0.0,0.0,0.0,0.0,0.0,0.0,0.0,0.0,0.0,0.0,0.0,0.0,0.0,0.0,0.0,0.0,0.0,0.0,0.0,0.0,0.0,0.0,0.0,-3.1645,-3.4429,-3.7266,-4.0284,-4.0586,-4.006,-3.8788,-3.5289,-3.2039,0.0,0.0,0.0,0.0,0.0,0.0,0.0,0.0,0.0,0.0,0.0,0.0,0.0,0.0,0.0,0.0,0.0,0.0,0.0,0.0,0.0,0.0,0.0,0.0,0.0,0.0,0.0,0.0,0.0,0.0,0.0,0.0,0.0,0.0,0.0,0.0,0.0,0.0,0.0,0.0,0.0,-2.853,-2.7782,-2.8693,-2.9203,0.0,0.0,-2.9291,-2.9522,-3.0532,0.0,0.0,0.0,0.0,0.0,0.0,0.0,0.0,0.0,0.0,0.0,0.0,0.0,0.0,0.0,0.0,0.0,0.0,0.0,0.0,0.0,0.0,0.0,0.0,0.0,0.0,0.0,0.0,0.0,0.0,0.0,0.0,0.0,0.0,0.0,0.0,0.0,0.0,0.0,0.0,0.0,0.0,0.0,0.0,0.0,0.0,0.0,0.0,0.0,0.0,0.0,0.0,0.0,0.0,0.0,-2.6114,-3.2208,-3.5239,-3.7848,-4.0095,-4.0578,-3.9902,-3.7952,-3.3843,-3.0543,0.0,0.0,0.0,0.0,0.0,0.0,0.0,0.0,0.0,0.0,0.0,0.0,0.0,0.0,0.0,0.0,0.0,0.0,0.0,0.0,0.0,0.0,0.0,0.0,0.0,0.0,0.0,0.0,0.0,0.0,0.0,0.0,0.0,0.0,0.0,0.0,0.0,0.0,0.0,0.0,0.0,0.0,-2.975,-3.0648,0.0,0.0,0.0,-3.153,-3.2357,0.0,0.0,0.0,0.0,0.0,0.0,0.0,0.0,0.0,0.0,0.0,0.0,0.0,0.0,0.0,0.0,0.0,0.0,0.0,0.0,0.0,0.0,0.0,0.0,0.0,0.0,0.0,0.0,0.0,0.0,0.0,0.0,0.0,0.0,0.0,0.0,0.0,0.0,0.0,0.0,0.0,0.0,0.0,0.0,0.0,0.0,0.0,0.0,0.0,0.0,0.0,0.0,0.0,0.0,0.0,0.0,0.0,-3.2676,-3.5968,-3.8384,-3.9922,-4.0509,-3.9705,-3.7392,-3.3195,0.0,0.0,0.0,0.0,0.0,0.0,0.0,0.0,0.0,0.0,0.0,0.0,0.0,0.0,0.0,0.0,0.0,0.0,0.0,0.0,0.0,0.0,0.0,0.0,0.0,0.0,0.0,-1.4155,0.0,0.0,0.0,0.0,0.0,0.0,0.0,0.0,0.0,0.0,0.0,0.0,0.0,0.0,-3.0337,-3.182,-3.3049,-3.3899,0.0,0.0,-3.4185,-3.4535,-3.3895,-3.2718,0.0,0.0,0.0,0.0,0.0,0.0,0.0,0.0,0.0,0.0,0.0,0.0,0.0,0.0,0.0,0.0,0.0,0.0,0.0,0.0,0.0,0.0,0.0,0.0,0.0,0.0,0.0,0.0,0.0,0.0,0.0,0.0,0.0,0.0,0.0,0.0,0.0,0.0,0.0,0.0,0.0,0.0,0.0,0.0,0.0,0.0,0.0,0.0,0.0,0.0,0.0,0.0,0.0,0.0,0.0,-3.3364,-3.6223,-3.8611,-4.0625,-4.0767,-3.9944,-3.8122,-3.514,-3.2014,0.0,0.0,0.0,0.0,0.0,0.0,0.0,0.0,0.0,0.0,0.0,0.0,0.0,0.0,0.0,0.0,0.0,0.0,0.0,0.0,0.0,0.0,0.0,0.0,0.0,0.0,0.0,0.0,0.0,0.0,0.0,0.0,0.0,0.0,0.0,0.0,0.0,0.0,0.0,0.0,0.0,-3.3056,-3.3724,-3.6265,-3.7922,0.0,0.0,-3.8335,-3.5819,-3.7619,-3.7776,-3.3282,0.0,0.0,0.0,0.0,0.0,0.0,0.0,0.0,0.0,0.0,0.0,0.0,0.0,0.0,0.0,0.0,0.0,0.0,0.0,0.0,0.0,0.0,0.0,0.0,0.0,0.0,0.0,0.0,0.0,0.0,0.0,0.0,0.0,0.0,0.0,0.0,0.0,0.0,0.0,0.0,0.0,0.0,0.0,0.0,0.0,0.0,0.0,0.0,0.0,0.0,0.0,0.0,0.0,-2.7164,-3.3626,-3.6291,-3.8629,-4.0694,-4.0802,-3.9961,-3.8254,-3.5922,-3.2827,0.0,0.0,0.0,0.0,0.0,0.0,0.0,0.0,0.0,0.0,0.0,0.0,0.0,0.0,0.0,0.0,0.0,0.0,0.0,0.0,0.0,0.0,0.0,0.0,0.0,0.0,0.0,0.0,-1.9486,-2.0304,-2.1041,0.0,0.0,0.0,0.0,0.0,0.0,0.0,0.0,0.0,0.0,-3.5075,-3.6676,-3.8688,0.0,0.0,-4.0111,-4.046,-4.0274,-3.9277,-3.8041,-3.6504,-3.4123,0.0,0.0,0.0,0.0,0.0,0.0,0.0,0.0,0.0,0.0,0.0,0.0,0.0,0.0,0.0,0.0,0.0,0.0,0.0,0.0,0.0,0.0,0.0,0.0,0.0,0.0,0.0,0.0,0.0,0.0,0.0,0.0,0.0,0.0,0.0,0.0,0.0,0.0,0.0,0.0,0.0,0.0,0.0,0.0,0.0,0.0,0.0,0.0,0.0,0.0,0.0,0.0,-2.7814,-3.387,-3.6673,-3.9077,-4.111,-4.1065,-4.025,-3.8665,-3.6821,-3.3984,0.0,0.0,0.0,0.0,0.0,0.0,0.0,0.0,0.0,0.0,0.0,0.0,0.0,0.0,0.0,0.0,0.0,0.0,0.0,0.0,0.0,0.0,0.0,0.0,0.0,0.0,0.0,0.0,-2.152,-2.2275,-2.2347,0.0,0.0,0.0,0.0,0.0,0.0,0.0,0.0,0.0,0.0,-3.7451,-3.9379,-4.0955,-4.1892,-4.176,-4.2061,-4.2413,-4.2749,-4.0872,-3.9255,-3.8814,0.0,0.0,0.0,0.0,0.0,0.0,0.0,0.0,0.0,0.0,0.0,0.0,0.0,0.0,0.0,0.0,0.0,0.0,0.0,0.0,0.0,0.0,0.0,0.0,0.0,0.0,0.0,-1.9023,0.0,0.0,-1.6522,0.0,0.0,0.0,0.0,0.0,0.0,0.0,0.0,0.0,0.0,0.0,0.0,0.0,0.0,0.0,0.0,0.0,0.0,0.0,0.0,0.0,0.0,-2.9248,-3.4144,-3.7455,-4.0089,-4.1869,-4.1652,-4.0904,-3.9681,-3.8002,-3.5775,-3.2988,0.0,0.0,0.0,0.0,0.0,0.0,0.0,0.0,0.0,0.0,0.0,0.0,0.0,0.0,0.0,0.0,0.0,0.0,0.0,0.0,0.0,0.0,0.0,0.0,0.0,0.0,-2.1549,-2.3147,-2.4008,0.0,0.0,0.0,0.0,0.0,0.0,0.0,0.0,0.0,0.0,-3.7461,-4.0286,-4.1647,-4.3076,-4.3974,-4.4053,-4.4664,-4.441,-4.2313,-4.259,-4.2299,0.0,0.0,0.0,0.0,0.0,0.0,0.0,0.0,0.0,0.0,0.0,0.0,0.0,0.0,0.0,0.0,0.0,0.0,0.0,0.0,0.0,0.0,0.0,0.0,0.0,0.0,0.0,-2.3412,-2.2252,0.0,0.0,0.0,0.0,0.0,0.0,0.0,0.0,0.0,0.0,0.0,-3.2231,-3.2733,0.0,0.0,0.0,0.0,0.0,0.0,0.0,0.0,0.0,0.0,0.0,0.0,-3.0344,-3.4123,-3.8193,-4.0817,-4.1949,-4.1892,-4.1275,-4.0175,-3.9301,-3.7025,-3.3196,0.0,0.0,0.0,0.0,0.0,0.0,0.0,0.0,0.0,0.0,0.0,0.0,0.0,0.0,0.0,0.0,0.0,0.0,0.0,0.0,0.0,0.0,0.0,0.0,0.0,-2.2822,0.0,0.0,0.0,0.0,0.0,0.0,0.0,0.0,0.0,0.0,0.0,-3.524,-3.7814,-4.0104,-4.1994,-4.334,-4.4035,-4.4395,0.0,0.0,0.0,0.0,0.0,0.0,0.0,0.0,0.0,0.0,0.0,0.0,0.0,0.0,-3.5666,-3.2635,-3.0879,-2.9971,-3.0222,0.0,0.0,0.0,0.0,0.0,0.0,0.0,0.0,0.0,0.0,0.0,0.0,0.0,0.0,-2.811,0.0,-2.5847,0.0,0.0,0.0,0.0,0.0,0.0,0.0,0.0,-3.3579,-3.5988,-3.7646,-3.7891,-3.7989,0.0,-3.6507,-3.314,0.0,0.0,0.0,0.0,0.0,0.0,0.0,0.0,-3.184,-3.5082,-3.8924,-4.1448,-4.2473,-4.2094,-4.1629,-4.1183,-4.0142,-3.7847,-3.4259,-3.0777,-2.8267,0.0,0.0,0.0,0.0,0.0,0.0,0.0,0.0,0.0,0.0,0.0,0.0,0.0,0.0,0.0,0.0,0.0,0.0,0.0,0.0,0.0,0.0,0.0,-2.4088,0.0,0.0,0.0,0.0,0.0,0.0,0.0,0.0,0.0,-3.3385,-3.6344,-3.9304,-4.128,-4.2833,-4.3888,-4.4166,0.0,0.0,0.0,0.0,0.0,0.0,0.0,-4.2627,-4.3179,-4.1893,-4.0828,-4.0985,-4.1852,-4.237,-4.1954,0.0,0.0,-3.6562,-3.4758,-3.3958,-3.4312,-3.544,-3.6408,-3.6497,-3.7026,-3.7411,0.0,0.0,0.0,0.0,0.0,0.0,0.0,0.0,-3.3001,-3.3313,0.0,-3.1504,0.0,0.0,0.0,0.0,0.0,-3.3411,0.0,0.0,-4.1008,-4.2904,-4.1742,-4.1742,-4.2085,-4.2682,-4.1475,-3.9783,-3.7424,-3.1015,0.0,0.0,0.0,0.0,0.0,0.0,-3.3757,-3.6929,-3.9841,-4.2051,-4.3453,-4.2268,-4.1915,-4.2562,-4.0532,-3.8375,-3.6307,-3.4798,-3.2793,-3.0059,-2.7229,0.0,0.0,0.0,0.0,0.0,0.0,0.0,0.0,0.0,0.0,0.0,0.0,0.0,0.0,0.0,0.0,0.0,0.0,0.0,0.0,-2.342,0.0,0.0,0.0,0.0,0.0,0.0,0.0,0.0,0.0,0.0,-3.7936,-4.0982,-4.3571,-4.421,0.0,0.0,0.0,0.0,-4.4578,-4.574,-4.5881,-4.595,-4.6146,-4.6248,-4.5941,-4.4876,0.0,0.0,-4.198,-4.3535,-4.4483,-4.3133,-4.3178,-4.2739,-4.0436,-3.8976,-3.8414,-3.8969,-3.963,-4.0306,-4.1077,-4.166,-4.211,-3.4178,0.0,0.0,0.0,0.0,-3.5847,-3.7526,-4.0644,-3.9853,-3.9463,-3.923,-3.7261,0.0,0.0,0.0,0.0,0.0,0.0,-3.9253,-4.0678,-4.2826,-4.4701,-4.633,-4.633,-4.6491,-4.669,-4.5777,-4.4742,-4.3523,-4.0258,-3.4939,-2.7849,0.0,0.0,0.0,0.0,-3.6531,-3.8656,-4.1627,-4.3236,-4.3303,-4.2941,-4.2609,-4.234,-4.1274,-4.0053,-3.8769,-3.7345,-3.5513,-3.3245,-3.0823,0.0,0.0,0.0,0.0,0.0,0.0,0.0,0.0,0.0,0.0,0.0,0.0,0.0,0.0,0.0,0.0,0.0,0.0,0.0,-2.4792,-2.5022,-2.5919,0.0,0.0,0.0,0.0,0.0,0.0,0.0,0.0,0.0,-4.2911,-4.3896,-4.4607,0.0,0.0,-4.6125,-4.5782,-4.5625,-4.5667,-4.6118,-4.602,0.0,-4.5972,-4.5136,-4.4634,-4.5052,-4.4896,-4.4526,-4.4099,-4.4578,-4.4868,-4.4424,-4.4553,-4.433,-4.3412,-4.2323,-4.1872,-4.2469,-4.327,-4.3981,-4.4399,-4.501,-4.5495,-3.9922,-3.8685,-3.8183,-3.9118,-4.0893,-4.0599,-4.2132,-4.4857,-4.438,-4.4232,-4.4219,-4.2689,-4.0933,-3.905,-3.7154,0.0,0.0,0.0,-4.3111,-4.5212,-4.5678,-4.6973,-4.8818,-4.8899,-4.8926,-4.891,-4.8251,-4.7631,-4.7068,-4.535,-4.101,-3.431,0.0,0.0,-3.26,-3.6335,-3.9245,-4.1138,-4.3032,-4.3994,-4.4026,-4.3575,-4.305,-4.2498,-4.1669,-4.0899,-4.022,-3.8942,-3.746,-3.573,-3.3748,-3.1041,0.0,0.0,0.0,0.0,0.0,0.0,0.0,0.0,0.0,0.0,0.0,-2.0429,-1.8258,0.0,0.0,0.0,-2.3941,-2.6014,-2.818,-2.8514,0.0,0.0,0.0,0.0,0.0,0.0,0.0,-4.0399,-4.2937,-4.4983,-4.6184,-4.6521,-4.6567,-4.6394,-4.6708,-4.6785,-4.629,0.0,-4.6163,-4.6454,-4.6363,-4.6311,-4.6489,-4.5773,-4.5337,-4.5599,-4.5563,-4.5389,-4.5184,-4.5397,-4.5647,-4.5664,-4.5925,-4.6103,-4.5838,-4.5279,-4.4857,-4.4963,-4.507,-4.5522,-4.6441,-4.6795,-4.6911,-4.4853,-4.6146,-4.4202,-4.3784,-4.4474,-4.4836,-4.5737,-4.6923,-4.7122,-4.7778,-4.8606,-4.7422,-4.6141,-4.4783,-4.2674,0.0,-4.4087,-4.5537,-4.7284,-4.9258,-4.9175,-4.943,-4.9872,-4.9884,-4.987,-4.9846,-4.9368,-4.9005,-4.8707,-4.7446,-4.5379,-4.2638,-3.995,-3.8542,-3.8465,-3.9857,-4.1739,-4.4042,-4.4063,-4.4438,-4.5182,-4.4073,-4.3286,-4.2811,-4.1827,-4.1089,-4.0608,-3.96,-3.856,-3.7408,-3.5848,-3.3592,-3.0503,0.0,0.0,0.0,0.0,0.0,0.0,0.0,0.0,0.0,0.0,0.0,0.0,0.0,0.0,0.0,-2.817,0.0,-3.202,-3.3135,0.0,0.0,0.0,-3.7001,-3.8628,-4.1542,-4.3683,-4.4405,0.0,0.0,-4.8247,-4.8701,-4.897,-4.8592,-4.8403,-4.7761,-4.6374,-4.623,-4.6359,-4.6872,-4.6915,-4.707,-4.7582,-4.7626,-4.7379,-4.6731,-4.6411,-4.6267,-4.5901,-4.6173,-4.6665,-4.6672,-4.7241,-4.7638,-4.7672,-4.7479,-4.7443,-4.6771,-4.5832,-4.565,-4.7353,-4.7332,-4.6927,-4.673,-4.737,-4.761,-4.7628,-4.7586,-4.8102,-4.8553,-4.8938,-4.9496,-4.9764,-4.9761,-4.8865,-4.8129,-4.7582,-4.7676,-4.7949,-4.8431,-4.9338,-5.0025,-5.0532,-5.048,-5.0514,-5.0633,-5.0536,-5.0472,-5.0483,-5.0352,-5.0256,-5.0176,-4.9606,-4.8331,-4.6428,-4.5302,-4.3179,-4.0205,-4.1487,-4.3113,-4.4989,-4.4888,-4.4798,-4.467,-4.3812,-4.2993,-4.2231,-4.1568,-4.059,-3.925,-3.8376,-3.7494,-3.6615,-3.5573,-3.4073,-3.2106,-2.8812,0.0,0.0,0.0,0.0,0.0,0.0,0.0,0.0,0.0,-2.8226,-2.377,0.0,-3.0768,0.0,-3.1742,-3.3926,-3.6412,-3.6194,0.0,0.0,-4.004,-4.1305,-4.373,-4.5608,-4.7048,-4.7827,-4.8608,-4.9443,-5.0504,-4.9655,-4.9412,-5.0566,-4.9207,-4.7979,-4.774,-4.7603,-4.7601,-4.7816,-4.7855,-4.8146,-4.8812,-4.9204,-4.9185,-4.8669,-4.8215,-4.7916,-4.7787,-4.754,-4.7458,-4.7458,-4.7551,-4.77,-4.7724,-4.7431,-4.7583,-4.8169,-4.7517,-4.6891,-4.7604,-4.7315,-4.6927,-4.7995,-4.8097,-4.9121,-4.9045,-4.833,-4.9888,-5.0584,-5.0654,-5.1122,-5.1045,-5.0526,-5.0042,-4.9752,-4.9662,-5.0112,-5.0358,-5.0408,-5.0784,-5.0959,-5.0952,-5.0913,-5.0914,-5.0914,-5.0851,-5.0803,-5.0803,-5.0784,-5.0758,-5.0693,-5.0523,-4.9879,-4.8831,-4.8388,-4.6854,-4.4261,-4.3994,-4.4569,-4.5892,-4.5704,-4.5303,-4.4654,-4.4196,-4.3259,-4.1785,-4.1011,-3.9881,-3.8335,-3.7441,-3.6578,-3.5752,-3.5261,-3.427,-3.2656,-3.0246,-2.8162,0.0,0.0,0.0,0.0,0.0,0.0,0.0,0.0,0.0,0.0,0.0,-3.456,-3.4375,-3.6179,-3.8167,-4.0094,-4.058,-4.1652,-4.3775,-4.4516,-4.5786,-4.8011,-4.9263,-5.0127,-5.058,-5.1211,-5.1914,-5.2535,-5.1777,-5.1566,-5.2699,-5.1078,-4.9545,-4.8964,-4.8777,-4.8756,-4.8815,-4.8815,-4.909,-4.9894,-5.019,-5.0173,-4.9672,-4.918,-4.8756,-4.8537,-4.8342,-4.8189,-4.8206,-4.8465,-4.8706,-4.8689,-4.8547,-4.8636,-4.9065,-4.8582,-4.809,-4.8513,-4.8143,-4.7657,-4.8729,-4.8497,-4.9471,-4.9189,-4.83,-5.0634,-5.1452,-5.1165,-5.1476,-5.1277,-5.0697,-5.0836,-5.0939,-5.1004,-5.0992,-5.0992,-5.0996,-5.0944,-5.0925,-5.0905,-5.0902,-5.0914,-5.0894,-5.0945,-5.0932,-5.0882,-5.0882,-5.0819,-5.0693,-5.0683,-5.0497,-5.0107,-4.9829,-4.9314,-4.8504,-4.6532,-4.5938,-4.6659,-4.6434,-4.5868,-4.503,-4.4716,-4.3527,-4.1482,-4.0222,-3.8958,-3.7655,-3.6652,-3.5789,-3.5059,-3.5114,-3.4527,-3.3115,-3.1641,-3.0522,0.0,-2.9174,0.0,0.0,0.0,0.0,0.0,0.0,0.0,0.0,-3.7985,-3.8465,-3.913,-4.0908,-4.2459,-4.3589,-4.5323,-4.6863,-4.8037,-4.8873,-4.9963,-5.143,-5.2249,-5.278,-5.2961,-5.409,-5.4657,-5.4556,-5.4337,-5.4241,-5.4477,-5.3384,-5.1956,-5.0565,-4.9994,-4.9738,-4.9757,-4.9849,-5.0233,-5.082,-5.1057,-5.1025,-5.0497,-5.0086,-4.9489,-4.9195,-4.9088,-4.9072,-4.9124,-4.9516,-4.9924,-5.0011,-4.993,-4.993,-4.9918,-4.9239,-4.8847,-4.9243,-4.892,-4.8486,-4.8858,-4.8448,-4.9087,-4.9677,-5.0212,-5.0205,-4.9008,-4.7163,-4.8088,-4.8677,-4.9162,-5.0355,-5.0898,-5.0928,-5.0985,-5.0989,-5.1002,-5.0997,-5.0991,-5.0966,-5.0935,-5.0914,-5.0887,-5.0799,-5.0748,-5.073,-5.075,-5.0731,-5.0683,-5.0683,-5.0308,-4.9557,-4.9269,-4.8818,-4.819,0.0,0.0,0.0,-4.6757,-4.6595,-4.6059,-4.4112,-4.26,-4.1479,-3.9198,0.0,-3.6613,-3.5725,-3.5169,-3.5041,-3.5665,0.0,0.0,0.0,0.0,0.0,0.0,0.0,0.0,0.0,0.0,0.0,-3.9355,-3.9103,-3.9369,-4.1606,-4.3159,-4.345,-4.4778,-4.6315,-4.779,-4.8152,-4.8974,-5.0452,-5.1321,-5.219,-5.3132,-5.353,-5.4196,-5.5512,-5.4907,-5.5085,-5.6593,-5.5884,-5.5313,-5.5962,-5.5345,-5.4477,-5.3592,-5.183,-5.0637,-5.0618,-5.1096,-5.1575,-5.1738,-5.2307,-5.2559,-5.2541,-5.2154,-5.1739,-5.1514,-5.0811,-5.043,-5.0357,-5.017,-5.0011,-5.0011,-5.0011,-5.0011,-5.0011,-4.9818,-4.9496,-4.8817,-4.8394,-4.7921,-4.9291,0.0,-4.9346,-4.9482,0.0,-4.9439,-4.8342,-4.6575,-4.8014,-4.893,-4.9441,-5.0206,-5.0653,-5.0771,-5.0391,-5.0198,-5.0171,-4.9772,-4.9784,-5.0217,-5.0237,-5.0488,-5.0914,-5.0848,-5.0839,-5.0782,-5.0821,-5.0748,-5.0693,-5.0683,-5.0481,-5.0029,-4.9737,-4.9526,-4.9385,-4.907,-4.8447,-4.744,-4.7391,-4.7233,-4.6958,-4.5588,-4.398,-4.2121,-4.0774,0.0,0.0,0.0,0.0,0.0,0.0,0.0,0.0,0.0,0.0,-3.863,-3.9029,-3.9399,-3.9902,-4.1346,-4.2782,-4.3957,-4.4837,-4.4746,-4.3501,-4.5224,-4.6504,-4.6943,-4.7691,-4.8415,-4.9097,-5.0205,-5.122,-5.1995,-5.3099,-5.4008,-5.4389,-5.4906,-5.534,-5.5723,-5.5884,-5.6296,-5.7078,-5.6885,-5.6684,-5.7148,-5.6603,-5.5984,-5.5497,-5.3867,-5.2491,-5.2087,-5.2289,-5.2582,-5.2619,-5.2894,-5.3203,-5.3124,-5.2761,-5.2449,-5.2384,-5.15,-5.082,-5.0766,-5.0359,-5.0011,-5.0011,-5.0011,-5.0131,-5.043,-5.0351,-5.003,-4.9413,-4.901,-4.854,-4.9607,-4.9443,-4.9747,-4.924,-4.83,-4.9005,-4.8621,-4.7691,0.0,0.0,0.0,-5.0264,-5.0425,-5.0495,-4.9845,-4.9547,-4.9519,-4.8856,-4.8933,-4.9634,-4.9738,-5.017,-5.0855,-5.0918,-5.0911,-5.0855,-5.0866,-5.081,-5.0683,-5.0692,-5.0692,-5.0663,-5.0391,-5.041,-5.0634,-5.0623,-4.995,-4.8706,-4.8187,-4.7894,-4.777,-4.7247,-4.5751,-4.3312,-4.2895,-4.1757,-3.9764,-3.9672,-3.926,-3.8407,-3.8502,-3.8869,-3.9496,-3.9682,-4.0691,-4.2748,-4.3682,-4.4471,-4.5242,-4.6488,-4.7332,-4.7459,-4.8782,-4.9003,-4.7645,-4.8288,-4.9001,-4.9598,-4.9715,-4.9805,-4.9875,-5.1691,-5.3098,-5.3375,-5.4611,-5.5395,-5.5449,-5.6002,-5.6134,-5.571,-5.6596,-5.7319,-5.6973,-5.7399,-5.7881,-5.7882,-5.7386,-5.7005,-5.6822,-5.5537,-5.4252,-5.3757,-5.3702,-5.3683,-5.3647,-5.3702,-5.3573,-5.3497,-5.3233,-5.2903,-5.2526,-5.179,-5.1184,-5.1084,-5.055,-5.0276,-5.0218,-5.039,-5.0597,-5.12,-5.0952,-5.0642,-5.0563,-5.0204,-4.9624,-4.929,-5.011,-4.9542,-4.9729,-5.0326,-4.9758,-4.9668,-4.9867,-5.0173,-5.0012,-4.957,-5.0473,-5.0535,-4.9917,-5.0045,-5.008,-5.0092,-5.0276,-5.0394,-5.0519,-5.0548,-5.0596,-5.0712,-5.074,-5.074,-5.0731,-5.0712,-5.0693,-5.0623,-5.0613,-5.0613,-5.0613,-5.0582,-5.0542,-5.0532,-5.0582,-5.041,-5.0009,-4.9296,-4.8763,-4.845,-4.7076,-4.6144,-4.5647,-4.3825,-4.2653,-4.2285,-4.2013,-4.1785,-4.1644,-4.2268,-4.269,-4.2835,-4.3442,-4.4306,-4.526,-4.6066,-4.6814,-4.7468,-4.776,-4.816,-4.8835,-4.9345,-4.9482,-4.9317,-4.9994,-5.0508,-5.0598,-5.0519,-5.1044,-5.2264,-5.2693,-5.3707,-5.5491,-5.6075,-5.6215,-5.6179,-5.6437,-5.6543,-5.6342,-5.669,-5.7231,-5.7657,-5.7882,-5.7955,-5.796,-5.7813,-5.7776,-5.7474,-5.6455,-5.5482,-5.528,-5.5244,-5.5244,-5.5016,-5.5225,-5.477,-5.4326,-5.4598,-5.4401,-5.3429,-5.2777,-5.2236,-5.1823,-5.1315,-5.0989,-5.0976,-5.1494,-5.1804,-5.1998,-5.1941,-5.1894,-5.1863,-5.154,-5.0716,-5.0226,-5.1093,-5.0497,-5.0516,-5.0954,-5.0761,-5.1036,-5.163,-5.1932,-5.1556,-5.0788,-5.123,-5.1057,-5.0448,-5.0132,-4.9727,-4.9264,-4.8986,-4.9102,-4.9515,-4.9696,-5.0008,-5.038,-5.0563,-5.0623,-5.0584,-5.0584,-5.0603,-5.0603,-5.0603,-5.0632,-5.0643,-5.0613,-5.0481,-5.0256,-5.0429,-5.0478,-5.0329,-4.9823,-4.9448,-4.9254,-4.8361,-4.7603,-4.6959,-4.6076,-4.5283,-4.4522,-4.4506,-4.4457,-4.425,-4.4617,-4.5002,-4.5443,-4.581,-4.6342,-4.7093,-4.7496,-4.7843,-4.8134,-4.8591,-4.903,-4.9397,-5.0358,-5.0914,-5.0914,-5.082,-5.0986,-5.1389,-5.1323,-5.1739,-5.3011,-5.3767,-5.4856,-5.6443,-5.6992,-5.69,-5.626,-5.685,-5.7024,-5.6351,-5.6887,-5.7593,-5.7941,-5.7978,-5.7978,-5.7978,-5.7978,-5.7886,-5.7589,-5.6921,-5.6359,-5.62,-5.5606,-5.5153,-5.513,-5.4816,-5.449,-5.4116,-5.4369,-5.4343,-5.3684,-5.3281,-5.2854,-5.2541,-5.208,-5.1731,-5.1718,-5.1929,-5.2308,-5.2822,-5.2856,-5.2873,-5.2829,-5.2726,-5.2031,-5.1141,-5.2193,-5.1563,-5.1282,-5.1286,-5.1537,-5.1958,-5.2499,-5.2932,-5.2725,-5.2062,-5.1995,-5.1649,-5.1036,-5.0472,-4.975,-4.8914,-4.8332,-4.8321,-4.8708,-4.8992,-4.9472,-5.0054,-5.0355,-5.0429,-5.0396,-5.0385,-5.0374,-5.0333,-5.0333,-5.0407,-5.0513,-5.0553,-5.0407,-5.0118,-5.0352,-5.0424,-5.024,-5.0006,-4.9857,-4.9803,-4.9541,-4.8952,-4.8089,-4.813,-4.7723,-4.6652,-4.6721,-4.6722,-4.6471,-4.6452,-4.6728,-4.7314,-4.7369,-4.7645,-4.8194,-4.8248,-4.832,-4.8521,-4.9128,-4.9698,-5.0063,-5.124,-5.205,-5.2158,-5.1699,-5.1591,-5.2139,-5.2352,-5.2789,-5.3769,-5.4917,-5.6016,-5.6744,-5.7354,-5.6969,-5.5757,-5.6767,-5.7207,-5.6033,-5.7005,-5.796,-5.7978,-5.7978,-5.7932,-5.7797,-5.7797,-5.7565,-5.7065,-5.6894,-5.6844,-5.6552,-5.5734,-5.5223,-5.5047,-5.4761,-5.4429,-5.4162,-5.434,-5.4367,-5.4055,-5.3538,-5.3199,-5.309,-5.279,-5.2524,-5.2494,-5.267,-5.3028,-5.3546,-5.3649,-5.3649,-5.3635,-5.377,-5.3382,-5.1292,-5.2772,-5.218,-5.1892,-5.1791,-5.1734,-5.1746,-5.1832,-5.2,-5.2295,-5.2593,-5.2545,-5.2103,-5.1431,-5.1395,-5.097,-5.0236,-5.0342,-5.0017,-4.9451,-4.9438,-4.9662,-4.9987,-5.005,-5.0062,-5.0031,-5.0031,-4.9891,-4.9594,-4.9566,-4.9678,-4.9987,-5.034,-5.0446,-5.0329,-5.0371,-5.0217,-4.9876,-4.9811,-4.9817,-4.9803,-4.9771,-4.9547,-4.9174,-4.8853,-4.8667,-4.8395,-4.8274,-4.8105,-4.8086,-4.8031,-4.8104,-4.8177,-4.8158,-4.8194,-4.8226,-4.8128,-4.8302,-4.8967,-4.9275,-5.0033,-5.1265,-5.1763,-5.2284,-5.2804,-5.2923,-5.2965,-5.3167,-5.3717,-5.4359,-5.528,-5.6102,-5.6593,-5.6726,-5.6891,-5.6271,-5.5115,-5.5941,-5.6565,-5.5721,-5.7005,-5.7978,-5.7978,-5.7955,-5.775,-5.7259,-5.7209,-5.6989,-5.6492,-5.6357,-5.6312,-5.6313,-5.6107,-5.6054,-5.5955,-5.6098,-5.5434,-5.4981,-5.549,-5.5233,-5.4457,-5.4092,-5.3976,-5.3524,-5.3362,-5.3287,-5.3425,-5.3787,-5.4201,-5.4167,-5.427,-5.4356,-5.4397,-5.4521,-5.4143,-5.0864,-5.2027,-5.1981,-5.1747,-5.1489,-5.1694,-5.178,-5.1728,-5.2094,-5.2589,-5.3122,-5.315,-5.2675,-5.1953,-5.1974,-5.1584,-5.0841,-5.0892,-5.0777,-5.0421,-5.0137,-5.0019,-5.0074,-4.9773,-4.9622,-4.9594,-4.958,-4.9522,-4.9416,-4.9431,-4.9522,-4.9613,-4.9779,-4.9725,-4.9498,-4.9641,-4.9655,-4.9512,-4.9498,-4.9409,-4.9256,-4.9409,-4.9329,-4.9048,-4.9048,-4.8982,-4.8816,-4.8676,-4.8586,-4.8568,-4.842,-4.8324,-4.8324,-4.8324,-4.8287,-4.8303,-4.8704,-4.9287,-5.0069,-5.0545,-5.1096,-5.1815,-5.2227,-5.2669,-5.3066,-5.3039,-5.316,-5.3738,-5.4107,-5.4624,-5.5497,-5.6195,-5.6626,-5.6758,-5.6736,-5.6053,-5.4638,-5.5831,-5.6492,-5.5849,-5.7005,-5.7978,-5.7932,-5.7684,-5.7259,-5.6765,-5.6625,-5.6412,-5.5887,-5.5773,-5.5601,-5.5343,-5.5224,-5.5385,-5.5629,-5.5432,-5.5121,-5.4892,-5.4997,-5.4852,-5.4622,-5.4383,-5.4291,-5.406,-5.3994,-5.4011,-5.4063,-5.4218,-5.4512,-5.4512,-5.4546,-5.4615,-5.5031,-5.5197,-5.5161,-5.0665,-5.1609,-5.2068,-5.2026,-5.1688,-5.1883,-5.1936,-5.1837,-5.204,-5.2479,-5.3006,-5.2846,-5.255,-5.2184,-5.2432,-5.213,-5.1448,-5.1335,-5.1224,-5.1004,-5.062,-5.0467,-5.0426,-4.9842,-4.9543,-4.9458,-4.927,-4.9126,-4.9126,-4.9252,-4.9283,-4.9252,-4.9311,-4.924,-4.9001,-4.9193,-4.9256,-4.9177,-4.9161,-4.9017,-4.8746,-4.89,-4.8917,-4.8711,-4.8982,-4.8999,-4.8676,-4.8676,-4.8658,-4.8658,-4.8421,-4.8324,-4.8324,-4.8324,-4.8397,-4.8653,-4.9444,-5.027,-5.1018,-5.1543,-5.2004,-5.2305,-5.2706,-5.2977,-5.3158,-5.3218,-5.354,-5.4137,-5.4653,-5.5284,-5.576,-5.6255,-5.6493,-5.6487,-5.6218,-5.5404,-5.4129,-5.5281,-5.5907,-5.5413,-5.6442,-5.7522,-5.7474,-5.7116,-5.6704,-5.6193,-5.6055,-5.5848,-5.5313,-5.5134,-5.497,-5.454,-5.4543,-5.4714,-5.5031,-5.4878,-5.4526,-5.4512,-5.4589,-5.462,-5.4512,-5.4512,-5.4494,-5.4287,-5.446,-5.4477,-5.4374,-5.446,-5.4512,-5.4546,-5.4649,-5.4908,-5.5376,-5.5807,-5.6351,-5.0903,-5.2356,-5.285,-5.2943,-5.2932,-5.2429,-5.2175,-5.2171,-5.154,-5.1545,-5.2014,-5.1405,-5.1244,-5.177,-5.2704,-5.2782,-5.2083,-5.1924,-5.1513,-5.0947,-5.0804,-5.0948,-5.1175,-5.0394,-4.9967,-4.9929,-4.926,-4.8749,-4.8458,-4.8676,-4.8815,-4.8849,-4.9094,-4.9268,-4.9209,-4.919,-4.911,-4.8849,-4.8833,-4.8658,-4.8383,-4.8364,-4.8402,-4.8383,-4.8658,-4.8693,-4.8402,-4.8344,-4.8344,-4.8344,-4.8325,-4.8324,-4.8324,-4.8343,-4.8651,-4.9398,-5.0246,-5.1037,-5.1671,-5.1951,-5.2305,-5.2947,-5.3109,-5.3182,-5.324,-5.3766,-5.4202,-5.4393,-5.5609,-5.6411,-5.635,-5.6447,-5.6319,-5.5628,-5.4939,-5.3949,-5.2694,-5.3916,-5.4452,-5.442,-5.5533,-5.6429,-5.6438,-5.6357,-5.6037,-5.5618,-5.5461,-5.5271,-5.4821,-5.4589,-5.4575,-5.4526,-5.4512,-5.4512,-5.4543,-5.4557,-5.4526,-5.4512,-5.4512,-5.4512,-5.4512,-5.4512,-5.4512,-5.4512,-5.4512,-5.4512,-5.4512,-5.4512,-5.4512,-5.4649,-5.4994,-5.529,-5.5529,-5.684,-5.7224,-5.0096,-5.1743,-5.1874,-5.2404,-5.3055,-5.286,-5.2753,-5.2666,-5.2434,-5.2636,-5.2945,-5.2351,-5.2101,-5.2315,-5.2216,-5.2069,-5.1798,-5.1752,-5.1764,-5.1704,-5.1293,-5.1274,-5.1627,-5.091,-5.0523,-5.0394,-4.9693,-4.9067,-4.8641,-4.855,-4.8605,-4.8765,-4.8693,-4.8658,-4.8676,-4.8658,-4.8586,-4.8514,-4.8477,-4.842,-4.8326,-4.8514,-4.8532,-4.8325,-4.8623,-4.8746,-4.8604,-4.8623,-4.8623,-4.8623,-4.842,-4.8324,-4.8361,-4.8838,-4.9738,-5.0908,-5.1387,-5.1883,-5.2577,-5.2663,-5.2813,-5.313,-5.3039,-5.3057,-5.3253,-5.3774,-5.4214,-5.4631,-5.5432,-5.5921,-5.5671,-5.5889,-5.5704,-5.4645,-5.3753,-5.2863,-5.22,-5.2738,-5.3529,-5.3966,-5.5223,-5.613,-5.5801,-5.5733,-5.5473,-5.4957,-5.4834,-5.4728,-5.4589,-5.4512,-5.4512,-5.4512,-5.4512,-5.4512,-5.4512,-5.4512,-5.4512,-5.4512,-5.4512,-5.4512,-5.4512,-5.4512,-5.4512,-5.4512,-5.4512,-5.4512,-5.4512,-5.4632,-5.4615,-5.4598,-5.4928,-5.548,-5.5529,-5.6324,-5.6587,-4.9923,-5.0827,-5.1171,-5.1768,-5.2504,-5.2932,-5.3041,-5.303,-5.3077,-5.3339,-5.3492,-5.286,-5.2429,-5.2147,-5.1635,-5.1291,-5.1175,-5.1576,-5.206,-5.2348,-5.2023,-5.2028,-5.221,-5.1573,-5.1187,-5.1004,-5.005,-4.9378,-4.903,-4.8549,-4.8458,-4.8604,-4.8402,-4.8324,-4.8324,-4.8324,-4.8324,-4.8324,-4.8324,-4.8324,-4.8325,-4.8514,-4.855,-4.8382,-4.8532,-4.8641,-4.8641,-4.8641,-4.8641,-4.8604,-4.842,-4.8434,-4.8765,-4.9756,-5.0839,-5.1807,-5.2171,-5.2519,-5.2969,-5.2977,-5.2977,-5.3078,-5.3211,-5.3339,-5.3539,-5.4137,-5.464,-5.502,-5.541,-5.5544,-5.4901,-5.4822,-5.4534,-5.3583,-5.2873,-5.2138,-5.1272,-5.1926,-5.2785,-5.3563,-5.4514,-5.5121,-5.5159,-5.5104,-5.4926,-5.4526,-5.4512,-5.4512,-5.4512,-5.4512,-5.4512,-5.4512,-5.4512,-5.4512,-5.4512,-5.4512,-5.4512,-5.4512,-5.4512,-5.4512,-5.4512,-5.4512,-5.4512,-5.4512,-5.4512,-5.4512,-5.4581,-5.4718,-5.4669,-5.4549,-5.5221,-5.591,-5.5723,-5.5417,-5.5902,-5.0492,-5.02,-5.0903,-5.1336,-5.1589,-5.2445,-5.2943,-5.3043,-5.3235,-5.3387,-5.3467,-5.2654,-5.207,-5.1393,-5.1372,-5.0823,-5.0578,-5.1668,-5.2246,-5.2232,-5.2644,-5.2882,-5.2895,-5.2178,-5.1757,-5.1669,-5.0303,-4.9589,-4.9516,-4.893,-4.8582,-4.8454,-4.8564,-4.8636,-4.8416,-4.8563,-4.8489,-4.8545,-4.86,-4.8508,-4.8343,-4.8546,-4.8601,-4.8508,-4.8546,-4.8546,-4.8472,-4.8436,-4.8454,-4.8436,-4.8454,-4.8765,-4.9776,-5.1024,-5.1917,-5.1998,-5.2581,-5.29,-5.285,-5.2828,-5.2868,-5.3072,-5.3683,-5.407,-5.4237,-5.499,-5.5573,-5.5505,-5.5714,-5.5479,-5.427,-5.3763,-5.3211,-5.2546,-5.2245,-5.1643,-5.0967,-5.1297,-5.2252,-5.3047,-5.3541,-5.3749,-5.4253,-5.454,-5.4526,-5.4512,-5.448,-5.448,-5.4448,-5.4448,-5.448,-5.448,-5.4448,-5.4431,-5.448,-5.4512,-5.4512,-5.4512,-5.4512,-5.4512,-5.4512,-5.4512,-5.4512,-5.4512,-5.4512,-5.4512,-5.4451,-5.4589,-5.4625,-5.4729,-5.557,-5.5916,-5.5644,-5.5339,-5.5684,-5.0684,-5.0611,-5.0866,-5.1131,-5.1315,-5.1707,-5.2229,-5.296,-5.3094,-5.3538,-5.3917,-5.3373,-5.2908,-5.2597,-5.2119,-5.1429,-5.0875,-5.164,-5.1784,-5.1436,-5.1518,-5.1817,-5.203,-5.1838,-5.1436,-5.0984,-5.079,-5.0359,-4.9968,-4.9944,-5.0031,-5.0031,-4.9975,-5.0031,-4.9958,-5.0031,-5.0031,-5.0031,-5.0031,-5.0013,-5.0031,-5.0013,-5.0013,-5.0031,-5.0013,-5.0013,-5.0013,-4.9481,-4.9187,-4.915,-4.9701,-5.0398,-5.1189,-5.1722,-5.2213,-5.2721,-5.2978,-5.3082,-5.2955,-5.2952,-5.3208,-5.3646,-5.4074,-5.4287,-5.4589,-5.5299,-5.5474,-5.498,-5.5193,-5.4893,-5.3396,-5.3523,-5.3112,-5.1714,-5.107,-5.0752,-5.0339,-5.0766,-5.1265,-5.1731,-5.2674,-5.3349,-5.3536,-5.3827,-5.4303,-5.4303,-5.4303,-5.4303,-5.4303,-5.4335,-5.4303,-5.4303,-5.4303,-5.4367,-5.4448,-5.4512,-5.448,-5.448,-5.4463,-5.4512,-5.4512,-5.4512,-5.4512,-5.4512,-5.4512,-5.4465,-5.4404,-5.4478,-5.4598,-5.4447,-5.4724,-5.4965,-5.5088,-5.5208,-5.5278,-5.084,-5.0485,-5.0438,-5.038,-5.0368,-5.0659,-5.1266,-5.1963,-5.2319,-5.2839,-5.323,-5.309,-5.2912,-5.2799,-5.2449,-5.1833,-5.1124,-5.1442,-5.115,-5.0589,-5.0973,-5.127,-5.1594,-5.1594,-5.1362,-5.0912,-5.088,-5.0644,-5.0176,-5.018,-5.0292,-5.0459,-5.0498,-5.0584,-5.0782,-5.082,-5.082,-5.082,-5.0784,-5.082,-5.0802,-5.082,-5.082,-5.0802,-5.0802,-5.082,-5.0784,-5.0563,-5.0345,-5.0196,-5.0802,-5.1499,-5.1979,-5.227,-5.2653,-5.2978,-5.3103,-5.306,-5.2974,-5.3226,-5.3555,-5.4062,-5.4515,-5.4838,-5.5092,-5.549,-5.5135,-5.4764,-5.4378,-5.3818,-5.2853,-5.2818,-5.2615,-5.1506,-5.1309,-5.0841,-5.063,-5.087,-5.1179,-5.1586,-5.2403,-5.2906,-5.312,-5.3631,-5.4173,-5.419,-5.4271,-5.4303,-5.4303,-5.4335,-5.4303,-5.4303,-5.4367,-5.4448,-5.448,-5.448,-5.4431,-5.4431,-5.4431,-5.448,-5.4512,-5.4512,-5.4512,-5.448,-5.4448,-5.4335,-5.4323,-5.4586,-5.471,-5.4389,-5.4084,-5.4426,-5.4716,-5.4308,-5.4276,-5.1005,-4.9851,-4.9847,-4.9519,-4.9006,-4.9749,-5.0214,-5.0352,-5.1117,-5.1634,-5.18,-5.2285,-5.2282,-5.2152,-5.2547,-5.2201,-5.1253,-5.1348,-5.0942,-5.0518,-5.0916,-5.1455,-5.1357,-5.1314,-5.126,-5.1177,-5.0745,-5.0474,-5.0428,-5.0086,-4.962,-5.0272,-5.0482,-5.0471,-5.1007,-5.0963,-5.1132,-5.1187,-5.1096,-5.1114,-5.1114,-5.1059,-5.1077,-5.1096,-5.1132,-5.1151,-5.1261,-5.1646,-5.1646,-5.1151,-5.1701,-5.2105,-5.2215,-5.2803,-5.3109,-5.3042,-5.302,-5.2977,-5.3014,-5.3525,-5.3991,-5.4113,-5.4943,-5.5664,-5.5478,-5.5161,-5.4972,-5.4744,-5.3765,-5.2925,-5.2716,-5.2528,-5.2135,-5.2067,-5.2318,-5.225,-5.1845,-5.1842,-5.2076,-5.2099,-5.2477,-5.2955,-5.3143,-5.3787,-5.4192,-5.4207,-5.4271,-5.4303,-5.4385,-5.4335,-5.4416,-5.4385,-5.4271,-5.4289,-5.4289,-5.4303,-5.4271,-5.4271,-5.4271,-5.4303,-5.4385,-5.4385,-5.4385,-5.4353,-5.4335,-5.4239,-5.4211,-5.4372,-5.4376,-5.4054,-5.4021,-5.4309,-5.4175,-5.3853,-5.3534,-5.1944,-5.119,-5.1174,-5.0497,-4.9524,-4.9708,-4.9925,-5.0088,-5.0352,-5.0855,-5.1561,-5.2457,-5.2515,-5.2639,-5.3293,-5.3286,-5.2498,-5.2389,-5.189,-5.0929,-5.102,-5.0885,-5.0502,-5.0425,-5.0453,-5.0457,-5.0584,-5.0717,-5.0735,-5.1044,-5.1245,-5.1215,-5.1715,-5.2069,-5.2079,-5.2264,-5.2561,-5.2582,-5.2525,-5.2488,-5.2488,-5.2488,-5.2582,-5.2582,-5.2527,-5.2506,-5.2564,-5.2766,-5.2839,-5.2637,-5.2747,-5.2894,-5.2837,-5.3057,-5.3164,-5.3124,-5.3124,-5.306,-5.312,-5.3697,-5.4136,-5.4291,-5.5022,-5.5419,-5.5115,-5.5007,-5.4707,-5.4376,-5.3791,-5.3369,-5.2992,-5.3128,-5.3519,-5.4013,-5.3635,-5.3085,-5.2834,-5.3232,-5.3688,-5.3565,-5.4209,-5.4264,-5.3915,-5.4187,-5.4593,-5.4234,-5.4063,-5.4045,-5.4207,-5.4143,-5.411,-5.4078,-5.4013,-5.4045,-5.4045,-5.4078,-5.411,-5.4078,-5.4078,-5.4078,-5.411,-5.411,-5.4127,-5.4095,-5.411,-5.4045,-5.3898,-5.3902,-5.3751,-5.3735,-5.377,-5.3889,-5.3804,-5.3534,-5.3179,-5.2209,-5.1682,-5.1405,-5.0667,-4.9682,-4.9358,-4.9331,-4.9437,-4.9494,-4.9781,-5.0435,-5.1101,-5.1508,-5.1743,-5.2387,-5.2419,-5.1934,-5.1933,-5.131,-5.0399,-5.0309,-5.0214,-5.0015,-5.0011,-5.0011,-5.004,-5.0302,-5.0425,-5.0519,-5.1149,-5.1288,-5.1312,-5.1873,-5.2108,-5.206,-5.2586,-5.285,-5.2893,-5.306,-5.3185,-5.3185,-5.3185,-5.3167,-5.3185,-5.3185,-5.3185,-5.3167,-5.3146,-5.3124,-5.3167,-5.3185,-5.3185,-5.3143,-5.3103,-5.3082,-5.3039,-5.3039,-5.3021,-5.3172,-5.378,-5.4254,-5.4462,-5.4981,-5.5083,-5.4904,-5.4645,-5.4188,-5.3963,-5.3544,-5.3273,-5.3291,-5.3784,-5.46,-5.5195,-5.5006,-5.4628,-5.4289,-5.4698,-5.4782,-5.4733,-5.5006,-5.5262,-5.4211,-5.4685,-5.4684,-5.4411,-5.4086,-5.4066,-5.4078,-5.3915,-5.3816,-5.3882,-5.3882,-5.3948,-5.3965,-5.398,-5.3915,-5.3899,-5.3866,-5.3866,-5.3932,-5.3948,-5.398,-5.3965,-5.3932,-5.3849,-5.375,-5.3651,-5.3601,-5.3551,-5.3501,-5.3518,-5.3518,-5.3314,-5.2938,-5.209,-5.1759,-5.1144,-5.0466,-4.9774,-4.9127,-4.8907,-4.862,-4.8687,-4.8713,-4.8918,-4.9259,-4.9994,-5.0096,-5.1005,-5.074,-5.05,-5.0837,-5.0203,-4.9762,-4.9593,-4.9649,-4.9911,-4.9911,-4.9935,-4.9964,-4.9964,-5.0022,-5.0149,-5.0178,-5.0341,-5.0749,-5.091,-5.1131,-5.1569,-5.2036,-5.2273,-5.2408,-5.2802,-5.2995,-5.306,-5.3121,-5.3185,-5.3185,-5.3185,-5.3185,-5.3164,-5.3103,-5.3082,-5.3185,-5.3203,-5.3082,-5.2999,-5.2977,-5.2934,-5.2941,-5.2988,-5.3117,-5.3339,-5.4122,-5.4476,-5.4567,-5.4776,-5.4844,-5.4614,-5.4108,-5.3733,-5.3717,-5.2874,-5.3077,-5.3653,-5.4313,-5.5161,-5.5996,-5.6642,-5.6865,-5.6611,-5.6199,-5.5788,-5.5366,-5.5755,-5.5566,-5.5143,-5.4958,-5.5026,-5.5094,-5.4702,-5.4548,-5.4411,-5.4225,-5.4055,-5.3882,-5.3882,-5.3882,-5.3882,-5.3915,-5.38,-5.3734,-5.3651,-5.3651,-5.3817,-5.385,-5.3899,-5.3899,-5.3767,-5.3701,-5.3668,-5.3568,-5.3517,-5.3501,-5.3501,-5.3518,-5.3467,-5.3127,-5.2799,-5.2365,-5.2483,-5.2344,-5.159,-5.0559,-5.0297,-4.9605,-4.862,-4.8604,-4.8604,-4.8795,-4.9503,-4.9876,-4.9955,-5.0605,-5.1148,-5.0858,-5.083,-5.0741,-5.0121,-4.9559,-4.952,-4.9673,-4.9761,-4.9772,-4.983,-4.9935,-5.0011,-5.0051,-5.0302,-5.0425,-5.0274,-5.0884,-5.1262,-5.107,-5.1475,-5.175,-5.1848,-5.2291,-5.2563,-5.2654,-5.2934,-5.3121,-5.3143,-5.3185,-5.3185,-5.3185,-5.3164,-5.3164,-5.3143,-5.3054,-5.2981,-5.2886,-5.2904,-5.2897,-5.302,-5.3435,-5.3754,-5.4026,-5.487,-5.5422,-5.4511,-5.477,-5.4931,-5.3849,-5.3718,-5.3551,-5.3517,-5.3382,-5.3534,-5.433,-5.5195,-5.5994,-5.6777,-5.744,-5.7919,-5.7994,-5.7873,-5.7528,-5.7475,-5.7511,-5.7529,-5.6657,-5.6401,-5.6215,-5.5842,-5.5451,-5.5196,-5.4924,-5.4652,-5.4397,-5.4158,-5.3972,-5.3972,-5.3751,-5.3751,-5.3685,-5.3618,-5.3551,-5.3501,-5.3668,-5.3702,-5.3718,-5.3685,-5.3601,-5.3568,-5.3584,-5.3551,-5.3501,-5.3501,-5.3518,-5.3518,-5.3399,-5.3024,-5.2485,-5.2457,-5.2652,-5.2036,-5.1344,-5.0651,-4.9989,-4.9297,-4.8696,-4.8604,-4.8604,-4.8671,-4.9197,-4.9334,-4.9309,-4.9781,-5.0017,-5.0057,-5.0025,-4.9876,-4.9625,-4.9507,-4.9506,-4.9439,-4.9738,-4.9971,-4.9887,-4.9935,-5.0011,-5.008,-5.0235,-5.0235,-5.004,-5.0602,-5.0602,-5.0564,-5.092,-5.121,-5.1339,-5.1725,-5.1994,-5.2108,-5.2291,-5.2631,-5.2868,-5.3039,-5.3185,-5.3185,-5.3143,-5.3103,-5.3112,-5.3196,-5.3103,-5.2925,-5.3085,-5.3258,-5.3354,-5.3971,-5.4423,-5.4803,-5.4938,-5.5006,-5.4448,-5.4522,-5.4149,-5.3668,-5.3518,-5.3518,-5.3518,-5.3585,-5.3924,-5.5127,-5.5872,-5.6707,-5.7421,-5.7861,-5.8099,-5.8188,-5.8224,-5.8224,-5.8188,-5.8069,-5.7914,-5.7605,-5.7299,-5.6977,-5.6365,-5.5788,-5.5499,-5.5449,-5.516,-5.4771,-5.45,-5.4228,-5.3991,-5.3653,-5.3534,-5.3568,-5.3534,-5.3534,-5.3501,-5.3568,-5.3534,-5.3534,-5.3518,-5.3501,-5.3518,-5.3534,-5.3518,-5.3518,-5.3518,-5.3518,-5.3518,-5.328,-5.2834,-5.2183,-5.2442,-5.2606,-5.1359,-5.0805,-5.0497,-4.9389,-4.8789,-4.862,-4.8604,-4.8604,-4.8604,-4.8604,-4.8713,-4.8646,-4.8687,-4.8646,-4.8687,-4.8738,-4.8885,-4.8906,-4.9347,-4.9296,-4.9232,-4.9625,-4.9833,-4.977,-4.9823,-4.9894,-4.9877,-4.9906,-4.9918,-4.9906,-4.9906,-5.0005,-5.0063,-5.0341,-5.0612,-5.0694,-5.1166,-5.1475,-5.1525,-5.1644,-5.197,-5.2454,-5.2783,-5.3082,-5.3143,-5.3121,-5.3072,-5.3094,-5.349,-5.3357,-5.322,-5.3466,-5.3802,-5.3749,-5.4337,-5.4635,-5.4697,-5.4684,-5.4589,-5.4437,-5.4044,-5.3668,-5.3568,-5.3518,-5.3518,-5.3568,-5.3704,-5.4347,-5.5739,-5.6399,-5.7126,-5.7825,-5.7974,-5.7918,-5.7881,-5.7881,-5.7991,-5.808,-5.808,-5.7889,-5.7734,-5.7497,-5.7207,-5.6867,-5.6342,-5.5953,-5.5902,-5.5767,-5.5412,-5.4905,-5.4583,-5.4346,-5.4025,-5.394,-5.389,-5.3788,-5.3737,-5.3619,-5.3585,-5.3518,-5.3518,-5.3518,-5.3518,-5.3518,-5.3518,-5.3518,-5.3518,-5.3518,-5.3433,-5.3399,-5.3058,-5.2607,-5.1842,-5.2457,-5.2652,-5.1867,-5.1221,-5.062,-4.982,-4.9112,-4.8666,-4.8604,-4.8604,-4.8604,-4.8604,-4.8604,-4.8604,-4.8604,-4.8604,-4.8604,-4.8589,-4.8594,-4.8643,-4.9001,-4.8982,-4.9089,-4.9344,-4.9204,-4.8879,-4.9135,-4.9483,-4.9547,-4.9577,-4.9577,-4.956,-4.9607,-4.9624,-4.9683,-4.9796,-4.9982,-5.0126,-5.0595,-5.091,-5.1017,-5.1322,-5.1725,-5.2203,-5.2408,-5.2676,-5.3057,-5.3158,-5.3266,-5.3365,-5.3303,-5.3283,-5.3411,-5.3844,-5.4013,-5.3999,-5.4358,-5.4682,-5.4596,-5.4899,-5.4799,-5.4562,-5.4203,-5.3931,-5.3651,-5.3518,-5.3551,-5.3754,-5.4143,-5.4821,-5.565,-5.6513,-5.7139,-5.7681,-5.7918,-5.7881,-5.7881,-5.7918,-5.7918,-5.7991,-5.7918,-5.7865,-5.7763,-5.7679,-5.7543,-5.7425,-5.7188,-5.6799,-5.663,-5.6478,-5.6241,-5.5615,-5.4955,-5.4718,-5.4465,-5.4482,-5.4448,-5.4329,-5.4177,-5.3873,-5.3788,-5.3585,-5.3518,-5.3518,-5.3518,-5.3518,-5.3518,-5.3518,-5.3518,-5.3518,-5.3399,-5.328,-5.2747,-5.2183,-5.1273,-5.2442,-5.2606,-5.1621,-5.099,-5.0543,-4.9574,-4.8958,-4.8635,-4.8604,-4.8604,-4.8604,-4.8604,-4.8604,-4.8604,-4.8604,-4.8604,-4.8604,-4.8604,-4.8604,-4.8661,-4.9061,-4.9071,-4.8973,-4.925,-4.9082,-4.8719,-4.8679,-4.88,-4.8906,-4.8903,-4.9152,-4.9458,-4.9488,-4.9488,-4.9547,-4.9649,-4.9679,-4.9825,-5.0143,-5.0415,-5.0443,-5.091,-5.1339,-5.1525,-5.1757,-5.1958,-5.2191,-5.2588,-5.2713,-5.2906,-5.3414,-5.3699,-5.3932,-5.4116,-5.4296,-5.4158,-5.4521,-5.4846,-5.4735,-5.4942,-5.4668,-5.4422,-5.4139,-5.3832,-5.3584,-5.3534,-5.3653,-5.4126,-5.4735,-5.548,-5.6241,-5.69,-5.7476,-5.7763,-5.7881,-5.7881,-5.7881,-5.7881,-5.7881,-5.7881,-5.7881,-5.7881,-5.7881,-5.7831,-5.7865,-5.7881,-5.7881,-5.7628,-5.7306,-5.7137,-5.69,-5.6038,-5.5344,-5.5091,-5.4989,-5.5124,-5.5074,-5.4938,-5.4634,-5.4329,-5.3907,-5.3653,-5.3534,-5.3518,-5.3518,-5.3518,-5.3518,-5.3518,-5.3518,-5.3467,-5.3399,-5.3127,-5.2414,-5.1659,-5.0783,-5.2381,-5.2406,-5.119,-5.062,-5.0297,-4.9158,-4.862,-4.8604,-4.8604,-4.8604,-4.8604,-4.8604,-4.8604,-4.8604,-4.8604,-4.8604,-4.8604,-4.8604,-4.8604,-4.8728,-4.9172,-4.9205,-4.9056,-4.9152,-4.9154,-4.8371,-4.8109,-4.8025,-4.8527,-4.8436,-4.8748,-4.9168,-4.9398,-4.9398,-4.9398,-4.9471,-4.959,-4.9666,-4.9818,-4.9877,-5.0005,-5.0313,-5.0612,-5.0747,-5.1097,-5.1395,-5.1744,-5.2314,-5.2608,-5.2913,-5.344,-5.4104,-5.4191,-5.436,-5.4319,-5.4209,-5.473,-5.4956,-5.4844,-5.4548,-5.4203,-5.4091,-5.3767,-5.3551,-5.3501,-5.3568,-5.3788,-5.4532,-5.5243,-5.5936,-5.6613,-5.7408,-5.778,-5.7865,-5.7881,-5.7881,-5.7881,-5.7881,-5.7881,-5.7881,-5.7881,-5.7881,-5.7881,-5.7881,-5.7881,-5.7881,-5.7881,-5.7881,-5.7611,-5.7662,-5.7306,-5.6359,-5.5716,-5.5463,-5.548,-5.5801,-5.575,-5.5632,-5.5209,-5.4786,-5.4211,-5.3687,-5.3602,-5.3518,-5.3518,-5.3518,-5.3518,-5.3518,-5.3518,-5.3467,-5.3365,-5.2868,-5.2004,-5.1161,-5.0361,-5.2105,-5.1775,-5.1021,-5.0359,-4.9743,-4.8943,-4.8604,-4.8604,-4.8604,-4.8604,-4.8604,-4.8604,-4.8604,-4.8604,-4.8604,-4.8604,-4.8604,-4.8604,-4.8604,-4.8661,-4.8811,-4.8831,-4.8656,-4.8646,-4.8587,-4.8066,-4.776,-4.8142,-4.8449,-4.82,-4.8373,-4.8945,-4.912,-4.9097,-4.9308,-4.9566,-4.9277,-4.9371,-4.9573,-4.9663,-4.9692,-4.9799,-5.012,-5.0539,-5.1039,-5.1539,-5.1958,-5.2519,-5.3022,-5.3298,-5.338,-5.3598,-5.3705,-5.3665,-5.3617,-5.3632,-5.3782,-5.3882,-5.3849,-5.3783,-5.3734,-5.3734,-5.3568,-5.3501,-5.3619,-5.3687,-5.394,-5.4532,-5.5327,-5.6122,-5.6867,-5.7476,-5.778,-5.7881,-5.7881,-5.7881,-5.7881,-5.7881,-5.7881,-5.7881,-5.7881,-5.7881,-5.7881,-5.7881,-5.7881,-5.7881,-5.7881,-5.7881,-5.7797,-5.7746,-5.7594,-5.6647,-5.6241,-5.6021,-5.6072,-5.6376,-5.6224,-5.6173,-5.5683,-5.5124,-5.4296,-5.367,-5.3568,-5.3518,-5.3518,-5.3501,-5.3467,-5.3467,-5.3518,-5.3212,-5.2834,-5.2183,-5.1385,-5.0615,-4.9931,-5.1722,-5.1636,-5.0974,-5.0297,-4.962,-4.8912,-4.8604,-4.8604,-4.8604,-4.8604,-4.8604,-4.8604,-4.8604,-4.8604,-4.8604,-4.8604,-4.8604,-4.8604,-4.8604,-4.8604,-4.8604,-4.8604,-4.8589,-4.8604,-4.8373,-4.8158,-4.7854,-4.8044,-4.8274,-4.7923,-4.774,-4.8859,-4.9037,-4.928,-4.963,-5.0207,-5.0487,-5.0601,-5.0659,-5.053,-5.0342,-5.0509,-5.0823,-5.1077,-5.1344,-5.1614,-5.1924,-5.2399,-5.2777,-5.2997,-5.3158,-5.349,-5.3533,-5.3517,-5.3501,-5.3517,-5.3551,-5.3584,-5.3534,-5.3501,-5.3518,-5.3518,-5.3551,-5.3687,-5.3957,-5.4143,-5.4617,-5.5767,-5.6122,-5.6647,-5.7205,-5.7679,-5.7797,-5.7881,-5.7881,-5.7881,-5.7881,-5.7881,-5.7881,-5.7881,-5.7881,-5.7881,-5.7881,-5.7881,-5.7881,-5.7881,-5.7881,-5.7881,-5.7645,-5.7374,-5.7188,-5.685,-5.6681,-5.663,-5.6782,-5.6985,-5.6528,-5.6325,-5.5869,-5.5192,-5.4194,-5.367,-5.3568,-5.3518,-5.3518,-5.3467,-5.3467,-5.3246,-5.3024,-5.2607,-5.2183,-5.1496,-5.0805,-5.04,-4.9694,-5.1265,-5.1287,-5.0728,-5.0051,-4.9389,-4.882,-4.8604,-4.8604,-4.8604,-4.8604,-4.8604,-4.8604,-4.8604,-4.8604,-4.8604,-4.8604,-4.8604,-4.8604,-4.8604,-4.8604,-4.8604,-4.8604,-4.8604,-4.8604,-4.8604,-4.8604,-4.8158,-4.8255,-4.8129,-4.7842,-4.7842,-4.9125,-4.9327,-4.9708,-5.0362,-5.0873,-5.1174,-5.1206,-5.1286,-5.1128,-5.0921,-5.1228,-5.1415,-5.1551,-5.1658,-5.1698,-5.1768,-5.2379,-5.267,-5.2823,-5.3212,-5.3483,-5.3501,-5.3501,-5.3518,-5.3501,-5.3534,-5.3501,-5.3501,-5.3518,-5.3518,-5.3518,-5.3568,-5.3771,-5.4397,-5.4634,-5.5192,-5.6494,-5.6664,-5.712,-5.7662,-5.7881,-5.7881,-5.7881,-5.7881,-5.7881,-5.7881,-5.7881,-5.7881,-5.7881,-5.7881,-5.7881,-5.7881,-5.7881,-5.7881,-5.7881,-5.7881,-5.7881,-5.7645,-5.7323,-5.7273,-5.7171,-5.7188,-5.7188,-5.7306,-5.7323,-5.6917,-5.6461,-5.6004,-5.5463,-5.4583,-5.3873,-5.3534,-5.3518,-5.3518,-5.3518,-5.3467,-5.2989,-5.2537,-5.2307,-5.1878,-5.0995,-5.0306,-4.9892,-4.951,-5.0784,-5.0347,-4.9935,-4.9358,-4.8727,-4.8635,-4.8604,-4.8604,-4.8604,-4.8604,-4.8604,-4.8604,-4.8604,-4.8604,-4.8604,-4.8604,-4.8604,-4.8604,-4.8604,-4.8604,-4.8604,-4.8604,-4.8604,-4.8604,-4.8604,-4.8604,-4.8404,-4.8461,-4.8466,-4.7979,-4.8567,-4.9709,-4.9729,-5.0376,-5.094,-5.1388,-5.1503,-5.1536,-5.1585,-5.1517,-5.1298,-5.14,-5.1485,-5.1586,-5.1926,-5.2282,-5.2299,-5.2909,-5.3264,-5.3281,-5.3416,-5.3501,-5.3518,-5.3518,-5.3518,-5.3518,-5.3518,-5.3518,-5.3518,-5.3518,-5.3518,-5.3518,-5.3636,-5.3957,-5.4685,-5.4685,-5.5395,-5.6681,-5.6985,-5.7239,-5.7662,-5.7881,-5.7881,-5.7881,-5.7881,-5.7881,-5.7881,-5.7881,-5.7881,-5.7881,-5.7881,-5.7881,-5.7881,-5.7881,-5.7881,-5.7881,-5.7881,-5.7881,-5.7881,-5.7662,-5.7712,-5.7695,-5.7729,-5.7729,-5.7746,-5.7577,-5.7239,-5.6681,-5.6122,-5.5716,-5.5192,-5.4515,-5.3518,-5.3518,-5.3518,-5.3518,-5.3433,-5.2989,-5.2572,-5.2236,-5.157,-5.0384,-4.9734,-4.9365,-4.9041,-4.9835,-4.9659,-4.9213,-4.8866,-4.8604,-4.8604,-4.8604,-4.8604,-4.8604,-4.8604,-4.8604,-4.8604,-4.8604,-4.8604,-4.8604,-4.8604,-4.8604,-4.8604,-4.8604,-4.8604,-4.8604,-4.8604,-4.8604,-4.8604,-4.8604,-4.8604,-4.8604,-4.8604,-4.8527,-4.825,-4.8896,-4.9651,-4.9941,-5.0455,-5.1041,-5.19,-5.2183,-5.2097,-5.2266,-5.2418,-5.2029,-5.2435,-5.2638,-5.2672,-5.279,-5.3044,-5.3078,-5.3315,-5.3467,-5.3518,-5.3518,-5.3518,-5.3518,-5.3518,-5.3518,-5.3518,-5.3518,-5.3518,-5.3518,-5.3518,-5.3518,-5.3602,-5.3907,-5.4448,-5.5124,-5.5615,-5.6342,-5.712,-5.7425,-5.7611,-5.7763,-5.7881,-5.7881,-5.7881,-5.7881,-5.7881,-5.7881,-5.7881,-5.7881,-5.7881,-5.7881,-5.7881,-5.7881,-5.7881,-5.7881,-5.7881,-5.7881,-5.7881,-5.7881,-5.7881,-5.7881,-5.7881,-5.7881,-5.7881,-5.7881,-5.7729,-5.756,-5.69,-5.6207,-5.5632,-5.5091,-5.4296,-5.3518,-5.3518,-5.3433,-5.3365,-5.3212,-5.2989,-5.252,-5.1842,-5.0729,-4.9414,-4.9,-4.8852,-4.8805,-4.9283,-4.9219,-4.8745,-4.8537,-4.8563,-4.8604,-4.8604,-4.8604,-4.8604,-4.8604,-4.8604,-4.8604,-4.8604,-4.8604,-4.8604,-4.8604,-4.8604,-4.8604,-4.8604,-4.8604,-4.8604,-4.8604,-4.8604,-4.8604,-4.8604,-4.8604,-4.8604,-4.8604,-4.8604,-4.8604,-4.8891,-4.9347,-4.9882,-5.0378,-5.1207,-5.2329,-5.2943,-5.2943,-5.3061,-5.3298,-5.279,-5.3112,-5.3433,-5.3399,-5.3416,-5.3416,-5.3399,-5.3484,-5.3484,-5.3518,-5.3518,-5.3518,-5.3518,-5.3518,-5.3518,-5.3518,-5.3518,-5.3518,-5.3518,-5.3518,-5.3518,-5.3568,-5.416,-5.4854,-5.5649,-5.6376,-5.6934,-5.7645,-5.7831,-5.7881,-5.7881,-5.7881,-5.7881,-5.7881,-5.7881,-5.7881,-5.7881,-5.7881,-5.7881,-5.7881,-5.7881,-5.7881,-5.7881,-5.7881,-5.7881,-5.7881,-5.7881,-5.7881,-5.7881,-5.7881,-5.7881,-5.7881,-5.7881,-5.7881,-5.7865,-5.778,-5.7594,-5.6867,-5.6139,-5.5277,-5.4617,-5.3907,-5.3484,-5.3467,-5.3365,-5.3212,-5.2747,-5.2148,-5.168,-5.1257,-5.0033,-4.8836,-4.8769,-4.8692,-4.8907,-4.9096,-4.9206,-4.8561,-4.8453,-4.8563,-4.8604,-4.8604,-4.8604,-4.8604,-4.8604,-4.8604,-4.8604,-4.8604,-4.8604,-4.8604,-4.8604,-4.8604,-4.8604,-4.8604,-4.8604,-4.8604,-4.8604,-4.8604,-4.8604,-4.8604,-4.8604,-4.8604,-4.8604,-4.8604,-4.8604,-4.8687,-4.8893,-4.9449,-5.0208,-5.108,-5.1918,-5.2679,-5.3315,-5.3365,-5.3416,-5.3382,-5.3433,-5.3501,-5.3518,-5.3518,-5.3518,-5.3518,-5.3518,-5.3518,-5.3518,-5.3518,-5.3518,-5.3518,-5.3518,-5.3518,-5.3518,-5.3518,-5.3518,-5.3518,-5.3518,-5.3518,-5.3602,-5.4177,-5.4921,-5.5666,-5.6376,-5.7103,-5.778,-5.7881,-5.7845,-5.7845,-5.7792,-5.7755,-5.7681,-5.7645,-5.7792,-5.7792,-5.7881,-5.7881,-5.7881,-5.7881,-5.7881,-5.7881,-5.7845,-5.7845,-5.7845,-5.7881,-5.7881,-5.7881,-5.7881,-5.7881,-5.7881,-5.7881,-5.7881,-5.7881,-5.7881,-5.7594,-5.685,-5.6072,-5.5209,-5.4482,-5.3856,-5.3551,-5.3467,-5.3093,-5.2799,-5.1951,-5.1124,-5.0691,-5.0267,-4.9494,-4.8604,-4.8537,-4.853,-4.8687,-4.8484,-4.8453,-4.8462,-4.8453,-4.8412,-4.8552,-4.8604,-4.8604,-4.8604,-4.8604,-4.8604,-4.8604,-4.8604,-4.8604,-4.8604,-4.8604,-4.8604,-4.8604,-4.8604,-4.8604,-4.8604,-4.8604,-4.8604,-4.8604,-4.8604,-4.8604,-4.8604,-4.8604,-4.8604,-4.8604,-4.8604,-4.8728,-4.9,-4.9813,-5.0941,-5.1842,-5.2501,-5.2764,-5.3127,-5.3501,-5.3518,-5.3518,-5.3518,-5.3518,-5.3518,-5.3518,-5.3518,-5.3518,-5.3518,-5.3518,-5.3518,-5.3518,-5.3518,-5.3518,-5.3518,-5.3518,-5.3518,-5.3518,-5.3518,-5.3518,-5.3518,-5.3737,-5.4245,-5.4989,-5.5666,-5.6393,-5.7103,-5.7679,-5.7865,-5.7681,-5.7181,-5.7089,-5.7013,-5.6975,-5.7051,-5.7406,-5.7571,-5.7792,-5.7881,-5.7881,-5.7881,-5.7792,-5.7755,-5.7718,-5.7681,-5.7845,-5.7881,-5.7881,-5.7881,-5.7881,-5.7881,-5.7881,-5.7881,-5.7881,-5.7881,-5.7881,-5.7391,-5.6545,-5.5869,-5.5158,-5.4465,-5.3686,-5.3382,-5.3144,-5.2729,-5.2236,-5.1348,-5.0499,-4.9813,-4.9203,-4.8604,-4.8328,-4.8286,-4.8309,-4.8423,-4.8328,-4.826,-4.848,-4.8537,-4.8469,-4.8537,-4.8604,-4.8604,-4.8604,-4.8604,-4.8604,-4.8604,-4.8604,-4.8604,-4.8604,-4.8604,-4.8604,-4.8604,-4.8604,-4.8604,-4.8604,-4.8604,-4.8604,-4.8604,-4.8604,-4.8604,-4.8604,-4.8604,-4.8604,-4.8604,-4.8604,-4.8604,-4.8604,-4.9188,-5.0229,-5.1032,-5.204,-5.2414,-5.3024,-5.3518,-5.3518,-5.3518,-5.3518,-5.3518,-5.3518,-5.3518,-5.3518,-5.3518,-5.3518,-5.3518,-5.3518,-5.3518,-5.3518,-5.3518,-5.3518,-5.3518,-5.3518,-5.3518,-5.3518,-5.3518,-5.3518,-5.3551,-5.4397,-5.5158,-5.5835,-5.6664,-5.7289,-5.7746,-5.7811,-5.7368,-5.6784,-5.663,-5.6746,-5.6729,-5.6882,-5.7293,-5.7406,-5.7645,-5.7554,-5.7608,-5.7277,-5.7314,-5.7443,-5.7571,-5.7517,-5.7718,-5.7881,-5.7845,-5.7792,-5.7881,-5.7881,-5.7881,-5.7881,-5.7881,-5.7881,-5.7881,-5.7239,-5.6275,-5.5683,-5.5157,-5.4032,-5.3253,-5.3052,-5.2677,-5.1842,-5.1086,-5.0576,-4.9876,-4.9066,-4.8563,-4.816,-4.8007,-4.8007,-4.8074,-4.8228,-4.8563,-4.8563,-4.8604,-4.8578,-4.8578,-4.8563,-4.8604,-4.8604,-4.8604,-4.8604,-4.8604,-4.8604,-4.8604,-4.8604,-4.8604,-4.8604,-4.8604,-4.8604,-4.8604,-4.8604,-4.8604,-4.8604,-4.8604,-4.8604,-4.8604,-4.8604,-4.8604,-4.8604,-4.8604,-4.8604,-4.8604,-4.8604,-4.8604,-4.8836,-4.9414,-5.0306,-5.1348,-5.204,-5.2764,-5.3246,-5.3433,-5.3518,-5.3518,-5.3518,-5.3518,-5.3518,-5.3518,-5.3518,-5.3518,-5.3518,-5.3518,-5.3518,-5.3518,-5.3518,-5.3518,-5.3518,-5.3518,-5.3518,-5.3518,-5.3518,-5.3518,-5.3653,-5.4718,-5.5377,-5.5883,-5.6487,-5.6898,-5.7278,-5.7389,-5.6996,-5.6614,-5.6806,-5.6958,-5.6996,-5.7051,-5.7218,-5.7293,-5.7256,-5.7089,-5.6844,-5.6309,-5.627,-5.6636,-5.6844,-5.7202,-5.7072,-5.7147,-5.7239,-5.7331,-5.7845,-5.7845,-5.7881,-5.7881,-5.7881,-5.7881,-5.7881,-5.7408,-5.6545,-5.5884,-5.5256,-5.4042,-5.2914,-5.2511,-5.1882,-5.0691,-4.9892,-4.9454,-4.8903,-4.8229,-4.7837,-4.7794,-4.7752,-4.7752,-4.7923,-4.8166,-4.8537,-4.8412,-4.8537,-4.8521,-4.8412,-4.8537,-4.8604,-4.8604,-4.8604,-4.8604,-4.8604,-4.8604,-4.8604,-4.8604,-4.8604,-4.8604,-4.8604,-4.8604,-4.8604,-4.8604,-4.8604,-4.8604,-4.8604,-4.8604,-4.8604,-4.8604,-4.8604,-4.8604,-4.8604,-4.8604,-4.8604,-4.8604,-4.8604,-4.8604,-4.8959,-4.971,-5.0592,-5.1459,-5.2219,-5.2782,-5.323,-5.3365,-5.3365,-5.3314,-5.3433,-5.3433,-5.3399,-5.3399,-5.3433,-5.3518,-5.3501,-5.3501,-5.3518,-5.3518,-5.3518,-5.3518,-5.3518,-5.3518,-5.3518,-5.3518,-5.3518,-5.3602,-5.4363,-5.5124,-5.5491,-5.5708,-5.6083,-5.6554,-5.6564,-5.6152,-5.5939,-5.6097,-5.6253,-5.627,-5.6309,-5.6309,-5.6348,-5.6192,-5.6034,-5.5796,-5.5255,-5.5915,-5.6192,-5.652,-5.6806,-5.6503,-5.6387,-5.652,-5.6882,-5.7443,-5.7443,-5.7443,-5.7845,-5.7845,-5.7845,-5.7845,-5.7425,-5.6884,-5.6172,-5.5321,-5.414,-5.3061,-5.2224,-5.1134,-4.9939,-4.9066,-4.8396,-4.7964,-4.7752,-4.7709,-4.7624,-4.7581,-4.7555,-4.7797,-4.8189,-4.8537,-4.8438,-4.8537,-4.8521,-4.8453,-4.8537,-4.8604,-4.8604,-4.8604,-4.8604,-4.8604,-4.8604,-4.8604,-4.8604,-4.8604,-4.8604,-4.8604,-4.8604,-4.8604,-4.8604,-4.8604,-4.8604,-4.8604,-4.8604,-4.8604,-4.8604,-4.8604,-4.8604,-4.8604,-4.8604,-4.8604,-4.8604,-4.8604,-4.8604,-4.8754,-4.9163,-4.9789,-5.0615,-5.1369,-5.2023,-5.2485,-5.2868,-5.2868,-5.2782,-5.3007,-5.328,-5.3058,-5.3007,-5.3161,-5.3331,-5.3314,-5.3195,-5.3348,-5.3518,-5.3518,-5.3518,-5.3518,-5.3518,-5.3518,-5.3518,-5.3518,-5.3501,-5.3582,-5.3893,-5.4556,-5.4935,-5.544,-5.5873,-5.5505,-5.5215,-5.5158,-5.5158,-5.5158,-5.5158,-5.5198,-5.5182,-5.5076,-5.4968,-5.4762,-5.4611,-5.4943,-5.5676,-5.6074,-5.6364,-5.652,-5.6364,-5.6034,-5.5836,-5.6403,-5.7202,-5.6882,-5.652,-5.7239,-5.7808,-5.7718,-5.7517,-5.7338,-5.6853,-5.6292,-5.5353,-5.4221,-5.2642,-5.1242,-5.0181,-4.9222,-4.849,-4.788,-4.7752,-4.7581,-4.7583,-4.7585,-4.7542,-4.7649,-4.7905,-4.8386,-4.8604,-4.8563,-4.8604,-4.8563,-4.8604,-4.8604,-4.8604,-4.8604,-4.8604,-4.8604,-4.8604,-4.8604,-4.8604,-4.8604,-4.8604,-4.8604,-4.8604,-4.8604,-4.8604,-4.8604,-4.8604,-4.8604,-4.8604,-4.8604,-4.8604,-4.8604,-4.8604,-4.8604,-4.8604,-4.8604,-4.8604,-4.8604,-4.8604,-4.8604,-4.8646,-4.8728,-4.9203,-4.9734,-5.0345,-5.0957,-5.1385,-5.1733,-5.1915,-5.1606,-5.2203,-5.2886,-5.2378,-5.2343,-5.2572,-5.2834,-5.2938,-5.2782,-5.323,-5.3518,-5.3518,-5.3467,-5.3467,-5.3433,-5.3298,-5.3179,-5.311,-5.2921,-5.2624,-5.2514,-5.2903,-5.3678,-5.4201,-5.4469,-5.4182,-5.4321,-5.4369,-5.4395,-5.4395,-5.4437,-5.4437,-5.4243,-5.3961,-5.3891,-5.3907,-5.3992,-5.4736,-5.5312,-5.4828,-5.5035,-5.5515,-5.5796,-5.5876,-5.5474,-5.5377,-5.6292,-5.627,-5.566,-5.6214,-5.6827,-5.6658,-5.6619,-5.7072,-5.6794,-5.601,-5.5158,-5.3894,-5.2031,-5.0073,-4.9141,-4.8324,-4.8019,-4.7596,-4.751,-4.7557,-4.7665,-4.768,-4.7562,-4.7728,-4.8207,-4.8566,-4.8604,-4.8604,-4.8604,-4.8604,-4.8604,-4.8604,-4.8563,-4.8604,-4.8604,-4.8563,-4.8604,-4.8604,-4.8604,-4.8604,-4.8604,-4.8604,-4.8604,-4.8604,-4.8604,-4.8604,-4.8604,-4.8604,-4.8604,-4.8604,-4.8604,-4.8604,-4.8604,-4.8604,-4.8604,-4.8604,-4.8604,-4.8604,-4.8604,-4.8604,-4.8604,-4.8604,-4.8795,-4.9122,-4.9309,-5.0073,-5.0843,-5.1107,-5.1257,-5.1145,-5.1643,-5.1789,-5.148,-5.148,-5.1915,-5.2307,-5.2378,-5.2747,-5.3416,-5.3467,-5.3518,-5.3467,-5.3264,-5.3144,-5.2939,-5.254,-5.2189,-5.1849,-5.1455,-5.1048,-5.1208,-5.1995,-5.2578,-5.2807,-5.3032,-5.3279,-5.3507,-5.355,-5.3624,-5.3624,-5.3687,-5.3284,-5.2889,-5.2978,-5.3082,-5.3707,-5.4501,-5.4359,-5.3891,-5.3976,-5.4417,-5.4861,-5.5255,-5.5051,-5.4115,-5.4437,-5.5182,-5.4911,-5.5117,-5.5466,-5.5442,-5.5643,-5.608,-5.5732,-5.4888,-5.4144,-5.3386,-5.1462,-4.944,-4.8301,-4.7467,-4.7424,-4.7439,-4.7396,-4.7429,-4.7728,-4.7952,-4.7938,-4.8566,-4.9119,-4.9224,-4.8438,-4.8453,-4.837,-4.8385,-4.8453,-4.837,-4.8412,-4.8578,-4.8495,-4.8537,-4.8604,-4.8604,-4.8604,-4.8604,-4.8604,-4.8604,-4.8604,-4.8604,-4.8604,-4.8604,-4.8604,-4.8604,-4.8604,-4.8604,-4.8604,-4.8604,-4.8604,-4.8604,-4.8604,-4.8604,-4.8604,-4.8604,-4.8604,-4.8604,-4.8604,-4.8604,-4.8604,-4.8604,-4.8604,-4.9188,-5.0151,-5.0306,-5.0213,-5.0229,-5.056,-5.0827,-5.1091,-5.1166,-5.1826,-5.2485,-5.2852,-5.2903,-5.3298,-5.3332,-5.3314,-5.3076,-5.28,-5.247,-5.2241,-5.1704,-5.1064,-5.0801,-5.0336,-4.9953,-4.9684,-5.0408,-5.0747,-5.0977,-5.1076,-5.1291,-5.1912,-5.2116,-5.2349,-5.2458,-5.2537,-5.2351,-5.2306,-5.2457,-5.2503,-5.2667,-5.3403,-5.3832,-5.3486,-5.353,-5.3848,-5.3719,-5.4174,-5.3934,-5.3168,-5.2858,-5.3573,-5.4046,-5.4142,-5.4269,-5.4269,-5.4547,-5.5002,-5.4441,-5.3738,-5.2831,-5.1923,-5.0381,-4.8837,-4.7963,-4.7369,-4.7309,-4.7309,-4.7309,-4.7638,-4.8012,-4.8237,-4.8386,-4.9179,-4.9883,-4.9868,-4.8286,-4.826,-4.8076,-4.8091,-4.8202,-4.8091,-4.8218,-4.8453,-4.8343,-4.837,-4.8495,-4.8521,-4.8563,-4.8604,-4.8604,-4.8604,-4.8604,-4.8604,-4.8604,-4.8604,-4.8604,-4.8604,-4.8604,-4.8604,-4.8604,-4.8604,-4.8604,-4.8604,-4.8604,-4.8604,-4.8604,-4.8604,-4.8604,-4.8604,-4.8604,-4.8604,-4.8604,-4.8604,-4.8604,-4.8604,-4.8959,-4.9269,-4.9188,-4.9454,-4.9876,-5.0767,-5.0881,-5.1016,-5.1716,-5.2433,-5.2921,-5.3076,-5.3127,-5.3144,-5.287,-5.2644,-5.2098,-5.174,-5.1303,-5.0627,-5.0281,-4.9931,-4.9358,-4.8949,-4.8659,-4.8775,-4.9105,-4.9307,-4.9372,-4.9822,-5.043,-5.0802,-5.1063,-5.1371,-5.147,-5.1545,-5.1698,-5.1881,-5.1942,-5.1972,-5.2502,-5.3137,-5.3108,-5.3108,-5.308,-5.2962,-5.2711,-5.2261,-5.2017,-5.2109,-5.2531,-5.2814,-5.2976,-5.3049,-5.3093,-5.3296,-5.3715,-5.3389,-5.2654,-5.1612,-5.0599,-4.9781,-4.8901,-4.797,-4.7504,-4.7384,-4.7324,-4.7309,-4.7728,-4.8297,-4.8581,-4.891,-4.9748,-5.0331,-5.0376,-4.8202,-4.8049,-4.8007,-4.8007,-4.8049,-4.8007,-4.8049,-4.8091,-4.8091,-4.8091,-4.8175,-4.8328,-4.8438,-4.8563,-4.8604,-4.8604,-4.8604,-4.8604,-4.8604,-4.8604,-4.8604,-4.8604,-4.8604,-4.8604,-4.8604,-4.8604,-4.8604,-4.8604,-4.8604,-4.8604,-4.8604,-4.8604,-4.8604,-4.8604,-4.8604,-4.8604,-4.8604,-4.8604,-4.8604,-4.8604,-4.8604,-4.8811,-4.8728,-4.8795,-4.8877,-4.951,-4.9749,-4.939,-5.019,-5.1145,-5.2131,-5.2555,-5.2799,-5.2834,-5.2503,-5.1971,-5.141,-5.0871,-5.0297,-4.9527,-4.9125,-4.8938,-4.8423,-4.7949,-4.777,-4.7785,-4.8051,-4.8171,-4.8429,-4.9059,-4.9581,-4.9657,-4.9883,-5.0351,-5.056,-5.0682,-5.0834,-5.1258,-5.159,-5.1834,-5.2275,-5.2365,-5.2094,-5.2185,-5.2291,-5.2215,-5.2215,-5.1849,-5.168,-5.1634,-5.1602,-5.1803,-5.2002,-5.188,-5.188,-5.1957,-5.2139,-5.1957,-5.1789,-5.1148,-5.0518,-4.9895,-4.9009,-4.8113,-4.7608,-4.7399,-4.7354,-4.7384,-4.8057,-4.8626,-4.9,-4.9464,-5.0272,-5.0735,-5.0765]},{"header":{"parameterUnit":"m.s-1","parameterCategory":1,"la1":31.0,"la2":29.5877,"lo1":-88.7671,"lo2":-86.6584,"dy":0.0162,"dx":0.0185,"nx":115,"ny":88,"refTime":"2024-08-31T12:00:00:Z","depth":0,"parameterNumber":3,"parameterNumberName":"V-component_of_WINDS"},"data":[0.0,0.0,0.0,0.0,0.0,0.0,0.0,0.0,0.0,0.0,0.0,0.0,0.0,0.0,0.0,0.0,0.0,0.0,0.0,0.0,0.0,0.0,0.0,0.0,0.0,0.0,0.0,0.0,0.0,0.0,0.0,0.0,0.0,0.0,0.0,0.0,0.0,0.0,0.0,0.0,0.0,0.0,0.0,0.0,0.0,0.0,0.0,0.0,0.0,0.0,0.0,0.0,0.0,0.0,0.0,0.0,0.0,0.0,0.0,0.0,0.0,0.0,0.0,0.0,0.0,0.0,0.0,0.0,0.0,0.0,0.0,0.0,0.0,0.0,0.0,0.0,0.0,0.0,0.0,0.0,0.0,0.0,0.0,0.0,0.0,0.0,0.0,0.0,0.0,0.0,0.0,0.0,0.0,0.0,0.0,0.0,0.0,0.0,0.0,0.0,0.0,0.0,0.0,0.0,0.0,0.0,0.0,0.0,0.0,0.0,0.0,0.0,0.0,0.0,0.0,0.0,0.0,0.0,0.0,0.0,0.0,0.0,0.0,0.0,0.0,0.0,0.0,0.0,0.0,0.0,0.0,0.0,0.0,0.0,0.0,0.0,0.0,0.0,0.0,0.0,0.0,0.0,0.0,0.0,0.0,0.0,0.0,0.0,0.0,0.0,0.0,0.0,0.0,0.0,0.0,0.0,0.0,0.0,0.0,0.0,0.0,0.0,0.0,0.0,0.0,0.0,0.0,0.0,0.0,0.0,0.0,0.0,0.0,0.0,0.0,0.0,0.0,0.0,0.0,0.0,0.0,0.0,0.0,0.0,0.0,0.0,0.0,0.0,0.0,0.0,0.0,0.0,0.0,0.0,0.0,0.0,0.0,0.0,0.0,0.0,0.0,0.0,0.0,0.0,0.0,0.0,0.0,0.0,0.0,0.0,0.0,0.0,0.0,0.0,0.0,0.0,0.0,0.0,0.0,0.0,0.0,0.0,0.0,0.0,0.0,0.0,0.0,0.0,0.0,0.0,0.0,0.0,0.0,0.0,0.0,0.0,0.0,0.0,0.0,0.0,0.0,0.0,0.0,0.0,0.0,0.0,0.0,0.0,0.0,0.0,0.0,0.0,0.0,0.0,0.0,0.0,0.0,0.0,0.0,0.0,0.0,0.0,0.0,0.0,0.0,0.0,0.0,0.0,0.0,0.0,0.0,0.0,0.0,0.0,0.0,0.0,0.0,0.0,0.0,0.0,0.0,0.0,0.0,0.0,0.0,0.0,0.0,0.0,0.0,0.0,0.0,0.0,0.0,0.0,0.0,0.0,0.0,0.0,0.0,0.0,0.0,0.0,0.0,0.0,0.0,0.0,0.0,0.0,0.0,0.0,0.0,0.0,0.0,0.0,0.0,0.0,0.0,0.0,0.0,0.0,0.0,0.0,0.0,0.0,0.0,0.0,0.0,0.0,0.0,0.0,0.0,0.0,0.0,0.0,0.0,0.0,0.0,0.0,0.0,0.0,0.0,0.0,0.0,0.0,0.0,0.0,0.0,0.0,0.0,0.0,0.0,0.0,0.0,0.0,0.0,0.0,0.0,0.0,0.0,0.0,0.0,0.0,0.0,0.0,0.0,0.0,0.0,0.0,0.0,0.0,0.0,0.0,0.0,0.0,0.0,0.0,0.0,0.0,0.0,0.0,0.0,0.0,0.0,0.0,0.0,0.0,0.0,0.0,0.0,0.0,0.0,0.0,0.0,0.0,0.0,0.0,0.0,0.0,0.0,0.0,0.0,0.0,0.0,0.0,0.0,0.0,0.0,0.0,0.0,0.0,0.0,0.0,0.0,0.0,0.0,0.0,0.0,0.0,0.0,0.0,0.0,0.0,0.0,0.0,0.0,0.0,0.0,0.0,0.0,0.0,0.0,0.0,0.0,0.0,0.0,0.0,0.0,0.0,0.0,0.0,0.0,0.0,0.0,0.0,0.0,0.0,0.0,0.0,0.0,0.0,0.0,0.0,0.0,0.0,0.0,0.0,0.0,0.0,0.0,0.0,0.0,0.0,0.0,0.0,0.0,0.0,0.0,0.0,0.0,0.0,0.0,0.0,0.0,0.0,0.0,0.0,0.0,0.0,0.0,0.0,0.0,0.0,0.0,0.0,0.0,0.0,0.0,0.0,0.0,0.0,0.0,0.0,0.0,0.0,0.0,0.0,0.0,0.0,0.0,0.0,0.0,0.0,0.0,0.0,0.0,0.0,0.0,0.0,0.0,0.0,0.0,0.0,0.0,0.0,0.0,0.0,0.0,0.0,0.0,0.0,0.0,0.0,0.0,0.0,0.0,0.0,0.0,0.0,0.0,0.0,0.0,0.0,0.0,0.0,0.0,0.0,0.0,0.0,0.0,0.0,0.0,0.0,0.0,0.0,0.0,0.0,0.0,0.0,0.0,0.0,0.0,0.0,0.0,0.0,0.0,0.0,0.0,0.0,0.0,0.0,0.0,0.0,0.0,0.0,0.0,0.0,0.0,0.0,0.0,0.0,0.0,0.0,0.0,0.0,0.0,0.0,0.0,0.0,0.0,0.0,0.0,0.0,0.0,0.0,0.0,0.0,0.0,0.0,0.0,0.0,0.0,0.0,0.0,0.0,0.0,0.0,0.0,0.0,0.0,0.0,0.0,0.0,0.0,0.0,0.0,0.0,0.0,0.0,0.0,0.0,0.0,0.0,0.0,0.0,0.0,0.0,0.0,0.0,0.0,0.0,0.0,0.0,0.0,0.0,0.0,0.0,0.0,0.0,0.0,0.0,0.0,0.0,0.0,0.0,0.0,0.0,0.0,0.0,0.0,0.0,0.0,0.0,0.0,0.0,0.0,0.0,0.0,0.0,0.0,0.0,0.0,0.0,0.0,0.0,0.0,0.0,0.0,0.0,0.0,0.0,0.0,0.0,0.0,0.0,0.0,0.0,0.0,0.0,0.0,0.0,0.0,0.0,0.0,0.0,0.0,0.0,0.0,0.0,0.0,0.0,0.0,0.0,0.0,0.0,0.0,0.0,0.0,0.0,0.0,0.0,0.0,0.0,0.0,0.0,0.0,0.0,0.0,0.0,0.0,0.0,0.0,0.0,0.0,0.0,0.0,0.0,0.0,0.0,0.0,0.0,0.0,0.0,0.0,0.0,0.0,0.0,0.0,0.0,0.0,0.0,0.0,0.0,0.0,0.0,0.0,0.0,0.0,0.0,0.0,0.0,0.0,0.0,0.0,0.0,0.0,0.0,0.0,0.0,0.0,0.0,0.0,0.0,0.0,0.0,0.0,0.0,0.0,0.0,0.0,0.0,0.0,0.0,0.0,0.0,0.0,0.0,0.0,0.0,0.0,0.0,0.0,0.0,0.0,0.0,0.0,0.0,0.0,0.0,0.0,0.0,0.0,0.0,0.0,0.0,0.0,0.0,0.0,0.0,0.0,0.0,0.0,0.0,0.0,0.0,0.0,0.0,0.0,0.0,0.0,0.0,0.0,0.0,0.0,0.0,0.0,0.0,0.0,0.0,0.0,0.0,0.0,0.0,0.0,0.0,0.0,0.0,0.0,0.0,0.0,0.0,0.0,0.0,0.0,0.0,0.0,0.0,0.0,0.0,0.0,0.0,0.0,0.0,0.0,0.0,0.0,0.0,0.0,0.0,0.0,0.0,0.0,0.0,0.0,0.0,0.0,0.0,0.0,0.0,0.0,0.0,0.0,0.0,0.0,0.0,0.0,0.0,0.0,0.0,0.0,0.0,0.0,0.0,0.0,0.0,0.0,0.0,0.0,0.0,0.0,0.0,0.0,0.0,0.0,0.0,0.0,0.0,0.0,0.0,0.0,0.0,0.0,0.0,0.0,0.0,0.0,0.0,0.0,0.0,0.0,0.0,0.0,0.0,0.0,0.0,0.0,0.0,0.0,0.0,0.0,0.0,0.0,0.0,0.0,0.0,0.0,0.0,0.0,0.0,0.0,0.0,0.0,0.0,0.0,0.0,0.0,0.0,0.0,0.0,0.0,0.0,0.0,0.0,0.0,0.0,0.0,0.0,0.0,0.0,0.0,0.0,0.0,0.0,0.0,0.0,0.0,0.0,0.0,0.0,0.0,0.0,0.0,0.0,0.0,0.0,0.0,0.0,0.0,0.0,0.0,0.0,0.0,0.0,0.0,0.0,0.0,0.0,0.0,0.0,0.0,0.0,0.0,0.0,0.0,0.0,0.0,0.0,0.0,0.0,0.0,0.0,0.0,0.0,0.0,0.0,0.0,0.0,1.4341,0.0,0.0,0.0,0.0,0.0,0.0,0.0,0.0,0.0,0.0,0.0,0.0,0.0,0.0,0.0,0.0,0.0,0.0,0.0,0.0,0.0,0.0,0.0,0.0,0.0,0.0,0.0,0.0,0.0,0.0,0.0,0.0,0.0,0.0,0.0,0.0,0.0,0.0,0.0,0.0,0.0,0.0,0.0,0.0,0.0,0.0,0.0,0.0,0.0,0.0,0.0,0.0,0.0,0.0,0.0,0.0,0.0,0.0,0.0,0.0,0.0,0.0,0.0,0.0,0.0,0.0,0.0,0.0,0.0,0.0,0.0,0.0,0.0,0.0,0.0,0.0,0.0,0.0,0.0,0.0,0.0,0.0,0.0,0.0,0.0,0.0,0.0,0.0,0.0,0.0,0.0,0.0,0.0,0.0,0.0,0.0,0.0,0.0,0.0,0.0,0.0,0.0,0.0,0.0,0.0,0.0,0.0,0.0,0.0,0.0,1.4825,1.4889,1.5162,1.4993,1.4341,0.0,0.0,0.0,0.0,0.0,0.0,0.0,0.0,0.0,0.0,0.0,0.0,0.0,0.0,0.0,0.0,0.0,0.0,0.0,0.0,0.0,0.0,0.0,0.0,0.0,0.0,0.0,0.0,0.0,0.0,0.0,0.0,0.0,0.0,0.0,0.0,0.0,0.0,0.0,0.0,0.0,0.0,0.0,0.0,0.0,0.0,0.0,0.0,0.0,0.0,0.0,0.0,0.0,0.0,0.0,0.0,0.0,0.0,0.0,0.0,0.0,0.0,0.0,0.0,0.0,0.0,0.0,0.0,0.0,0.0,0.0,0.0,0.0,0.0,0.0,0.0,0.0,0.0,0.0,0.0,0.0,0.0,0.0,0.0,0.0,0.0,0.0,0.0,0.0,0.0,0.0,0.0,0.0,0.0,0.0,0.0,0.0,0.0,0.0,0.0,0.0,0.0,0.0,0.0,0.0,0.0,0.0,0.0,0.0,0.0,0.0,0.0,1.5324,1.5043,1.4562,0.0,0.0,0.0,0.0,0.0,0.0,0.0,0.0,0.0,0.0,0.0,0.0,0.0,0.0,0.0,0.0,0.0,0.0,0.0,0.0,0.0,0.0,0.0,0.0,0.0,0.0,0.0,0.0,0.0,0.0,0.0,0.0,0.0,0.0,0.0,0.0,0.0,0.0,0.0,0.0,0.0,0.0,0.0,0.0,0.0,0.0,0.0,0.0,0.0,0.0,0.0,0.0,0.0,0.0,0.0,0.0,0.0,0.0,0.0,0.0,0.0,0.0,0.0,0.0,0.0,0.0,0.0,0.0,0.0,0.0,0.0,0.0,0.0,0.0,0.0,0.0,0.0,0.0,0.0,0.0,0.0,0.0,0.0,0.0,0.0,0.0,0.0,0.0,0.0,0.0,0.0,0.0,0.0,0.0,0.0,0.0,0.0,0.0,0.0,0.0,0.0,0.0,0.0,0.0,0.0,0.0,0.0,0.0,0.0,0.0,1.5119,1.7419,1.5942,0.0,1.522,0.0,0.0,0.0,0.0,0.0,0.0,0.0,0.0,0.0,0.0,0.0,0.0,0.0,0.0,0.0,0.0,0.0,0.0,0.0,0.0,0.0,0.0,0.0,0.0,0.0,0.0,0.0,0.0,0.0,0.0,0.0,0.0,0.0,0.0,0.0,0.0,0.0,0.0,0.0,0.0,0.0,0.0,0.0,0.0,0.0,0.0,0.0,0.0,0.0,0.0,0.0,0.0,0.0,0.0,0.0,0.0,0.0,0.0,0.0,0.0,0.0,0.0,0.0,0.0,0.0,0.0,0.0,0.0,0.0,0.0,0.0,0.0,0.0,0.0,0.0,0.0,0.0,0.0,0.0,0.0,0.0,0.0,0.0,0.0,0.0,0.0,0.0,0.0,0.0,0.0,0.0,0.0,0.0,0.0,0.0,0.0,0.0,0.0,0.0,0.0,0.0,0.0,0.0,0.0,0.0,0.0,0.0,0.0,0.0,0.0,0.0,1.6066,1.4844,1.4368,0.0,0.0,0.0,0.0,0.0,0.0,0.0,0.0,0.0,0.0,0.0,0.0,0.0,0.0,0.0,0.0,0.0,0.0,0.0,0.0,0.0,0.0,0.0,0.0,0.0,0.0,0.0,0.0,0.0,0.0,0.0,0.0,0.0,0.0,0.0,0.0,0.0,0.0,0.0,0.0,0.0,0.0,0.0,0.0,0.0,0.0,0.0,0.0,0.0,0.0,0.0,0.0,0.0,0.0,0.0,0.0,0.0,0.0,0.0,0.0,0.0,0.0,0.0,0.0,0.0,0.0,0.0,0.0,0.0,0.0,0.0,0.0,0.0,0.0,0.0,0.0,0.0,0.0,0.0,0.0,0.0,0.0,0.0,0.0,0.0,0.0,0.0,0.0,0.0,0.0,0.0,0.0,0.0,0.0,0.0,0.0,0.0,0.0,0.0,0.0,0.0,0.0,0.0,0.0,0.0,0.0,0.0,0.0,0.0,0.0,1.5639,0.0,1.4788,1.4251,1.3924,1.3798,0.0,0.0,0.0,0.0,0.0,0.0,0.0,0.0,0.0,0.0,0.0,0.0,0.0,0.0,0.0,0.0,0.0,0.0,0.0,0.0,0.0,0.0,0.0,0.0,0.0,0.0,0.0,0.0,0.0,0.0,0.0,0.0,0.0,0.0,0.0,0.0,0.0,0.0,0.0,0.0,0.0,0.0,0.0,0.0,0.0,0.0,0.0,0.0,0.0,0.0,0.0,0.0,0.0,0.0,0.0,0.0,0.0,0.0,0.0,0.0,0.0,0.0,0.0,0.0,0.0,0.0,0.0,0.0,0.0,0.0,0.0,0.0,0.0,0.0,0.0,0.0,0.0,0.0,0.0,0.0,0.0,0.0,0.0,0.0,0.0,0.0,0.0,0.0,0.0,0.0,0.0,0.0,0.0,0.0,0.0,0.0,0.0,0.0,0.0,0.0,0.0,0.0,0.0,0.0,0.0,0.0,0.0,0.0,0.0,1.5343,1.4205,1.4412,1.4913,1.4173,0.0,0.0,0.0,0.0,0.0,0.0,0.0,0.0,0.0,0.0,0.0,0.0,0.0,0.0,0.0,0.0,0.0,0.0,0.0,0.0,0.0,0.0,0.0,0.0,0.0,0.0,0.0,0.0,0.0,0.0,0.0,0.0,0.0,0.0,0.0,0.0,0.0,0.0,0.0,0.0,0.0,0.0,0.0,0.0,0.0,0.0,0.0,0.0,0.0,0.0,0.0,0.0,0.0,0.0,0.0,0.0,0.0,0.0,0.0,0.0,0.0,0.0,0.0,0.0,0.0,0.0,0.0,0.0,0.0,0.0,0.0,0.0,0.0,0.0,0.0,0.0,0.0,0.0,0.0,0.0,0.0,0.0,0.0,0.0,0.0,0.0,0.0,0.0,0.0,0.0,0.0,0.0,0.0,0.0,0.0,0.0,0.0,0.0,0.0,0.0,0.0,0.0,0.0,0.0,0.0,0.0,0.0,0.0,0.0,1.3829,1.3502,1.4444,1.665,1.4339,1.3157,0.0,0.0,0.0,0.0,0.0,0.0,0.0,0.0,0.0,0.0,0.0,0.0,0.0,0.0,0.0,0.0,0.0,0.0,0.0,0.0,0.0,0.0,0.0,0.0,0.0,0.0,0.0,0.0,0.0,0.0,0.0,0.0,0.0,0.0,0.0,0.0,0.0,0.0,0.0,0.0,0.0,0.0,0.0,0.0,0.0,0.0,0.0,0.0,0.0,0.0,0.0,0.0,0.0,0.0,0.0,0.0,0.0,0.0,0.0,0.0,0.0,0.0,0.0,0.0,0.0,0.0,0.0,0.0,0.0,0.0,0.0,0.0,0.0,0.0,0.0,0.0,0.0,0.0,0.0,0.0,0.0,0.0,0.0,0.0,0.0,0.0,0.0,0.0,0.0,0.0,0.0,0.0,0.0,0.0,0.0,0.0,0.0,0.0,0.0,0.0,0.0,0.0,0.0,0.0,0.0,0.0,0.0,0.0,0.0,1.3081,0.0,1.5494,0.0,1.4025,1.2547,0.0,0.0,0.0,0.0,0.0,0.0,0.0,0.0,0.0,0.0,0.0,0.0,0.0,0.0,0.0,0.0,0.0,0.0,0.0,0.0,0.0,0.0,0.0,0.0,0.0,0.0,0.0,0.0,0.0,0.0,0.0,0.0,0.0,0.0,0.0,0.0,0.0,0.0,0.0,0.0,0.0,0.0,0.0,0.0,0.0,0.0,0.0,0.0,0.0,0.0,0.0,0.0,0.0,0.0,0.0,0.0,0.0,0.0,0.0,0.0,0.0,0.0,0.0,0.0,0.0,0.0,0.0,0.0,0.0,0.0,0.0,0.0,0.0,0.0,0.0,0.0,0.0,0.0,0.0,0.0,0.0,0.0,0.0,0.0,0.0,0.0,0.0,0.0,0.0,0.0,0.0,0.0,0.0,0.0,0.0,0.0,0.0,0.0,0.0,0.0,0.0,0.0,0.0,0.0,0.0,0.0,0.0,0.0,1.2456,1.575,1.7225,1.7158,1.5424,1.4246,1.2436,0.0,0.0,0.0,0.0,0.0,0.0,0.0,0.0,0.0,0.0,0.0,0.0,0.0,0.0,0.0,0.0,0.0,0.0,0.0,0.0,0.0,0.0,0.0,0.0,0.0,0.0,0.0,0.0,0.0,0.0,0.0,0.0,0.0,0.0,0.0,0.0,0.0,0.0,0.0,0.0,0.0,0.0,0.0,0.0,0.0,0.0,0.0,0.0,0.0,0.0,0.0,0.0,0.0,0.0,0.0,0.0,0.0,0.0,0.0,0.0,0.0,0.0,0.0,0.0,0.0,0.0,0.0,0.0,0.0,0.0,0.0,0.0,0.0,0.0,0.0,0.0,0.0,0.0,0.0,0.0,0.0,0.0,0.0,0.0,0.0,0.0,0.0,0.0,0.0,0.0,0.0,0.0,0.0,0.0,0.0,0.0,0.0,0.0,0.0,0.0,0.0,0.0,0.0,0.0,0.0,0.0,0.0,0.0,0.0,1.2771,1.6139,1.8134,1.834,1.5156,1.4349,0.0,0.0,0.0,0.0,0.0,0.0,0.0,0.0,0.0,0.0,0.0,0.0,0.0,0.0,0.0,0.0,0.0,0.0,0.0,0.0,0.0,0.0,0.0,0.0,0.0,0.0,0.0,0.0,0.0,0.0,0.0,0.0,0.0,0.0,0.0,0.0,0.0,0.0,0.0,0.0,0.0,0.0,0.0,0.0,0.0,0.0,0.0,0.0,0.0,0.0,0.0,0.0,0.0,0.0,0.0,0.0,0.0,0.0,0.0,0.0,0.0,0.0,0.0,0.0,0.0,0.0,0.0,0.0,0.0,0.0,0.0,0.0,0.0,0.0,0.0,0.0,0.0,0.0,0.0,0.0,0.0,0.0,0.0,0.0,0.0,0.0,0.0,0.0,0.0,0.0,0.0,0.0,0.0,0.0,0.0,0.0,0.0,0.0,0.0,0.0,0.0,0.0,0.0,0.0,0.0,0.0,0.0,0.0,0.0,1.4274,1.8,2.0274,2.0668,1.6937,1.5843,1.7711,0.0,0.0,0.0,0.0,0.0,0.0,0.0,0.0,0.0,0.0,0.0,0.0,0.0,0.0,0.0,0.0,0.0,0.0,0.0,0.0,0.0,0.0,0.0,0.0,0.0,0.0,0.0,0.0,0.0,0.0,0.0,0.0,0.0,0.0,0.0,0.0,0.0,0.0,0.0,0.0,0.0,0.0,0.0,0.0,0.0,0.0,0.0,0.0,0.0,0.0,0.0,0.0,0.0,0.0,0.0,0.0,0.0,0.0,0.0,0.0,0.0,0.0,0.0,0.0,0.0,0.0,0.0,0.0,0.0,0.0,0.0,0.0,0.0,0.0,0.0,0.0,0.0,0.0,0.0,0.0,0.0,0.0,0.0,0.0,0.0,0.0,0.0,0.0,0.0,0.0,0.0,0.0,0.0,0.0,0.0,0.0,0.0,0.0,0.0,0.0,0.0,0.0,0.0,0.0,0.0,0.0,0.0,0.0,1.8914,2.2227,2.3373,2.2233,1.9329,1.7149,0.0,0.0,0.0,0.0,0.0,0.0,0.0,0.0,0.0,0.0,0.0,0.0,0.0,0.0,0.0,0.0,0.0,0.0,0.0,0.0,0.0,0.0,0.0,0.0,0.0,0.0,0.0,0.0,0.0,0.0,0.0,0.0,0.0,0.0,0.0,0.0,0.0,0.0,0.0,0.0,0.0,0.0,0.0,0.0,0.0,0.0,0.0,0.0,0.0,0.0,0.0,0.0,0.0,0.0,0.0,0.0,0.0,0.0,0.0,0.0,0.0,0.0,0.0,0.0,0.0,0.0,0.0,0.0,0.0,0.0,0.0,0.0,0.0,0.0,0.0,0.0,0.0,0.0,0.0,0.0,0.0,0.0,0.0,0.0,0.0,0.0,0.0,0.0,0.0,0.0,0.0,0.0,0.0,0.0,0.0,0.0,0.0,0.0,0.0,0.0,0.0,0.0,0.0,0.0,0.0,0.0,0.0,0.0,0.0,2.0515,2.4117,2.5553,2.4538,2.0954,1.9361,0.0,0.0,0.0,0.0,0.0,0.0,0.0,0.0,0.0,0.0,0.0,0.0,0.0,0.0,0.0,0.0,0.0,0.0,0.0,0.0,0.0,0.0,0.0,0.0,0.0,0.0,0.0,0.0,0.0,0.0,0.0,0.0,0.0,0.0,0.0,0.0,0.0,0.0,0.0,0.0,0.0,0.0,0.0,0.0,0.0,0.0,0.0,0.0,0.0,0.0,0.0,0.0,0.0,0.0,0.0,0.0,0.0,0.0,0.0,0.0,0.0,0.0,0.0,0.0,0.0,0.0,0.0,0.0,0.0,0.0,0.0,0.0,0.0,0.0,0.0,0.0,0.0,0.0,0.0,0.0,0.0,0.0,0.0,0.0,0.0,0.0,0.0,0.0,0.0,0.0,0.0,0.0,0.0,0.0,0.0,0.0,0.0,0.0,0.0,0.0,0.0,0.0,0.0,0.0,0.0,0.0,0.0,0.0,1.8888,2.2262,2.5123,2.6526,2.6372,2.3891,2.218,0.0,0.0,0.0,0.0,0.0,0.0,0.0,0.0,0.0,0.0,0.0,0.0,0.0,0.0,0.0,0.0,0.0,0.0,0.0,0.0,0.0,0.0,0.0,0.0,0.0,0.0,0.0,0.0,0.0,0.0,0.0,0.0,0.0,0.0,0.0,0.0,0.0,0.0,0.0,0.0,0.0,0.0,0.0,0.0,0.0,0.0,0.0,0.0,0.0,0.0,0.0,0.0,0.0,0.0,0.0,0.0,0.0,0.0,0.0,0.0,0.0,0.0,0.0,0.0,0.0,0.0,0.0,0.0,0.0,0.0,0.0,0.0,0.0,0.0,0.0,0.0,0.0,0.0,0.0,0.0,0.0,0.0,0.0,0.0,0.0,0.0,0.0,0.0,0.0,0.0,0.0,0.0,0.0,0.0,0.0,0.0,0.0,0.0,0.0,0.0,0.0,0.0,0.0,0.0,0.0,0.0,0.0,0.0,1.9758,2.3704,2.5481,2.6751,2.7475,2.7003,2.4842,0.0,0.0,0.0,0.0,0.0,0.0,0.0,0.0,0.0,0.0,0.0,0.0,0.0,0.0,0.0,0.0,0.0,0.0,0.0,0.0,0.0,0.0,0.0,0.0,0.0,0.0,0.0,0.0,0.0,0.0,0.0,0.0,0.0,0.0,0.0,0.0,0.0,0.0,0.0,0.0,0.0,0.0,0.0,0.0,0.0,0.0,0.0,0.0,0.0,0.0,0.0,0.0,0.0,0.0,0.0,0.0,0.0,0.0,0.0,0.0,0.0,0.0,0.0,0.0,0.0,0.0,0.0,0.0,0.0,0.0,0.0,0.0,0.0,0.0,0.0,0.0,0.0,0.0,0.0,0.0,0.0,0.0,0.0,0.0,0.0,0.0,0.0,0.0,0.0,0.0,0.0,0.0,0.0,0.0,0.0,0.0,0.0,0.0,0.0,0.0,0.0,0.0,0.0,0.0,0.0,0.0,0.0,0.0,1.9788,2.2339,2.534,2.703,2.7221,2.6153,2.4185,0.0,0.0,0.0,0.0,0.0,0.0,0.0,0.0,0.0,0.0,0.0,0.0,0.0,0.0,0.0,0.0,0.0,0.0,0.0,0.0,0.0,0.0,0.0,0.0,0.0,0.0,0.0,0.0,0.0,0.0,0.0,0.0,0.0,0.0,0.0,0.0,0.0,0.0,0.0,0.0,0.0,0.0,0.0,0.0,0.0,0.0,0.0,0.0,1.8987,0.0,0.0,0.0,0.0,0.0,0.0,0.0,0.0,0.0,0.0,0.0,0.0,0.0,0.0,0.0,0.0,0.0,0.0,0.0,0.0,0.0,0.0,0.0,0.0,0.0,0.0,0.0,0.0,0.0,0.0,0.0,0.0,0.0,0.0,0.0,0.0,0.0,0.0,0.0,0.0,0.0,0.0,0.0,0.0,0.0,0.0,0.0,0.0,0.0,0.0,0.0,0.0,0.0,0.0,0.0,0.0,0.0,0.0,0.0,1.9732,2.2461,2.5073,2.6655,2.707,2.6883,2.514,0.0,0.0,0.0,0.0,0.0,0.0,0.0,0.0,0.0,0.0,0.0,0.0,0.0,0.0,0.0,0.0,0.0,0.0,0.0,0.0,0.0,0.0,0.0,0.0,0.0,0.0,0.0,0.0,0.0,0.0,0.0,0.0,0.0,0.0,0.0,0.0,0.0,0.0,0.0,0.0,0.0,0.0,0.0,0.0,0.0,0.0,0.0,0.0,0.0,0.0,0.0,0.0,0.0,0.0,0.0,0.0,0.0,0.0,0.0,0.0,0.0,0.0,0.0,0.0,0.0,0.0,0.0,0.0,0.0,0.0,0.0,0.0,0.0,0.0,0.0,0.0,0.0,0.0,0.0,0.0,0.0,0.0,0.0,0.0,0.0,0.0,0.0,0.0,0.0,0.0,0.0,0.0,0.0,0.0,0.0,0.0,0.0,0.0,0.0,0.0,0.0,0.0,0.0,0.0,0.0,0.0,0.0,1.6828,1.9507,2.2961,2.4647,2.595,2.6935,2.7899,2.6213,2.1765,0.0,0.0,0.0,0.0,0.0,0.0,0.0,0.0,0.0,0.0,0.0,0.0,0.0,0.0,0.0,0.0,0.0,0.0,0.0,0.0,0.0,0.0,0.0,0.0,0.0,0.0,0.0,0.0,0.0,0.0,0.0,0.0,0.0,0.0,0.0,0.0,0.0,0.0,1.5464,1.72,0.0,0.0,0.0,0.0,0.0,0.0,0.0,0.0,1.8328,0.0,0.0,0.0,0.0,0.0,0.0,0.0,0.0,0.0,0.0,0.0,0.0,0.0,0.0,0.0,0.0,0.0,0.0,0.0,0.0,0.0,0.0,0.0,0.0,0.0,0.0,0.0,0.0,0.0,0.0,0.0,0.0,0.0,0.0,0.0,0.0,0.0,0.0,0.0,0.0,0.0,0.0,0.0,0.0,0.0,0.0,0.0,0.0,0.0,0.0,0.0,0.0,0.0,0.0,0.0,0.0,1.5918,1.6492,1.8623,2.2443,2.3903,2.5157,2.6318,2.6981,2.5301,2.1111,0.0,0.0,0.0,0.0,0.0,0.0,0.0,0.0,0.0,0.0,0.0,0.0,0.0,0.0,0.0,0.0,0.0,0.0,0.0,0.0,0.0,0.0,0.0,0.0,0.0,0.0,0.0,0.0,0.0,0.0,0.0,0.0,0.0,0.0,0.0,0.0,0.0,0.0,0.0,1.9032,1.9382,0.0,0.0,0.0,0.0,0.0,0.0,0.0,0.0,1.8019,0.0,0.0,0.0,0.0,0.0,0.0,0.0,0.0,0.0,0.0,0.0,0.0,0.0,0.0,0.0,0.0,0.0,0.0,0.0,0.0,0.0,0.0,0.0,0.0,0.0,0.0,0.0,0.0,0.0,0.0,0.0,0.0,0.0,0.0,0.0,0.0,0.0,0.0,0.0,0.0,0.0,0.0,0.0,0.0,0.0,0.0,0.0,0.0,0.0,0.0,0.0,0.0,0.0,0.0,0.0,1.456,1.6349,1.8743,2.1926,2.3123,2.4302,2.5601,2.5538,2.3771,0.0,0.0,0.0,0.0,0.0,0.0,0.0,0.0,0.0,0.0,0.0,0.0,0.0,0.0,0.0,0.0,0.0,0.0,0.0,0.0,0.0,0.0,0.0,0.0,0.0,0.0,0.0,0.0,0.0,0.0,0.0,0.0,0.0,0.0,0.0,0.0,0.0,0.0,0.0,0.0,1.9508,2.0077,2.0616,0.0,0.0,0.0,0.0,0.0,0.0,1.7912,1.7606,0.0,0.0,0.0,0.0,0.0,0.0,0.0,0.0,0.0,0.0,0.0,0.0,0.0,0.0,0.0,0.0,0.0,0.0,0.0,0.0,0.0,0.0,0.0,0.0,0.0,0.0,0.0,0.0,0.0,0.0,0.0,0.0,0.0,0.0,0.0,0.0,0.0,0.0,0.0,0.0,0.0,0.0,0.0,0.0,0.0,0.0,0.0,0.0,0.0,0.0,0.0,0.0,0.0,0.0,0.0,1.3219,1.5822,1.8638,2.1553,2.2385,2.3506,2.5036,2.4261,2.2408,0.0,0.0,0.0,0.0,0.0,0.0,0.0,0.0,0.0,0.0,0.0,0.0,0.0,0.0,0.0,0.0,0.0,0.0,0.0,0.0,0.0,0.0,0.0,0.0,0.0,0.0,0.0,0.0,0.0,0.0,0.0,0.0,0.0,0.0,0.0,0.0,0.0,0.0,0.0,0.0,0.0,2.0864,2.1819,2.0976,0.0,0.0,0.0,0.0,1.8447,1.8278,0.0,0.0,0.0,0.0,0.0,0.0,0.0,0.0,0.0,0.0,0.0,0.0,0.0,0.0,0.0,0.0,0.0,0.0,0.0,0.0,0.0,0.0,0.0,0.0,0.0,0.0,0.0,0.0,0.0,0.0,0.0,0.0,0.0,0.0,0.0,0.0,0.0,0.0,0.0,0.0,0.0,0.0,0.0,0.0,0.0,0.0,0.0,0.0,0.0,0.0,0.0,0.0,0.0,0.0,0.0,0.0,1.2866,1.4261,1.718,2.142,2.1808,2.2838,2.483,2.3859,2.1866,0.0,0.0,0.0,0.0,0.0,0.0,0.0,0.0,0.0,0.0,0.0,0.0,0.0,0.0,0.0,0.0,0.0,0.0,0.0,0.0,0.0,0.0,0.0,0.0,0.0,0.0,0.0,0.0,0.0,0.0,0.0,0.0,0.0,0.0,0.0,0.0,0.0,0.0,0.0,0.0,0.0,2.214,2.103,2.1377,2.1609,0.0,0.0,2.0037,2.1204,2.0886,0.0,0.0,0.0,0.0,0.0,0.0,0.0,0.0,0.0,0.0,0.0,0.0,0.0,0.0,0.0,0.0,0.0,0.0,0.0,0.0,0.0,0.0,0.0,0.0,0.0,0.0,0.0,0.0,0.0,0.0,0.0,0.0,0.0,0.0,0.0,0.0,0.0,0.0,0.0,0.0,0.0,0.0,0.0,0.0,0.0,0.0,0.0,0.0,0.0,0.0,0.0,0.0,0.0,0.0,0.0,0.9569,1.2122,1.4551,1.7549,2.1151,2.1575,2.2404,2.3888,2.2189,2.0168,0.0,0.0,0.0,0.0,0.0,0.0,0.0,0.0,0.0,0.0,0.0,0.0,0.0,0.0,0.0,0.0,0.0,0.0,0.0,0.0,0.0,0.0,0.0,0.0,0.0,0.0,0.0,0.0,0.0,0.0,0.0,0.0,0.0,0.0,0.0,0.0,0.0,0.0,0.0,0.0,0.0,0.0,2.2571,2.2013,0.0,0.0,0.0,2.0623,2.0963,0.0,0.0,0.0,0.0,0.0,0.0,0.0,0.0,0.0,0.0,0.0,0.0,0.0,0.0,0.0,0.0,0.0,0.0,0.0,0.0,0.0,0.0,0.0,0.0,0.0,0.0,0.0,0.0,0.0,0.0,0.0,0.0,0.0,0.0,0.0,0.0,0.0,0.0,0.0,0.0,0.0,0.0,0.0,0.0,0.0,0.0,0.0,0.0,0.0,0.0,0.0,0.0,0.0,0.0,0.0,0.0,0.0,1.1813,1.5036,1.8154,2.106,2.1539,2.2236,2.3309,2.125,0.0,0.0,0.0,0.0,0.0,0.0,0.0,0.0,0.0,0.0,0.0,0.0,0.0,0.0,0.0,0.0,0.0,0.0,0.0,0.0,0.0,0.0,0.0,0.0,0.0,0.0,0.0,0.8823,0.0,0.0,0.0,0.0,0.0,0.0,0.0,0.0,0.0,0.0,0.0,0.0,0.0,0.0,2.0997,2.3653,2.2981,2.2811,0.0,0.0,2.1622,2.1059,2.1129,2.0395,0.0,0.0,0.0,0.0,0.0,0.0,0.0,0.0,0.0,0.0,0.0,0.0,0.0,0.0,0.0,0.0,0.0,0.0,0.0,0.0,0.0,0.0,0.0,0.0,0.0,0.0,0.0,0.0,0.0,0.0,0.0,0.0,0.0,0.0,0.0,0.0,0.0,0.0,0.0,0.0,0.0,0.0,0.0,0.0,0.0,0.0,0.0,0.0,0.0,0.0,0.0,0.0,0.0,0.0,0.0,1.2433,1.5236,1.8313,2.1487,2.1676,2.237,2.3763,2.2011,1.9715,0.0,0.0,0.0,0.0,0.0,0.0,0.0,0.0,0.0,0.0,0.0,0.0,0.0,0.0,0.0,0.0,0.0,0.0,0.0,0.0,0.0,0.0,0.0,0.0,0.0,0.0,0.0,0.0,0.0,0.0,0.0,0.0,0.0,0.0,0.0,0.0,0.0,0.0,0.0,0.0,0.0,2.2139,2.3069,2.4403,2.5579,0.0,0.0,2.3492,2.2874,2.3053,2.203,1.8354,0.0,0.0,0.0,0.0,0.0,0.0,0.0,0.0,0.0,0.0,0.0,0.0,0.0,0.0,0.0,0.0,0.0,0.0,0.0,0.0,0.0,0.0,0.0,0.0,0.0,0.0,0.0,0.0,0.0,0.0,0.0,0.0,0.0,0.0,0.0,0.0,0.0,0.0,0.0,0.0,0.0,0.0,0.0,0.0,0.0,0.0,0.0,0.0,0.0,0.0,0.0,0.0,0.0,1.0055,1.2115,1.5125,1.8322,2.1523,2.1695,2.2379,2.3846,2.2121,1.992,0.0,0.0,0.0,0.0,0.0,0.0,0.0,0.0,0.0,0.0,0.0,0.0,0.0,0.0,0.0,0.0,0.0,0.0,0.0,0.0,0.0,0.0,0.0,0.0,0.0,0.0,0.0,0.0,1.1053,1.111,1.1099,0.0,0.0,0.0,0.0,0.0,0.0,0.0,0.0,0.0,0.0,2.2078,2.4103,2.4587,0.0,0.0,2.5186,2.4131,2.4439,2.3483,2.1963,1.9872,1.8239,0.0,0.0,0.0,0.0,0.0,0.0,0.0,0.0,0.0,0.0,0.0,0.0,0.0,0.0,0.0,0.0,0.0,0.0,0.0,0.0,0.0,0.0,0.0,0.0,0.0,0.0,0.0,0.0,0.0,0.0,0.0,0.0,0.0,0.0,0.0,0.0,0.0,0.0,0.0,0.0,0.0,0.0,0.0,0.0,0.0,0.0,0.0,0.0,0.0,0.0,0.0,0.0,0.9747,1.1538,1.4863,1.7963,2.089,2.115,2.1854,2.2946,2.1689,1.9769,0.0,0.0,0.0,0.0,0.0,0.0,0.0,0.0,0.0,0.0,0.0,0.0,0.0,0.0,0.0,0.0,0.0,0.0,0.0,0.0,0.0,0.0,0.0,0.0,0.0,0.0,0.0,0.0,1.1654,1.135,1.0629,0.0,0.0,0.0,0.0,0.0,0.0,0.0,0.0,0.0,0.0,2.2503,2.4846,2.4974,2.5047,2.5716,2.4838,2.3996,2.3635,2.2831,2.176,2.0313,0.0,0.0,0.0,0.0,0.0,0.0,0.0,0.0,0.0,0.0,0.0,0.0,0.0,0.0,0.0,0.0,0.0,0.0,0.0,0.0,0.0,0.0,0.0,0.0,0.0,0.0,0.0,-0.0145,0.0,0.0,-0.1155,0.0,0.0,0.0,0.0,0.0,0.0,0.0,0.0,0.0,0.0,0.0,0.0,0.0,0.0,0.0,0.0,0.0,0.0,0.0,0.0,0.0,0.0,0.9012,1.0765,1.4425,1.7224,1.9136,1.9923,2.0561,2.1099,2.0633,1.9373,1.7081,0.0,0.0,0.0,0.0,0.0,0.0,0.0,0.0,0.0,0.0,0.0,0.0,0.0,0.0,0.0,0.0,0.0,0.0,0.0,0.0,0.0,0.0,0.0,0.0,0.0,0.0,1.1308,1.1572,1.1227,0.0,0.0,0.0,0.0,0.0,0.0,0.0,0.0,0.0,0.0,2.2066,2.3849,2.4962,2.5883,2.5709,2.3856,2.3874,2.3057,2.0126,2.1119,2.1611,0.0,0.0,0.0,0.0,0.0,0.0,0.0,0.0,0.0,0.0,0.0,0.0,0.0,0.0,0.0,0.0,0.0,0.0,0.0,0.0,0.0,0.0,0.0,0.0,0.0,0.0,0.0,0.2203,0.202,0.0,0.0,0.0,0.0,0.0,0.0,0.0,0.0,0.0,0.0,0.0,1.1019,1.2279,0.0,0.0,0.0,0.0,0.0,0.0,0.0,0.0,0.0,0.0,0.0,0.0,0.9567,1.1211,1.4185,1.6855,1.9007,1.9368,2.0298,2.187,2.1228,1.9687,1.7189,0.0,0.0,0.0,0.0,0.0,0.0,0.0,0.0,0.0,0.0,0.0,0.0,0.0,0.0,0.0,0.0,0.0,0.0,0.0,0.0,0.0,0.0,0.0,0.0,0.0,1.0582,0.0,0.0,0.0,0.0,0.0,0.0,0.0,0.0,0.0,0.0,0.0,1.9333,2.1887,2.3271,2.449,2.5593,2.5874,2.5761,0.0,0.0,0.0,0.0,0.0,0.0,0.0,0.0,0.0,0.0,0.0,0.0,0.0,0.0,2.2017,1.9368,1.9062,1.9186,1.93,0.0,0.0,0.0,0.0,0.0,0.0,0.0,0.0,0.0,0.0,0.0,0.0,0.0,0.0,0.417,0.0,0.3432,0.0,0.0,0.0,0.0,0.0,0.0,0.0,0.0,0.9155,1.1347,1.2871,1.3932,1.4062,0.0,1.2215,1.0888,0.0,0.0,0.0,0.0,0.0,0.0,0.0,0.0,0.9887,1.123,1.3832,1.6066,1.7756,1.8248,1.9191,2.0702,2.0509,1.9336,1.7081,1.5178,1.3596,0.0,0.0,0.0,0.0,0.0,0.0,0.0,0.0,0.0,0.0,0.0,0.0,0.0,0.0,0.0,0.0,0.0,0.0,0.0,0.0,0.0,0.0,0.0,1.1009,0.0,0.0,0.0,0.0,0.0,0.0,0.0,0.0,0.0,1.5612,1.8021,2.0515,2.2941,2.3926,2.4641,2.5179,0.0,0.0,0.0,0.0,0.0,0.0,0.0,2.0733,2.147,2.1288,2.131,2.2138,2.3319,2.4033,2.3616,0.0,0.0,2.159,2.1143,2.1323,2.1859,2.285,2.387,2.4792,2.5507,2.6013,0.0,0.0,0.0,0.0,0.0,0.0,0.0,0.0,0.7165,0.6099,0.0,0.4849,0.0,0.0,0.0,0.0,0.0,0.2886,0.0,0.0,1.2831,1.5404,1.6706,1.6706,1.7004,1.7299,1.5558,1.4039,1.2613,0.9445,0.0,0.0,0.0,0.0,0.0,0.0,0.9959,1.0939,1.333,1.4891,1.5494,1.665,1.7469,1.7848,1.8632,1.8355,1.6786,1.5767,1.4216,1.1992,1.0045,0.0,0.0,0.0,0.0,0.0,0.0,0.0,0.0,0.0,0.0,0.0,0.0,0.0,0.0,0.0,0.0,0.0,0.0,0.0,0.0,1.1328,0.0,0.0,0.0,0.0,0.0,0.0,0.0,0.0,0.0,0.0,1.6593,1.83,2.0434,2.2892,0.0,0.0,0.0,0.0,2.2775,2.0484,2.0069,1.9861,1.9351,2.0591,2.1728,2.2313,0.0,0.0,2.321,2.407,2.4657,2.3909,2.4429,2.5112,2.5513,2.4533,2.4472,2.6471,2.6293,2.6615,2.8232,2.8901,2.9417,2.2355,0.0,0.0,0.0,0.0,0.9521,0.9182,0.8964,0.8744,0.7939,0.6741,0.6319,0.0,0.0,0.0,0.0,0.0,0.0,0.5299,0.8138,0.9592,1.156,1.3999,1.3999,1.3937,1.3886,1.318,1.2461,1.1662,1.1164,0.9362,0.6397,0.0,0.0,0.0,0.0,1.0908,1.1911,1.3525,1.4993,1.6244,1.6591,1.7323,1.8465,1.8269,1.7938,1.7413,1.6578,1.5258,1.339,1.1755,0.0,0.0,0.0,0.0,0.0,0.0,0.0,0.0,0.0,0.0,0.0,0.0,0.0,0.0,0.0,0.0,0.0,0.0,0.0,1.0524,1.1502,1.2259,0.0,0.0,0.0,0.0,0.0,0.0,0.0,0.0,0.0,1.772,1.9774,2.1396,0.0,0.0,2.2872,2.2329,2.2562,2.252,2.1628,2.067,0.0,1.981,1.9626,1.9989,2.1368,2.3309,2.4618,2.4382,2.4646,2.4807,2.4561,2.4569,2.489,2.5508,2.543,2.5534,2.6537,2.75,2.8562,2.9947,3.0646,3.0976,2.7118,2.1499,1.8213,1.5954,1.4531,1.3339,1.2831,1.2704,1.1477,1.0364,0.9248,0.7816,0.5844,0.3416,0.1013,0.0,0.0,0.0,0.515,0.8023,0.8827,1.0467,1.2568,1.2646,1.2539,1.2365,1.1695,1.1435,1.1518,1.1307,1.0225,0.8356,0.0,0.0,0.8735,1.0677,1.2186,1.3069,1.3878,1.4827,1.5807,1.613,1.6904,1.8149,1.7902,1.7466,1.6917,1.653,1.5517,1.385,1.2744,1.1337,0.0,0.0,0.0,0.0,0.0,0.0,0.0,0.0,0.0,0.0,0.0,0.7765,0.6826,0.0,0.0,0.0,0.9978,1.1244,1.1889,1.307,0.0,0.0,0.0,0.0,0.0,0.0,0.0,1.6118,1.7293,1.8174,1.8484,1.9867,2.0977,2.1265,2.1656,2.163,2.0974,0.0,2.1159,2.0561,1.974,1.9361,1.9793,1.943,1.9654,2.1445,2.2904,2.4134,2.4597,2.4777,2.4849,2.4858,2.487,2.5032,2.5474,2.5553,2.6094,2.7554,2.8782,2.9917,3.1251,3.1564,3.1567,3.0182,2.7522,2.2219,2.0069,1.9917,1.7323,1.6817,1.7661,1.4745,1.2914,1.1725,0.9272,0.6536,0.3525,0.0326,0.0,0.2166,0.3134,0.5283,0.8464,0.967,1.0845,1.1973,1.2091,1.2146,1.2082,1.0945,1.0864,1.1637,1.041,1.0164,1.0878,1.1881,1.2014,1.1394,1.2519,1.3562,1.431,1.437,1.4546,1.4844,1.5499,1.6292,1.7188,1.7325,1.681,1.5639,1.5749,1.5141,1.3661,1.3092,1.2268,1.1102,0.0,0.0,0.0,0.0,0.0,0.0,0.0,0.0,0.0,0.0,0.0,0.0,0.0,0.0,0.0,1.2838,0.0,1.4131,1.5363,0.0,0.0,0.0,1.4622,1.5656,1.6626,1.7428,1.7884,0.0,0.0,1.9005,1.9184,1.9723,2.0688,2.0733,2.0396,1.9565,1.9504,1.9143,1.8286,1.8068,1.8423,1.9406,1.9606,2.0295,2.1977,2.2511,2.3068,2.3958,2.4615,2.4812,2.4882,2.5185,2.5396,2.5414,2.5445,2.6366,2.9013,2.9764,3.0431,3.1715,3.1851,3.1578,3.152,2.9529,2.6868,2.453,2.2316,2.0542,1.8759,1.697,1.5132,1.3044,1.0975,1.0219,0.8,0.4686,0.3857,0.3353,0.3174,0.4371,0.5368,0.626,0.7375,0.8057,0.8416,0.9309,0.9754,0.9699,0.9446,0.9428,0.964,1.0205,1.0383,1.0399,1.2192,1.2739,1.2052,1.3131,1.4008,1.4618,1.4802,1.5316,1.6093,1.6109,1.6181,1.637,1.5697,1.5025,1.448,1.4253,1.3879,1.3327,1.2991,1.2486,1.1725,1.038,0.0,0.0,0.0,0.0,0.0,0.0,0.0,0.0,0.0,1.0835,0.9035,0.0,1.1734,0.0,1.3596,1.4795,1.5036,1.5504,0.0,0.0,1.679,1.6951,1.8844,1.8659,1.8533,1.89,1.9208,1.9539,1.983,1.9747,1.9776,2.0046,1.9445,1.8779,1.8206,1.8452,1.8511,1.8116,1.8011,1.8181,1.8737,1.9506,2.0436,2.1732,2.2675,2.3435,2.3696,2.4616,2.5234,2.5234,2.535,2.5362,2.5442,2.582,2.6716,2.8091,2.8692,2.9301,3.062,3.1243,3.1578,3.1094,2.9691,2.8004,2.6078,2.4096,2.2212,2.0053,1.7565,1.5082,1.3082,1.1491,0.9614,0.7491,0.5274,0.5101,0.4794,0.4466,0.5618,0.6144,0.62,0.6816,0.7099,0.7099,0.726,0.7593,0.8103,0.81,0.838,0.8881,0.9592,1.0035,1.0379,1.2121,1.2664,1.2223,1.3555,1.4267,1.436,1.5071,1.571,1.6253,1.614,1.5745,1.5054,1.4724,1.4172,1.3387,1.3397,1.3313,1.3013,1.2878,1.2516,1.1926,1.1009,1.0111,0.0,0.0,0.0,0.0,0.0,0.0,0.0,0.0,0.0,0.0,0.0,1.3137,1.3454,1.4986,1.6054,1.625,1.7017,1.7841,1.8638,1.8439,1.879,2.0256,2.0092,1.9935,2.0116,2.0431,2.0515,2.043,2.033,2.0118,1.9835,1.9097,1.8401,1.7943,1.8055,1.8169,1.8009,1.8009,1.811,1.8469,1.9015,1.9764,2.0893,2.2025,2.2995,2.3542,2.4765,2.569,2.5699,2.5837,2.5966,2.5957,2.6222,2.6752,2.7267,2.8119,2.9254,3.0684,3.119,3.1469,3.0154,2.8996,2.7422,2.6223,2.5144,2.3075,2.0984,1.8749,1.5126,1.3201,1.2464,0.8507,0.6311,0.5586,0.5135,0.5135,0.5472,0.6424,0.6874,0.6871,0.7041,0.7099,0.7096,0.6255,0.6366,0.7321,0.7321,0.7878,0.8881,0.8937,0.9416,1.0479,1.1561,1.1953,1.1645,1.3453,1.4209,1.3987,1.4975,1.5626,1.578,1.567,1.4988,1.3779,1.4145,1.3796,1.2599,1.2934,1.3026,1.2804,1.2824,1.261,1.2094,1.1516,1.1109,0.0,1.0295,0.0,0.0,0.0,0.0,0.0,0.0,0.0,0.0,1.4296,1.4573,1.5021,1.658,1.7587,1.7556,1.8889,1.9711,1.953,1.9808,2.0186,2.0779,2.1044,2.1191,2.1263,2.1648,2.1599,2.0942,2.0858,2.0618,2.0098,1.9562,1.8975,1.8342,1.8196,1.8103,1.8049,1.8082,1.8283,1.8497,1.8646,1.9014,1.9955,2.1067,2.2099,2.3071,2.4675,2.5818,2.5845,2.619,2.6545,2.6591,2.6618,2.6618,2.6682,2.7716,2.9133,3.077,3.1391,3.1487,3.1051,2.9039,2.7985,2.6553,2.483,2.3812,2.1884,1.9295,1.6558,1.4188,1.1916,0.854,0.6927,0.6705,0.5753,0.5359,0.5417,0.5641,0.5697,0.575,0.6649,0.7099,0.7152,0.7875,0.8322,0.8546,0.8549,0.866,0.8937,0.8937,0.8927,0.9129,1.0192,1.0154,0.9313,0.0,0.0,0.0,1.3795,1.4134,1.5244,1.4599,1.3944,1.3477,1.3641,0.0,1.3101,1.2915,1.2844,1.2797,1.3025,0.0,0.0,0.0,0.0,0.0,0.0,0.0,0.0,0.0,0.0,0.0,1.4421,1.4426,1.472,1.5763,1.6405,1.6353,1.7526,1.8419,1.8885,1.9455,1.9974,2.0384,2.0735,2.1086,2.1467,2.1154,2.1008,2.1448,2.1008,2.087,2.13,2.1242,2.1094,2.0923,2.0624,2.0098,1.9506,1.8865,1.843,1.8424,1.8597,1.8708,1.8831,1.9038,1.926,1.9644,2.0544,2.1365,2.18,2.3626,2.5006,2.5107,2.5908,2.6591,2.6591,2.6591,2.6591,2.6591,2.6909,2.7577,2.926,3.0979,3.2095,2.991,0.0,2.7565,2.6379,0.0,2.3515,2.184,1.989,1.7357,1.4436,1.1244,0.9589,0.8533,0.7928,0.7306,0.6999,0.7051,0.694,0.6997,0.7002,0.7004,0.7039,0.7099,0.7146,0.7485,0.7986,0.7992,0.8322,0.8881,0.8937,0.8844,0.8821,0.995,0.9908,0.8763,1.0095,1.1799,1.3827,1.3925,1.4384,1.5258,1.542,1.4929,1.3838,1.3742,0.0,0.0,0.0,0.0,0.0,0.0,0.0,0.0,0.0,0.0,1.3727,1.4061,1.4243,1.4228,1.4947,1.5571,1.6053,1.6319,1.6342,1.6048,1.6796,1.7387,1.7551,1.795,1.8464,1.9031,1.9523,1.9983,2.0416,2.0916,2.1274,2.1425,2.1283,2.1243,2.139,2.1242,2.1258,2.1341,2.141,2.1334,2.1154,2.0882,2.0584,2.0268,1.9606,1.9105,1.8958,1.9032,1.9138,1.9152,1.9252,1.943,1.9533,2.0385,2.1124,2.1231,2.3199,2.4787,2.4898,2.5798,2.6591,2.6591,2.6591,2.6655,2.6885,2.7196,2.7661,2.8672,3.0033,3.1222,2.9075,2.7831,2.7081,2.6251,2.5144,2.3243,2.1648,2.006,0.0,0.0,0.0,1.1143,1.0488,0.953,0.9182,0.9071,0.901,0.8725,0.8628,0.8696,0.7711,0.733,0.7374,0.6478,0.6533,0.7374,0.7432,0.7934,0.8937,0.8995,0.8995,0.9047,0.9966,0.997,0.9099,0.9268,1.056,1.2766,1.3704,1.4358,1.4833,1.5694,1.5364,1.3708,1.3731,1.3568,1.3064,1.3034,1.3279,1.3884,1.3966,1.4099,1.4376,1.4492,1.4861,1.5665,1.5953,1.6296,1.6635,1.715,1.7403,1.7509,1.7816,1.7836,1.7341,1.7575,1.7956,1.8482,1.8279,1.8374,1.902,1.952,2.0051,2.0422,2.0963,2.1264,2.1285,2.1427,2.1408,2.1315,2.1513,2.1645,2.1231,2.1318,2.1425,2.1139,2.0958,2.0748,2.0681,2.0214,1.9746,1.9566,1.9546,1.9539,1.9526,1.9546,1.9499,1.9537,2.0301,2.1039,2.1556,2.3126,2.4482,2.4915,2.5896,2.6592,2.6701,2.6793,2.6903,2.7224,2.7809,2.8289,2.8389,2.9059,2.9964,3.11,2.8279,2.7816,2.658,2.4818,2.4202,2.2178,1.9205,1.6423,1.4636,1.3689,1.2877,1.2307,1.1869,1.0866,1.0417,1.0362,0.9318,0.8886,0.8851,0.8686,0.8637,0.8657,0.8491,0.8491,0.866,0.8657,0.8881,0.9268,0.9323,0.9323,0.9323,0.9489,0.9596,0.9651,0.9489,0.997,1.103,1.0816,1.1314,1.2587,1.2284,1.1987,1.1805,1.3034,1.3653,1.3586,1.4466,1.5054,1.5157,1.5384,1.5538,1.5538,1.5812,1.6236,1.681,1.7166,1.7561,1.8043,1.8154,1.8366,1.8624,1.8266,1.7949,1.7889,1.8196,1.8384,1.8479,1.8638,1.9021,1.9606,1.9963,2.0482,2.1232,2.1455,2.1579,2.1565,2.1382,2.1211,2.1135,2.0984,2.1043,2.1128,2.1139,2.1166,2.1096,2.1042,2.1029,2.1061,2.0548,2.0194,2.012,2.0107,2.0107,2.016,2.01,2.0206,1.9773,2.0278,2.1019,2.1722,2.3017,2.422,2.5136,2.6287,2.704,2.7105,2.738,2.7545,2.7721,2.7909,2.7957,2.8013,2.8643,2.9577,3.0478,2.8322,2.7704,2.693,2.5963,2.428,2.2125,1.9625,1.7692,1.6009,1.4623,1.4207,1.3502,1.2578,1.1978,1.1652,1.1487,1.086,1.0605,1.0638,1.0054,0.989,1.0021,0.9485,0.9268,0.9375,0.9375,0.9379,0.9379,0.9379,0.9327,0.9158,0.9323,0.9812,1.0625,0.9974,0.9926,1.0468,1.0875,1.1473,1.228,1.262,1.3034,1.3521,1.3758,1.4278,1.5276,1.5325,1.5525,1.6106,1.6239,1.638,1.654,1.673,1.6982,1.7373,1.7522,1.771,1.7937,1.8107,1.8271,1.8407,1.8453,1.8468,1.8468,1.8497,1.8557,1.8704,1.8998,1.928,1.9557,2.0103,2.0646,2.1033,2.1238,2.1203,2.0965,2.1114,2.1037,2.0719,2.0846,2.0962,2.1089,2.1102,2.1102,2.1102,2.1102,2.1355,2.2034,2.1921,2.1423,2.0733,2.0929,2.124,2.13,2.1939,2.2223,2.2208,2.2312,2.2579,2.3134,2.4001,2.4928,2.5626,2.6679,2.7433,2.7499,2.7684,2.7886,2.8086,2.8104,2.8113,2.8238,2.9001,3.0192,3.005,2.8265,2.7706,2.7195,2.6556,2.3964,2.2055,2.068,1.9659,1.809,1.629,1.571,1.481,1.3735,1.3347,1.3098,1.2821,1.2499,1.2384,1.237,1.1536,1.1194,1.1097,1.0245,0.9974,1.0139,1.0194,1.0249,1.0355,1.0355,1.0084,0.9647,0.9541,1.0084,1.1168,1.0359,1.0202,1.0794,1.166,1.22,1.2417,1.3275,1.4152,1.499,1.4657,1.5047,1.6406,1.603,1.6088,1.6857,1.6907,1.7007,1.728,1.73,1.74,1.766,1.774,1.7826,1.796,1.8063,1.8211,1.8407,1.8713,1.8945,1.9048,1.8881,1.8778,1.9042,1.9314,1.954,1.9703,2.026,2.0666,2.0723,2.0875,2.0735,2.0294,2.0661,2.0822,2.0394,2.0748,2.1096,2.1102,2.1102,2.1229,2.1538,2.1538,2.2097,2.3201,2.3566,2.2967,2.2276,2.2377,2.2804,2.2872,2.3598,2.4162,2.4327,2.4265,2.4348,2.4706,2.5536,2.6235,2.6542,2.7262,2.7854,2.7911,2.8079,2.8196,2.8471,2.8526,2.8526,2.8594,2.9576,3.0976,3.1431,2.8877,2.8331,2.7085,2.547,2.344,2.25,2.2202,2.1805,2.093,1.9337,1.7709,1.6678,1.6278,1.5468,1.4977,1.4702,1.3902,1.3461,1.3308,1.3131,1.2497,1.1655,1.1383,1.1328,1.1378,1.1378,1.1978,1.2999,1.3107,1.2674,1.1655,1.0414,1.0091,1.0468,1.0363,1.0903,1.2205,1.2304,1.2363,1.2417,1.2467,1.3102,1.4158,1.5228,1.5813,1.6017,1.6858,1.739,1.7502,1.7482,1.7508,1.7535,1.7588,1.766,1.7911,1.8174,1.8541,1.9042,1.873,1.8769,1.9487,1.916,1.9159,1.9611,1.9459,1.9343,1.9417,1.9618,1.9852,2.012,2.0489,2.0738,2.0717,2.0777,2.0481,2.006,2.0361,2.0588,2.0281,2.0748,2.1102,2.1102,2.1166,2.1664,2.2772,2.2897,2.3387,2.4564,2.4871,2.4925,2.4632,2.4761,2.4737,2.4767,2.483,2.5117,2.4839,2.4851,2.5463,2.6194,2.6455,2.6691,2.7714,2.815,2.8333,2.8407,2.8599,2.8819,2.8801,2.8856,2.8902,2.9076,2.9911,3.1338,3.3666,3.1726,3.0239,2.839,2.6376,2.4865,2.3529,2.2492,2.1578,2.0451,1.9138,1.8236,1.7753,1.7446,1.7076,1.6761,1.6519,1.6168,1.5949,1.5777,1.497,1.4402,1.4063,1.3162,1.2891,1.2999,1.3053,1.327,1.3588,1.3534,1.327,1.3004,1.2354,1.2571,1.3437,1.2896,1.2842,1.3383,1.3437,1.376,1.4298,1.376,1.397,1.4995,1.4995,1.5209,1.5861,1.6346,1.6611,1.6664,1.7265,1.7589,1.7589,1.7589,1.7635,1.776,1.8028,1.8366,1.8782,1.8961,1.9104,1.9244,1.9592,1.9692,1.9577,1.9764,1.9942,1.9958,2.0028,2.0152,2.0268,2.0801,2.1101,2.0799,2.0861,2.0679,1.9887,2.0321,2.0561,2.0327,2.0748,2.1102,2.1229,2.1783,2.2772,2.3876,2.4255,2.4748,2.5912,2.6156,2.652,2.7142,2.7383,2.7013,2.6459,2.6961,2.7108,2.7219,2.7271,2.7648,2.7756,2.8009,2.8187,2.8669,2.8709,2.8718,2.8746,2.8828,2.8984,2.8984,2.9003,2.9039,2.9338,2.9814,3.0892,3.4902,3.3275,3.1054,2.9136,2.7555,2.6507,2.5261,2.3966,2.2898,2.167,2.0347,2.022,1.9844,1.9316,1.8632,1.8077,1.784,1.7927,1.7888,1.7749,1.6692,1.6215,1.602,1.5001,1.4499,1.465,1.4595,1.4669,1.4669,1.4239,1.4132,1.4239,1.3965,1.4352,1.5215,1.4513,1.4298,1.4567,1.462,1.5162,1.6074,1.5535,1.5482,1.618,1.5209,1.5156,1.6287,1.6346,1.634,1.6399,1.7147,1.7589,1.7589,1.7589,1.7675,1.7828,1.7996,1.8297,1.8695,1.9079,1.9185,1.9102,1.9706,1.9873,1.9611,1.9897,2.0151,2.0174,2.0298,2.0395,2.0571,2.1033,2.1122,2.063,2.074,2.0577,2.0305,2.0738,2.1181,2.1271,2.202,2.2153,2.2278,2.3076,2.407,2.524,2.5546,2.6042,2.7203,2.7564,2.7933,2.8847,2.8925,2.8558,2.7813,2.8113,2.8916,2.8984,2.8797,2.8737,2.8984,2.8984,2.8975,2.8865,2.8957,2.8966,2.8911,2.8957,2.8984,2.9003,2.9058,2.9195,2.9522,2.9751,3.0596,3.4659,3.2162,2.9901,2.8971,2.8665,2.795,2.7596,2.7014,2.683,2.6051,2.474,2.4382,2.376,2.2443,2.0099,1.8756,1.8507,1.8835,1.8877,1.8606,1.8428,1.773,1.669,1.6313,1.6175,1.6163,1.5946,1.6252,1.7041,1.6287,1.5802,1.5695,1.4776,1.4186,1.446,1.4454,1.4722,1.5695,1.5808,1.634,1.7312,1.7364,1.7259,1.7312,1.6399,1.6234,1.7259,1.7477,1.7477,1.7477,1.7529,1.7589,1.7589,1.7595,1.7888,1.8347,1.8475,1.8702,1.9127,1.9101,1.9102,1.9336,1.9461,1.9488,1.9444,1.9769,1.9996,1.9932,2.0584,2.0951,2.1279,2.1245,2.0917,2.0591,2.02,2.0507,2.1089,2.1715,2.2624,2.3451,2.4075,2.4463,2.4687,2.4871,2.5538,2.6529,2.69,2.7332,2.831,2.8797,2.8865,2.8916,2.8984,2.8984,2.8925,2.8856,2.8916,2.8984,2.8984,2.8984,2.8984,2.8984,2.8984,2.8984,2.8984,2.8984,2.8984,2.8984,2.8984,2.9058,2.9241,2.9476,2.9525,3.0222,3.0828,3.5815,3.3283,3.2493,3.0869,2.8807,2.8551,2.7755,2.669,2.65,2.5743,2.4688,2.4204,2.3813,2.3292,2.2097,2.1435,2.1323,2.1436,2.1046,2.0302,2.0011,1.9298,1.8155,1.7841,1.7705,1.766,1.7414,1.6955,1.6571,1.6776,1.6617,1.608,1.6234,1.634,1.6346,1.634,1.6611,1.6942,1.6988,1.7206,1.747,1.6882,1.6829,1.7529,1.6505,1.6074,1.6499,1.6505,1.6505,1.6505,1.7206,1.7589,1.7602,1.7776,1.8103,1.8655,1.8767,1.8948,1.9266,1.9428,1.9418,1.9403,1.9764,1.9771,1.958,1.9972,2.0743,2.1451,2.1975,2.2593,2.3202,2.2723,2.2294,2.2565,2.2472,2.2371,2.263,2.2863,2.3345,2.4098,2.4731,2.5285,2.6095,2.6286,2.6831,2.8002,2.8241,2.8489,2.8797,2.8984,2.8984,2.8984,2.8984,2.8984,2.8984,2.8984,2.8984,2.8984,2.8984,2.8984,2.8984,2.8984,2.8984,2.8984,2.8984,2.8984,2.8984,2.9048,2.9039,2.903,2.9283,2.9577,2.9525,3.0027,3.0405,3.6521,3.477,3.4191,3.2663,3.0543,2.9795,2.8874,2.7606,2.7044,2.6304,2.5586,2.5142,2.4867,2.4733,2.449,2.4259,2.3999,2.303,2.1964,2.1216,2.0558,1.9842,1.9132,1.8771,1.8631,1.8564,1.8217,1.7486,1.6763,1.7252,1.716,1.6558,1.7259,1.7589,1.7589,1.7589,1.7589,1.7589,1.7589,1.7589,1.7529,1.6882,1.6776,1.7371,1.6829,1.6452,1.6452,1.6452,1.6452,1.6558,1.7206,1.7629,1.7749,1.811,1.8504,1.8984,1.9182,1.931,1.9673,1.9873,1.9873,1.9713,2.0027,2.0075,1.9818,2.0781,2.1799,2.2579,2.352,2.4295,2.4875,2.448,2.3924,2.3997,2.3956,2.3967,2.3977,2.4007,2.4614,2.562,2.6075,2.6661,2.7426,2.7624,2.8062,2.8916,2.8984,2.8984,2.8984,2.8984,2.8984,2.8984,2.8984,2.8984,2.8984,2.8984,2.8984,2.8984,2.8984,2.8984,2.8984,2.8984,2.8984,2.8984,2.8984,2.8984,2.9021,2.9094,2.9145,2.908,2.9439,2.9806,2.9784,2.9777,3.0194,3.6769,3.5972,3.4659,3.3979,3.3342,3.1903,3.1186,3.0548,2.913,2.8312,2.7907,2.7776,2.725,2.7111,2.6814,2.681,2.584,2.3207,2.1774,2.1502,2.0472,1.9903,1.9645,1.9444,1.9287,1.919,1.8433,1.811,1.8084,1.7809,1.7622,1.7576,1.7616,1.7702,1.7622,1.7675,1.7649,1.7669,1.7689,1.7655,1.7595,1.755,1.7569,1.7655,1.755,1.755,1.7583,1.751,1.7516,1.751,1.7576,1.7749,1.8055,1.8508,1.9025,1.9312,1.9594,1.991,2.0155,2.0213,2.0162,2.0174,2.0272,2.0351,2.0684,2.1869,2.2877,2.3346,2.4442,2.5723,2.6177,2.6149,2.5451,2.4155,2.4293,2.4563,2.5065,2.5367,2.6123,2.7615,2.802,2.8504,2.8847,2.8847,2.8916,2.8984,2.9044,2.9044,2.9103,2.9103,2.9044,2.9044,2.9103,2.9094,2.9044,2.8984,2.8984,2.8984,2.8984,2.8984,2.8984,2.8984,2.8984,2.8984,2.8984,2.8984,2.9181,2.9255,2.9351,2.9407,2.9781,3.0045,3.0055,3.0125,3.0391,3.802,3.6771,3.6283,3.5224,3.4045,3.3339,3.2478,3.1196,3.0499,2.9753,2.8895,2.8379,2.8132,2.7967,2.7785,2.7417,2.6837,2.4977,2.3941,2.3576,2.3207,2.2531,2.1885,2.1737,2.1635,2.1249,2.0327,1.9773,1.9431,1.8673,1.821,1.821,1.8251,1.821,1.8183,1.821,1.821,1.821,1.821,1.8203,1.821,1.8203,1.8203,1.821,1.8203,1.8203,1.8203,1.8009,1.7903,1.7889,1.809,1.8343,1.8568,1.8761,1.9068,1.9385,1.9479,1.9649,1.9931,1.9996,2.0092,2.0258,2.0285,2.0771,2.1503,2.2412,2.3619,2.4984,2.6104,2.6773,2.728,2.8011,2.7575,2.6279,2.5951,2.5929,2.6345,2.6709,2.7186,2.7723,2.8155,2.8591,2.9067,2.9226,2.9331,2.9331,2.9331,2.9331,2.9331,2.9272,2.9331,2.9331,2.9331,2.9213,2.9103,2.8984,2.9044,2.9044,2.9035,2.8984,2.8984,2.8984,2.8984,2.8984,2.8984,2.9112,2.9309,2.9502,2.9567,2.9639,2.9867,3.0077,3.03,3.0445,3.0562,3.9011,3.7699,3.7664,3.6856,3.5432,3.498,3.4013,3.2866,3.2297,3.1514,3.0732,3.019,2.9632,2.9192,2.8775,2.807,2.7326,2.6424,2.5922,2.543,2.4381,2.3704,2.3038,2.3038,2.2935,2.2601,2.1794,2.1302,2.1105,2.0274,1.9621,1.9243,1.9195,1.8913,1.8546,1.8497,1.8497,1.8497,1.8484,1.8497,1.849,1.8497,1.8497,1.849,1.849,1.8497,1.8484,1.8404,1.8262,1.827,1.849,1.8744,1.8855,1.9025,1.9229,1.9479,1.9591,1.9707,1.9938,2.0099,2.0223,2.0482,2.0995,2.167,2.2609,2.3483,2.549,2.6636,2.7632,2.8165,2.8399,2.8752,2.8716,2.7893,2.7642,2.7604,2.7705,2.7836,2.8005,2.8155,2.8452,2.8875,2.9218,2.9423,2.949,2.9499,2.939,2.9331,2.9331,2.9272,2.9331,2.9331,2.9213,2.9103,2.9044,2.9044,2.9094,2.9094,2.9094,2.9044,2.8984,2.8984,2.8984,2.9044,2.9103,2.9272,2.9418,2.9792,3.0015,3.0071,3.0057,3.0246,3.0408,3.0336,3.0474,3.985,3.8948,3.8857,3.8515,3.7774,3.6561,3.5817,3.5421,3.4236,3.3452,3.3159,3.2276,3.157,3.0643,2.9881,2.8861,2.7828,2.7446,2.7086,2.6298,2.4902,2.3721,2.3608,2.3656,2.3631,2.339,2.2926,2.2671,2.2584,2.1908,2.1511,2.0567,2.0204,1.9754,1.9007,1.8675,1.8611,1.8631,1.8597,1.8604,1.8604,1.8584,1.8591,1.8597,1.8611,1.8617,1.8657,1.8798,1.8798,1.8617,1.8818,1.8965,1.9005,1.9219,1.9461,1.97,1.9758,1.9873,2.0218,2.0412,2.0725,2.1112,2.2198,2.327,2.3907,2.5942,2.7408,2.7818,2.8889,2.9488,2.9221,2.9117,2.8899,2.8861,2.8851,2.8814,2.8738,2.8663,2.8644,2.8804,2.9089,2.9354,2.9458,2.9585,2.9577,2.9509,2.939,2.9331,2.9222,2.9272,2.9163,2.9222,2.939,2.94,2.94,2.9331,2.939,2.939,2.939,2.9331,2.9222,2.9222,2.9222,2.9281,2.9272,2.945,2.9664,3.0061,3.0296,3.0272,3.033,3.0415,3.0495,3.0469,3.0752,4.0583,3.9994,3.9982,3.9453,3.8605,3.8143,3.7111,3.5893,3.5421,3.4626,3.3564,3.2146,3.1788,3.1317,3.0229,2.9158,2.8727,2.8519,2.7881,2.7151,2.656,2.5927,2.5732,2.5624,2.5569,2.5432,2.4603,2.4191,2.4064,2.2593,2.1884,2.2202,2.0698,2.0118,2.0253,1.9606,1.9196,1.9138,1.9182,1.9169,1.9169,1.9169,1.9138,1.9138,1.9118,1.9176,1.9132,1.9205,1.9232,1.9158,1.9199,1.9252,1.9296,1.9377,1.9482,1.9533,1.9533,1.9707,1.9993,2.0344,2.1053,2.2349,2.3285,2.4385,2.6584,2.7425,2.8403,2.8989,2.974,2.9735,2.9449,2.9525,2.9666,2.9863,2.9578,2.9199,2.9211,2.9053,2.9074,2.9463,2.9587,2.9771,3.0039,3.0113,3.0106,2.9908,2.9813,2.9804,2.9509,2.9627,2.9686,2.9745,2.9863,2.9804,2.9804,2.9745,2.9686,2.9745,2.9745,2.9745,2.9686,2.9686,2.9695,2.9754,2.9686,2.9804,3.003,3.0341,3.0411,3.0479,3.0576,3.0722,3.0752,3.083,3.1325,4.0974,4.0379,4.0162,3.9585,3.8815,3.8563,3.7768,3.6916,3.6708,3.6251,3.5233,3.4225,3.361,3.3283,3.226,3.1341,3.0744,3.0591,3.0148,2.9539,2.8681,2.7691,2.6874,2.6591,2.6591,2.6537,2.5907,2.5624,2.5395,2.4055,2.3712,2.3519,2.2353,2.1851,2.1764,2.078,2.0155,2.004,1.9707,1.9424,1.9424,1.9424,1.9417,1.9424,1.9424,1.9424,1.9417,1.9475,1.9533,1.9417,1.9424,1.9424,1.954,1.9591,1.9649,1.9764,1.9764,2.0088,2.0945,2.132,2.2334,2.3893,2.4839,2.6199,2.7674,2.8522,2.9422,2.9912,3.0063,2.9987,3.0074,3.0352,3.0656,3.0832,3.0569,3.0203,3.017,3.0319,3.0288,3.0417,3.0569,3.0711,3.0906,3.0782,3.0625,3.0394,3.0135,2.9969,2.9745,3.0039,3.0216,3.0098,3.0098,2.9981,2.999,2.9922,3.0039,3.0108,3.0167,3.0167,3.0049,2.9981,2.9922,2.999,3.0049,3.0157,3.0333,3.0509,3.0635,3.0762,3.0889,3.0898,3.0898,3.117,3.173,4.1156,4.0439,3.9958,3.9429,3.8888,3.8383,3.8125,3.7986,3.7868,3.7802,3.7536,3.712,3.5991,3.5815,3.4403,3.4063,3.3188,3.2778,3.268,3.1778,3.054,2.8809,2.7311,2.6818,2.6691,2.6636,2.6636,2.6527,2.6245,2.619,2.5789,2.4889,2.4556,2.4047,2.3095,2.2021,2.1452,2.1174,2.0335,1.988,1.9707,1.9597,1.9424,1.9424,1.9424,1.9424,1.9482,1.9591,1.9649,1.9424,1.943,1.9649,1.9815,1.9873,1.9989,2.019,2.034,2.0923,2.2094,2.2349,2.3616,2.5228,2.679,2.8095,2.8582,2.9608,3.0323,3.0392,3.0373,3.049,3.082,3.1279,3.1448,3.16,3.1965,3.1927,3.1541,3.1796,3.1966,3.1325,3.1866,3.192,3.1677,3.1332,3.1132,3.1012,3.0792,3.0548,3.0394,3.0445,3.035,3.0098,3.0098,3.0098,3.0098,3.0039,3.0284,3.0401,3.0587,3.0587,3.0294,3.0235,3.0108,3.0108,3.0343,3.046,3.0518,3.0694,3.082,3.0889,3.0889,3.0898,3.0947,3.145,3.196,4.1374,4.1004,4.0896,4.0306,3.9501,3.9296,3.8755,3.7986,3.7974,3.7974,3.7696,3.663,3.6154,3.6045,3.5024,3.4015,3.4062,3.3963,3.3426,3.2627,3.0818,2.9681,2.8534,2.7583,2.6954,2.6845,2.6691,2.6591,2.6473,2.5907,2.5624,2.5962,2.4612,2.3768,2.4223,2.3255,2.2636,2.241,2.146,2.0838,2.0608,1.9989,1.9597,1.954,1.9424,1.9424,1.9424,1.9482,1.9482,1.954,1.9836,2.0139,2.0169,2.0176,2.0305,2.0419,2.0646,2.0904,2.1281,2.2169,2.324,2.5855,2.6935,2.7838,3.0157,3.047,3.0762,3.082,3.0742,3.0908,3.1288,3.1467,3.1761,3.2123,3.2498,3.2602,3.2229,3.2245,3.2382,3.2435,3.2373,3.23,3.2137,3.2073,3.1886,3.1674,3.1452,3.1228,3.1075,3.0921,3.0698,3.0485,3.0536,3.0536,3.0411,3.0411,3.0528,3.0645,3.0762,3.0889,3.0596,3.0538,3.047,3.0528,3.0713,3.0772,3.0704,3.0762,3.0889,3.0889,3.0898,3.0898,3.1064,3.1624,3.2399,4.1447,4.1136,4.0655,4.0114,3.9573,3.9056,3.8515,3.8046,3.7974,3.7974,3.7856,3.7073,3.6923,3.6989,3.6251,3.5925,3.587,3.5847,3.5249,3.4106,3.2458,3.116,2.9779,2.8499,2.7486,2.6946,2.6691,2.6591,2.6418,2.6081,2.6081,2.6537,2.5229,2.5229,2.5348,2.4492,2.388,2.36,2.2692,2.207,2.1851,2.146,2.0666,2.0162,1.9764,1.9424,1.9424,1.954,1.9591,1.9792,2.0287,2.0584,2.0449,2.0577,2.0778,2.1017,2.126,2.1919,2.249,2.3532,2.5068,2.7147,2.808,2.9248,3.0518,3.0898,3.0898,3.0898,3.0937,3.1054,3.1508,3.2015,3.2247,3.257,3.2903,3.3038,3.2921,3.2858,3.2858,3.2921,3.2854,3.285,3.2841,3.2666,3.2483,3.2215,3.1966,3.1801,3.1772,3.1607,3.1383,3.1228,3.1151,3.1093,3.0898,3.083,3.0772,3.083,3.083,3.0889,3.0772,3.083,3.083,3.0898,3.0889,3.0898,3.083,3.0898,3.0898,3.0898,3.0898,3.0898,3.1228,3.1903,3.2846,4.1435,4.11,4.0126,3.9693,3.9453,3.8587,3.8118,3.7986,3.7974,3.7974,3.7974,3.7974,3.7802,3.7921,3.7868,3.7921,3.7868,3.7737,3.6838,3.586,3.4473,3.3095,3.1591,3.0188,2.8843,2.7446,2.6981,2.6809,2.68,2.6745,2.6682,2.6745,2.6745,2.6518,2.6409,2.5789,2.5165,2.5,2.3927,2.3255,2.3143,2.2926,2.2127,2.106,2.0328,1.9649,1.954,1.9597,1.9843,2.0116,2.0936,2.122,2.13,2.1263,2.1737,2.2126,2.2646,2.3544,2.4567,2.5718,2.6994,2.8792,2.9726,3.0518,3.0772,3.0898,3.0898,3.0928,3.1006,3.1219,3.1696,3.2235,3.2733,3.2966,3.3219,3.3355,3.3418,3.3418,3.3228,3.3111,3.3111,3.317,3.3165,3.3029,3.2945,3.2832,3.2529,3.2305,3.2275,3.2197,3.1992,3.162,3.1514,3.1377,3.1191,3.1143,3.1113,3.1055,3.1025,3.0957,3.0937,3.0898,3.0898,3.0898,3.0898,3.0898,3.0898,3.0898,3.0898,3.0898,3.1005,3.1064,3.1566,3.2238,3.3346,4.1447,4.1136,4.0523,4.0018,3.9549,3.8924,3.8371,3.8022,3.7974,3.7974,3.7974,3.7974,3.7974,3.7974,3.7974,3.7974,3.7974,3.7962,3.7796,3.7157,3.5929,3.4617,3.3817,3.2351,3.1271,3.0247,2.8799,2.7641,2.7323,2.7269,2.7269,2.726,2.7215,2.7225,2.7116,2.6826,2.6436,2.6163,2.5157,2.4556,2.4334,2.3592,2.2692,2.1623,2.1174,2.0551,1.9771,1.9611,2.0048,2.1358,2.2079,2.303,2.371,2.3552,2.3555,2.383,2.4558,2.5353,2.6041,2.6628,2.7621,2.8554,2.9353,2.9971,3.0587,3.0898,3.0918,3.1035,3.126,3.1571,3.2049,3.2546,3.2906,3.3218,3.3355,3.3418,3.3418,3.3355,3.3355,3.3228,3.3355,3.3408,3.335,3.3301,3.3223,3.3154,3.3018,3.2793,3.2695,3.2607,3.2471,3.2109,3.1728,3.1592,3.1445,3.1455,3.1435,3.1367,3.1279,3.1103,3.1055,3.0937,3.0898,3.0898,3.0898,3.0898,3.0898,3.0898,3.0898,3.0898,3.1064,3.1228,3.2008,3.2846,3.4179,4.1435,4.11,4.0331,3.9838,3.9489,3.8731,3.825,3.7998,3.7974,3.7974,3.7974,3.7974,3.7974,3.7974,3.7974,3.7974,3.7974,3.7974,3.7974,3.7678,3.6636,3.5734,3.5337,3.3927,3.3028,3.2094,3.0714,2.925,2.8378,2.8305,2.795,2.7485,2.7431,2.7431,2.7323,2.7098,2.7043,2.6772,2.6172,2.5688,2.5633,2.4556,2.36,2.3143,2.2572,2.2055,2.1752,2.1917,2.2375,2.321,2.3991,2.4827,2.5436,2.5957,2.5898,2.5687,2.6151,2.6602,2.6918,2.7468,2.8307,2.8861,2.9471,3.0147,3.0704,3.0908,3.0976,3.125,3.1601,3.2031,3.2471,3.2851,3.3184,3.335,3.3418,3.3418,3.3418,3.3418,3.3418,3.3418,3.3418,3.3418,3.3418,3.3389,3.3408,3.3418,3.3418,3.3271,3.3086,3.2988,3.2851,3.2353,3.1953,3.1807,3.1748,3.1826,3.1797,3.1719,3.1543,3.1367,3.1123,3.0976,3.0908,3.0898,3.0898,3.0898,3.0898,3.0898,3.0898,3.0947,3.1064,3.145,3.2514,3.3628,3.4902,4.1386,4.0944,3.9994,3.9549,3.9296,3.8407,3.7986,3.7974,3.7974,3.7974,3.7974,3.7974,3.7974,3.7974,3.7974,3.7974,3.7974,3.7974,3.7974,3.7814,3.7138,3.641,3.5887,3.5222,3.4578,3.4264,3.3686,3.1938,2.9737,2.9248,2.8572,2.796,2.7593,2.7593,2.7593,2.7422,2.7206,2.7107,2.6909,2.68,2.6518,2.5844,2.5165,2.5026,2.4303,2.3898,2.3513,2.391,2.4532,2.5167,2.592,2.6608,2.7092,2.8223,2.8428,2.7621,2.7586,2.77,2.8095,2.8623,2.9353,2.9599,3.0343,3.0762,3.0889,3.0928,3.1055,3.1484,3.1894,3.2295,3.2685,3.3144,3.3359,3.3408,3.3418,3.3418,3.3418,3.3418,3.3418,3.3418,3.3418,3.3418,3.3418,3.3418,3.3418,3.3418,3.3418,3.3418,3.3262,3.3291,3.3086,3.2539,3.2168,3.2021,3.2031,3.2217,3.2187,3.2119,3.1875,3.1631,3.1299,3.0996,3.0947,3.0898,3.0898,3.0898,3.0898,3.0898,3.0898,3.0947,3.1122,3.1845,3.313,3.4346,3.5509,4.1168,4.0451,3.9862,3.9345,3.8864,3.8238,3.7974,3.7974,3.7974,3.7974,3.7974,3.7974,3.7974,3.7974,3.7974,3.7974,3.7974,3.7974,3.7974,3.7933,3.7708,3.7554,3.7589,3.7666,3.6779,3.6302,3.6318,3.4181,3.1614,3.0412,2.9353,2.8544,2.8359,2.8203,2.811,2.7972,2.7809,2.772,2.7479,2.7316,2.7262,2.7109,2.6509,2.596,2.5796,2.5626,2.4992,2.5403,2.5932,2.7084,2.7566,2.8498,2.9693,3.0285,3.0567,3.0344,3.0197,3.0098,3.0157,3.0274,3.0401,3.0401,3.0772,3.0889,3.0957,3.0996,3.1143,3.1484,3.1943,3.2402,3.2832,3.3184,3.3359,3.3418,3.3418,3.3418,3.3418,3.3418,3.3418,3.3418,3.3418,3.3418,3.3418,3.3418,3.3418,3.3418,3.3418,3.3418,3.3369,3.334,3.3252,3.2705,3.2471,3.2344,3.2373,3.2549,3.2461,3.2432,3.2148,3.1826,3.1348,3.0986,3.0928,3.0898,3.0898,3.0889,3.0947,3.0947,3.0898,3.1344,3.1903,3.2846,3.4011,3.5113,3.6111,4.0866,4.0343,3.9826,3.9296,3.8767,3.8214,3.7974,3.7974,3.7974,3.7974,3.7974,3.7974,3.7974,3.7974,3.7974,3.7974,3.7974,3.7974,3.7974,3.7974,3.7974,3.7974,3.7962,3.7974,3.7793,3.7625,3.722,3.6039,3.3723,3.2477,3.1449,2.9794,2.9537,2.9246,2.8726,2.8623,2.8564,2.8483,2.8298,2.8009,2.7905,2.7926,2.7882,2.7373,2.766,2.7444,2.7318,2.7715,2.821,2.9075,2.939,2.9879,3.0519,3.082,3.0889,3.082,3.0762,3.0704,3.083,3.0889,3.0898,3.0898,3.0918,3.0996,3.1152,3.126,3.1533,3.2197,3.2402,3.2705,3.3027,3.3301,3.3369,3.3418,3.3418,3.3418,3.3418,3.3418,3.3418,3.3418,3.3418,3.3418,3.3418,3.3418,3.3418,3.3418,3.3418,3.3418,3.3281,3.3125,3.3018,3.2822,3.2725,3.2695,3.2783,3.29,3.2637,3.2519,3.2256,3.1865,3.1289,3.0986,3.0928,3.0898,3.0898,3.0947,3.0947,3.1286,3.1624,3.2238,3.2846,3.3843,3.4836,3.5454,3.6437,4.0687,4.025,3.9633,3.9104,3.8587,3.8142,3.7974,3.7974,3.7974,3.7974,3.7974,3.7974,3.7974,3.7974,3.7974,3.7974,3.7974,3.7974,3.7974,3.7974,3.7974,3.7974,3.7974,3.7974,3.7974,3.7974,3.7625,3.686,3.6186,3.4999,3.3421,3.0995,3.0673,3.0089,2.937,2.915,2.9174,2.9119,2.9016,2.878,2.859,2.8762,2.8868,2.8944,2.9152,2.9399,2.9513,2.9861,3.0256,3.0344,3.049,3.0723,3.0889,3.0889,3.0898,3.0889,3.083,3.0889,3.0889,3.0898,3.0898,3.0898,3.0928,3.1045,3.1406,3.1543,3.1865,3.2617,3.2715,3.2978,3.3291,3.3418,3.3418,3.3418,3.3418,3.3418,3.3418,3.3418,3.3418,3.3418,3.3418,3.3418,3.3418,3.3418,3.3418,3.3418,3.3418,3.3418,3.3281,3.3096,3.3066,3.3008,3.3018,3.3018,3.3086,3.3096,3.2861,3.2598,3.2334,3.2021,3.1514,3.1103,3.0908,3.0898,3.0898,3.0898,3.0947,3.1682,3.2352,3.2685,3.3289,3.4558,3.5553,3.6165,3.6719,4.0758,3.9959,3.9189,3.8563,3.807,3.7998,3.7974,3.7974,3.7974,3.7974,3.7974,3.7974,3.7974,3.7974,3.7974,3.7974,3.7974,3.7974,3.7974,3.7974,3.7974,3.7974,3.7974,3.7974,3.7974,3.7974,3.7817,3.7777,3.7611,3.6899,3.4562,3.1897,3.1757,3.072,3.0006,2.9744,2.9661,2.9604,2.9558,2.9519,2.9468,2.9527,2.9575,2.9634,2.9904,3.0109,3.0119,3.0547,3.0752,3.0762,3.084,3.0889,3.0898,3.0898,3.0898,3.0898,3.0898,3.0898,3.0898,3.0898,3.0898,3.0898,3.0967,3.1152,3.1572,3.1572,3.1982,3.2725,3.29,3.3047,3.3291,3.3418,3.3418,3.3418,3.3418,3.3418,3.3418,3.3418,3.3418,3.3418,3.3418,3.3418,3.3418,3.3418,3.3418,3.3418,3.3418,3.3418,3.3418,3.3291,3.332,3.331,3.333,3.333,3.334,3.3242,3.3047,3.2725,3.2402,3.2168,3.1865,3.1475,3.0898,3.0898,3.0898,3.0898,3.1005,3.1682,3.2295,3.2799,3.373,3.5443,3.6383,3.6947,3.7376,3.9818,3.9412,3.8622,3.8178,3.7974,3.7974,3.7974,3.7974,3.7974,3.7974,3.7974,3.7974,3.7974,3.7974,3.7974,3.7974,3.7974,3.7974,3.7974,3.7974,3.7974,3.7974,3.7974,3.7974,3.7974,3.7974,3.7974,3.7974,3.7914,3.7697,3.6595,3.4685,3.3291,3.2143,3.1355,3.0648,3.028,3.0078,3.0176,3.0264,3.0039,3.0273,3.0391,3.041,3.0478,3.0625,3.0644,3.0781,3.0869,3.0898,3.0898,3.0898,3.0898,3.0898,3.0898,3.0898,3.0898,3.0898,3.0898,3.0898,3.0898,3.0947,3.1123,3.1435,3.1826,3.2109,3.2529,3.2978,3.3154,3.3262,3.335,3.3418,3.3418,3.3418,3.3418,3.3418,3.3418,3.3418,3.3418,3.3418,3.3418,3.3418,3.3418,3.3418,3.3418,3.3418,3.3418,3.3418,3.3418,3.3418,3.3418,3.3418,3.3418,3.3418,3.3418,3.333,3.3232,3.2851,3.2451,3.2119,3.1807,3.1348,3.0898,3.0898,3.1005,3.1122,3.1344,3.1682,3.2342,3.3346,3.4947,3.6815,3.7429,3.7655,3.7874,3.9289,3.915,3.8427,3.8092,3.8027,3.7974,3.7974,3.7974,3.7974,3.7974,3.7974,3.7974,3.7974,3.7974,3.7974,3.7974,3.7974,3.7974,3.7974,3.7974,3.7974,3.7974,3.7974,3.7974,3.7974,3.7974,3.7974,3.7974,3.7974,3.7974,3.7346,3.6348,3.5172,3.3901,3.278,3.1832,3.1108,3.0644,3.0635,3.0771,3.0478,3.0664,3.085,3.083,3.084,3.084,3.083,3.0879,3.0879,3.0898,3.0898,3.0898,3.0898,3.0898,3.0898,3.0898,3.0898,3.0898,3.0898,3.0898,3.0898,3.0928,3.1269,3.167,3.2129,3.2549,3.2871,3.3281,3.3389,3.3418,3.3418,3.3418,3.3418,3.3418,3.3418,3.3418,3.3418,3.3418,3.3418,3.3418,3.3418,3.3418,3.3418,3.3418,3.3418,3.3418,3.3418,3.3418,3.3418,3.3418,3.3418,3.3418,3.3418,3.3418,3.3408,3.3359,3.3252,3.2832,3.2412,3.1914,3.1533,3.1123,3.0957,3.0947,3.1122,3.1344,3.2008,3.2903,3.3561,3.4168,3.5936,3.7643,3.7761,3.7957,3.8125,3.9492,3.9228,3.8627,3.8198,3.8027,3.7974,3.7974,3.7974,3.7974,3.7974,3.7974,3.7974,3.7974,3.7974,3.7974,3.7974,3.7974,3.7974,3.7974,3.7974,3.7974,3.7974,3.7974,3.7974,3.7974,3.7974,3.7974,3.7974,3.7974,3.7974,3.7868,3.7601,3.6507,3.532,3.4292,3.3155,3.2045,3.1092,3.1044,3.084,3.082,3.085,3.0889,3.0898,3.0898,3.0898,3.0898,3.0898,3.0898,3.0898,3.0898,3.0898,3.0898,3.0898,3.0898,3.0898,3.0898,3.0898,3.0898,3.0898,3.0898,3.0947,3.1279,3.1709,3.2139,3.2549,3.2969,3.3359,3.3418,3.3481,3.3481,3.3534,3.3597,3.3723,3.3786,3.3534,3.3534,3.3418,3.3418,3.3418,3.3418,3.3418,3.3418,3.3481,3.3481,3.3481,3.3418,3.3418,3.3418,3.3418,3.3418,3.3418,3.3418,3.3418,3.3418,3.3418,3.3252,3.2822,3.2373,3.1875,3.1455,3.1094,3.0996,3.1025,3.1508,3.196,3.3176,3.4402,3.5002,3.5608,3.6708,3.7974,3.8092,3.8258,3.8468,3.8912,3.8888,3.8376,3.8198,3.825,3.8104,3.7974,3.7974,3.7974,3.7974,3.7974,3.7974,3.7974,3.7974,3.7974,3.7974,3.7974,3.7974,3.7974,3.7974,3.7974,3.7974,3.7974,3.7974,3.7974,3.7974,3.7974,3.7974,3.7974,3.7974,3.7974,3.7814,3.7429,3.6274,3.4603,3.3346,3.241,3.2018,3.145,3.0889,3.0898,3.0898,3.0898,3.0898,3.0898,3.0898,3.0898,3.0898,3.0898,3.0898,3.0898,3.0898,3.0898,3.0898,3.0898,3.0898,3.0898,3.0898,3.0898,3.0898,3.0898,3.1025,3.1318,3.1748,3.2139,3.2559,3.2969,3.3301,3.3408,3.3723,3.4528,3.4642,3.4767,3.4829,3.4704,3.4153,3.3912,3.3534,3.3418,3.3418,3.3418,3.3534,3.3597,3.366,3.3723,3.3481,3.3418,3.3418,3.3418,3.3418,3.3418,3.3418,3.3418,3.3418,3.3418,3.3418,3.3135,3.2646,3.2256,3.1846,3.1445,3.1309,3.1287,3.146,3.2076,3.2799,3.4067,3.5278,3.6274,3.7162,3.7974,3.8356,3.8409,3.8599,3.8863,3.8356,3.8473,3.8133,3.8092,3.821,3.8092,3.7974,3.7974,3.7974,3.7974,3.7974,3.7974,3.7974,3.7974,3.7974,3.7974,3.7974,3.7974,3.7974,3.7974,3.7974,3.7974,3.7974,3.7974,3.7974,3.7974,3.7974,3.7974,3.7974,3.7974,3.7974,3.7974,3.7974,3.715,3.5663,3.4503,3.3073,3.2514,3.1624,3.0898,3.0898,3.0898,3.0898,3.0898,3.0898,3.0898,3.0898,3.0898,3.0898,3.0898,3.0898,3.0898,3.0898,3.0898,3.0898,3.0898,3.0898,3.0898,3.0898,3.0898,3.0898,3.0918,3.1406,3.1846,3.2236,3.2715,3.3076,3.334,3.3461,3.4215,3.5139,3.5387,3.5201,3.5191,3.4943,3.434,3.4153,3.3786,3.3902,3.3849,3.433,3.4268,3.409,3.3912,3.3965,3.366,3.3418,3.3481,3.3534,3.3418,3.3418,3.3418,3.3418,3.3418,3.3418,3.3418,3.3047,3.249,3.2148,3.1925,3.2145,3.2077,3.1956,3.2123,3.3346,3.4458,3.5168,3.6154,3.7311,3.8027,3.8566,3.8788,3.8788,3.9016,3.9229,3.8027,3.8027,3.7974,3.8039,3.8039,3.8027,3.7974,3.7974,3.7974,3.7974,3.7974,3.7974,3.7974,3.7974,3.7974,3.7974,3.7974,3.7974,3.7974,3.7974,3.7974,3.7974,3.7974,3.7974,3.7974,3.7974,3.7974,3.7974,3.7974,3.7974,3.7974,3.7974,3.7974,3.7643,3.6815,3.5553,3.4067,3.3073,3.2018,3.1286,3.1005,3.0898,3.0898,3.0898,3.0898,3.0898,3.0898,3.0898,3.0898,3.0898,3.0898,3.0898,3.0898,3.0898,3.0898,3.0898,3.0898,3.0898,3.0898,3.0898,3.0898,3.0976,3.1592,3.2053,3.2427,3.2942,3.3515,3.3908,3.4143,3.4757,3.5376,3.5067,3.4819,3.4757,3.4704,3.4465,3.434,3.4403,3.4642,3.5005,3.5786,3.5848,3.5304,3.5005,3.4455,3.4632,3.4507,3.4393,3.4278,3.3481,3.3481,3.3418,3.3418,3.3418,3.3418,3.3418,3.3144,3.2646,3.2346,3.2144,3.2471,3.2744,3.2653,3.3212,3.5002,3.6165,3.6762,3.7524,3.8449,3.8998,3.905,3.9102,3.9102,3.9417,3.9705,3.8092,3.825,3.8092,3.808,3.825,3.8092,3.7974,3.7974,3.7974,3.7974,3.7974,3.7974,3.7974,3.7974,3.7974,3.7974,3.7974,3.7974,3.7974,3.7974,3.7974,3.7974,3.7974,3.7974,3.7974,3.7974,3.7974,3.7974,3.7974,3.7974,3.7974,3.7974,3.7974,3.7974,3.7483,3.6449,3.5179,3.3899,3.2789,3.195,3.1276,3.1122,3.1122,3.117,3.1005,3.1005,3.1064,3.1064,3.1005,3.0898,3.0889,3.0889,3.0898,3.0898,3.0898,3.0898,3.0898,3.0898,3.0898,3.0898,3.0898,3.1025,3.1465,3.1826,3.2361,3.3225,3.4116,3.4656,3.5345,3.6032,3.6327,3.6082,3.5837,3.5848,3.5786,3.5786,3.5725,3.5971,3.6215,3.6581,3.7358,3.6399,3.5971,3.5489,3.5067,3.5479,3.5664,3.5489,3.4943,3.409,3.409,3.409,3.3481,3.3481,3.3481,3.3481,3.3154,3.2842,3.2512,3.2343,3.2611,3.2915,3.311,3.4247,3.6034,3.7311,3.8238,3.8841,3.9102,3.9154,3.9258,3.931,3.9463,3.9753,4.0167,3.8092,3.8185,3.8092,3.808,3.8198,3.8092,3.7974,3.7974,3.7974,3.7974,3.7974,3.7974,3.7974,3.7974,3.7974,3.7974,3.7974,3.7974,3.7974,3.7974,3.7974,3.7974,3.7974,3.7974,3.7974,3.7974,3.7974,3.7974,3.7974,3.7974,3.7974,3.7974,3.7974,3.7974,3.7749,3.7215,3.634,3.5113,3.4,3.3063,3.2399,3.1845,3.1845,3.195,3.1614,3.1228,3.1566,3.1614,3.1392,3.118,3.117,3.1334,3.1112,3.0898,3.0898,3.0898,3.0898,3.0898,3.0898,3.0898,3.0898,3.1122,3.1641,3.2302,3.2943,3.3747,3.4895,3.5853,3.6738,3.7418,3.7467,3.7467,3.7467,3.7467,3.7407,3.7396,3.7588,3.7779,3.8078,3.8328,3.785,3.6764,3.6154,3.5735,3.5489,3.5735,3.6215,3.652,3.5674,3.4455,3.4943,3.5489,3.4393,3.3544,3.366,3.3965,3.3691,3.3322,3.25,3.2443,3.2741,3.3618,3.4401,3.5629,3.7007,3.8056,3.8945,3.9102,3.931,3.9399,3.9488,3.954,3.9717,4.0019,4.0511,3.7974,3.8027,3.7974,3.8027,3.7974,3.7974,3.7974,3.7974,3.7974,3.7974,3.7974,3.7974,3.7974,3.7974,3.7974,3.7974,3.7974,3.7974,3.7974,3.7974,3.7974,3.7974,3.7974,3.7974,3.7974,3.7974,3.7974,3.7974,3.7974,3.7974,3.7974,3.7974,3.7974,3.7974,3.7921,3.7814,3.7162,3.6383,3.5498,3.4614,3.4011,3.3515,3.3233,3.3674,3.2778,3.1777,3.2571,3.2628,3.2295,3.1903,3.173,3.195,3.1276,3.0898,3.0898,3.0947,3.0947,3.1005,3.116,3.1325,3.1441,3.172,3.2248,3.3455,3.4438,3.5109,3.6301,3.7436,3.8292,3.8569,3.8602,3.8532,3.8532,3.8472,3.8472,3.878,3.9205,3.9334,3.9345,3.9228,3.8149,3.7309,3.7947,3.7648,3.7006,3.6581,3.646,3.7067,3.7177,3.5776,3.5848,3.6753,3.5899,3.4995,3.5232,3.5294,3.4632,3.3957,3.3405,3.3306,3.4087,3.5013,3.5881,3.7115,3.8267,3.8712,3.9322,3.9426,3.9553,3.9819,3.9832,3.9821,4.0049,4.045,4.0752,3.7974,3.7974,3.7974,3.7974,3.7974,3.7974,3.8027,3.7974,3.7974,3.8027,3.7974,3.7974,3.7974,3.7974,3.7974,3.7974,3.7974,3.7974,3.7974,3.7974,3.7974,3.7974,3.7974,3.7974,3.7974,3.7974,3.7974,3.7974,3.7974,3.7974,3.7974,3.7974,3.7974,3.7974,3.7974,3.7974,3.7696,3.7269,3.6989,3.5881,3.4781,3.4391,3.4168,3.4336,3.3618,3.3392,3.3832,3.3832,3.3233,3.2685,3.2571,3.2008,3.0995,3.0947,3.0898,3.0947,3.1218,3.1383,3.1652,3.2197,3.269,3.3191,3.3976,3.5413,3.6442,3.7088,3.7851,3.8897,3.9511,3.9605,3.9593,3.9534,3.9499,3.9499,3.9545,4.0152,4.0767,4.0651,4.0548,3.965,3.8518,3.8684,3.9334,3.9216,3.8636,3.797,3.7358,3.7659,3.8957,3.8472,3.7396,3.7828,3.7528,3.6974,3.7045,3.6742,3.6072,3.6107,3.59,3.5752,3.5587,3.6286,3.7172,3.8421,3.9478,3.953,3.9542,3.9594,3.9798,4.0049,4.0237,4.0224,4.0752,4.1216,4.1304,3.8185,3.8198,3.8303,3.8315,3.8198,3.8303,3.825,3.8039,3.8145,3.8092,3.7974,3.7974,3.7974,3.7974,3.7974,3.7974,3.7974,3.7974,3.7974,3.7974,3.7974,3.7974,3.7974,3.7974,3.7974,3.7974,3.7974,3.7974,3.7974,3.7974,3.7974,3.7974,3.7974,3.7974,3.7974,3.7974,3.7974,3.7974,3.7974,3.715,3.5772,3.5553,3.5651,3.5663,3.5157,3.477,3.438,3.4269,3.3335,3.2399,3.1835,3.1787,3.116,3.1102,3.117,3.1498,3.1883,3.2311,3.2644,3.3417,3.4281,3.467,3.5409,3.6711,3.727,3.7899,3.8939,3.9917,4.0265,4.0434,3.9923,3.972,3.9898,3.9981,4.0679,4.1456,4.1606,4.1447,4.139,4.1148,4.0059,3.9381,3.9849,3.9791,3.9393,3.9569,3.891,3.9275,4.0338,4.0743,3.9733,3.9087,3.8887,3.871,3.871,3.8283,3.7626,3.7855,3.8243,3.7597,3.7122,3.7707,3.85,3.9275,3.9747,3.9697,3.9697,3.9697,3.9973,4.0287,4.0475,4.0601,4.1266,4.1856,4.1844,3.8409,3.8473,3.8671,3.8684,3.8514,3.8684,3.8526,3.8198,3.8368,3.8303,3.8145,3.808,3.8027,3.7974,3.7974,3.7974,3.7974,3.7974,3.7974,3.7974,3.7974,3.7974,3.7974,3.7974,3.7974,3.7974,3.7974,3.7974,3.7974,3.7974,3.7974,3.7974,3.7974,3.7974,3.7974,3.7974,3.7974,3.7974,3.7974,3.7974,3.7483,3.7042,3.715,3.6762,3.6154,3.4891,3.4725,3.4492,3.3505,3.2446,3.172,3.1498,3.145,3.1383,3.1767,3.2102,3.2871,3.336,3.3957,3.4958,3.5453,3.5945,3.6858,3.756,3.8188,3.8798,3.9853,4.0285,4.0699,4.0797,4.0294,4.0139,4.0345,4.068,4.1587,4.2208,4.2051,4.1919,4.1874,4.1899,4.1296,4.0315,4.0384,4.0384,4.0454,4.0639,4.0997,4.1663,4.2029,4.1822,4.1227,4.0801,4.0558,4.043,4.0373,4.0071,3.9475,3.9686,3.9949,3.9158,3.8651,3.8719,3.8985,3.9544,3.986,3.976,3.971,3.9697,4.0049,4.0526,4.0764,4.104,4.1743,4.2233,4.2271,3.8514,3.8736,3.8788,3.8788,3.8736,3.8788,3.8736,3.8684,3.8684,3.8684,3.8579,3.8356,3.8185,3.8027,3.7974,3.7974,3.7974,3.7974,3.7974,3.7974,3.7974,3.7974,3.7974,3.7974,3.7974,3.7974,3.7974,3.7974,3.7974,3.7974,3.7974,3.7974,3.7974,3.7974,3.7974,3.7974,3.7974,3.7974,3.7974,3.7974,3.7974,3.7708,3.7814,3.7696,3.759,3.6719,3.6394,3.6881,3.5717,3.4336,3.2892,3.2285,3.196,3.1903,3.2332,3.3109,3.3866,3.4637,3.5464,3.6565,3.7103,3.7382,3.8173,3.8828,3.9203,3.9216,3.9875,3.9975,4.0367,4.0893,4.069,4.0752,4.0938,4.1322,4.2051,4.1965,4.1811,4.1508,4.1313,4.1509,4.1488,4.1374,4.181,4.1696,4.1594,4.172,4.172,4.2268,4.2413,4.2469,4.2538,4.2231,4.1923,4.2105,4.2105,4.198,4.1659,4.1793,4.1658,4.0959,4.0184,3.9334,3.9599,4.0015,3.9948,3.9772,3.9735,3.976,4.0325,4.0802,4.1025,4.1413,4.2183,4.2572,4.2597]}]]